Time,TemperatureF,DewpointF,PressureIn,WindDirection,WindDirectionDegrees,WindSpeedMPH,WindSpeedGustMPH,Humidity,HourlyPrecipIn,Conditions,Clouds,dailyrainin,SoftwareType,DateUTC
2013-02-07 00:00:00,23.4,11.6,30.33,NE,39,0.0,3.0,60,0.00,,,0.00,VWS V14.01,2013-02-07 05:00:00,
2013-02-07 00:01:00,23.4,11.6,30.33,NE,39,0.0,0.0,60,0.00,,,0.00,VWS V14.01,2013-02-07 05:01:00,
2013-02-07 00:02:00,23.3,11.5,30.33,NE,36,2.0,3.0,60,0.00,,,0.00,VWS V14.01,2013-02-07 05:02:00,
2013-02-07 00:03:00,23.3,11.5,30.33,NE,36,0.0,3.0,60,0.00,,,0.00,VWS V14.01,2013-02-07 05:03:00,
2013-02-07 00:04:00,23.3,11.5,30.33,NE,36,0.0,3.0,60,0.00,,,0.00,VWS V14.01,2013-02-07 05:04:00,
2013-02-07 00:05:00,23.2,11.4,30.33,NE,36,0.0,3.0,60,0.00,,,0.00,VWS V14.01,2013-02-07 05:05:00,
2013-02-07 00:06:00,23.2,11.4,30.33,NE,36,0.0,3.0,60,0.00,,,0.00,VWS V14.01,2013-02-07 05:06:00,
2013-02-07 00:07:00,23.2,11.4,30.33,NE,36,0.0,3.0,60,0.00,,,0.00,VWS V14.01,2013-02-07 05:07:00,
2013-02-07 00:08:00,23.2,11.0,30.33,NE,36,0.0,3.0,59,0.00,,,0.00,VWS V14.01,2013-02-07 05:08:00,
2013-02-07 00:09:00,23.1,10.9,30.33,NE,36,1.0,3.0,59,0.00,,,0.00,VWS V14.01,2013-02-07 05:09:00,
2013-02-07 00:10:00,23.1,10.9,30.33,NE,35,3.0,3.0,59,0.00,,,0.00,VWS V14.01,2013-02-07 05:10:00,
2013-02-07 00:11:00,23.1,10.9,30.33,NE,36,1.0,3.0,59,0.00,,,0.00,VWS V14.01,2013-02-07 05:11:00,
2013-02-07 00:12:00,23.1,10.9,30.33,NE,44,2.0,3.0,59,0.00,,,0.00,VWS V14.01,2013-02-07 05:12:00,
2013-02-07 00:13:00,23.1,10.9,30.33,NE,43,1.0,3.0,59,0.00,,,0.00,VWS V14.01,2013-02-07 05:13:00,
2013-02-07 00:14:00,23.1,10.9,30.33,NE,43,0.0,3.0,59,0.00,,,0.00,VWS V14.01,2013-02-07 05:14:00,
2013-02-07 00:15:00,23.1,10.9,30.33,NE,43,0.0,3.0,59,0.00,,,0.00,VWS V14.01,2013-02-07 05:15:00,
2013-02-07 00:16:00,23.1,10.9,30.33,NE,43,0.0,3.0,59,0.00,,,0.00,VWS V14.01,2013-02-07 05:16:00,
2013-02-07 00:17:00,23.1,10.9,30.33,NE,43,0.0,3.0,59,0.00,,,0.00,VWS V14.01,2013-02-07 05:17:00,
2013-02-07 00:18:00,23.1,10.9,30.33,NE,43,0.0,3.0,59,0.00,,,0.00,VWS V14.01,2013-02-07 05:18:00,
2013-02-07 00:19:00,23.1,11.3,30.33,NE,40,0.0,3.0,60,0.00,,,0.00,VWS V14.01,2013-02-07 05:19:00,
2013-02-07 00:20:00,23.0,10.8,30.33,NE,40,0.0,3.0,59,0.00,,,0.00,VWS V14.01,2013-02-07 05:20:00,
2013-02-07 00:21:00,23.0,10.8,30.33,NE,40,0.0,0.0,59,0.00,,,0.00,VWS V14.01,2013-02-07 05:21:00,
2013-02-07 00:22:00,23.0,11.2,30.33,NE,40,0.0,0.0,60,0.00,,,0.00,VWS V14.01,2013-02-07 05:22:00,
2013-02-07 00:23:00,23.0,11.2,30.33,NE,40,0.0,0.0,60,0.00,,,0.00,VWS V14.01,2013-02-07 05:23:00,
2013-02-07 00:24:00,23.0,11.2,30.33,NE,40,0.0,0.0,60,0.00,,,0.00,VWS V14.01,2013-02-07 05:24:00,
2013-02-07 00:25:00,23.0,11.2,30.33,NE,40,0.0,0.0,60,0.00,,,0.00,VWS V14.01,2013-02-07 05:25:00,
2013-02-07 00:26:00,23.0,11.2,30.33,NE,40,0.0,0.0,60,0.00,,,0.00,VWS V14.01,2013-02-07 05:26:00,
2013-02-07 00:27:00,22.9,11.1,30.33,NE,40,0.0,0.0,60,0.00,,,0.00,VWS V14.01,2013-02-07 05:27:00,
2013-02-07 00:28:00,22.9,11.1,30.33,NE,40,0.0,0.0,60,0.00,,,0.00,VWS V14.01,2013-02-07 05:28:00,
2013-02-07 00:29:00,22.9,11.1,30.33,NE,40,0.0,0.0,60,0.00,,,0.00,VWS V14.01,2013-02-07 05:29:00,
2013-02-07 00:30:00,22.9,11.1,30.33,NE,40,0.0,0.0,60,0.00,,,0.00,VWS V14.01,2013-02-07 05:30:00,
2013-02-07 00:31:00,22.9,11.5,30.33,NE,40,0.0,0.0,61,0.00,,,0.00,VWS V14.01,2013-02-07 05:31:00,
2013-02-07 00:32:00,22.8,11.4,30.33,NE,40,0.0,0.0,61,0.00,,,0.00,VWS V14.01,2013-02-07 05:32:00,
2013-02-07 00:33:00,22.8,11.4,30.33,NE,40,0.0,0.0,61,0.00,,,0.00,VWS V14.01,2013-02-07 05:33:00,
2013-02-07 00:34:00,22.8,11.4,30.33,NE,40,0.0,0.0,61,0.00,,,0.00,VWS V14.01,2013-02-07 05:34:00,
2013-02-07 00:35:00,22.7,11.3,30.33,NE,40,0.0,0.0,61,0.00,,,0.00,VWS V14.01,2013-02-07 05:35:00,
2013-02-07 00:36:00,22.7,11.3,30.33,NE,40,0.0,0.0,61,0.00,,,0.00,VWS V14.01,2013-02-07 05:36:00,
2013-02-07 00:37:00,22.7,11.3,30.33,NE,40,0.0,0.0,61,0.00,,,0.00,VWS V14.01,2013-02-07 05:37:00,
2013-02-07 00:38:00,22.6,11.2,30.33,NE,40,0.0,0.0,61,0.00,,,0.00,VWS V14.01,2013-02-07 05:38:00,
2013-02-07 00:39:00,22.6,11.2,30.33,NE,40,0.0,0.0,61,0.00,,,0.00,VWS V14.01,2013-02-07 05:39:00,
2013-02-07 00:40:00,22.6,11.2,30.33,NE,40,0.0,0.0,61,0.00,,,0.00,VWS V14.01,2013-02-07 05:40:00,
2013-02-07 00:41:00,22.6,11.6,30.33,NE,40,0.0,0.0,62,0.00,,,0.00,VWS V14.01,2013-02-07 05:41:00,
2013-02-07 00:42:00,22.5,11.5,30.33,NE,40,0.0,0.0,62,0.00,,,0.00,VWS V14.01,2013-02-07 05:42:00,
2013-02-07 00:43:00,22.5,11.5,30.33,NE,40,0.0,0.0,62,0.00,,,0.00,VWS V14.01,2013-02-07 05:43:00,
2013-02-07 00:44:00,22.4,11.4,30.33,NE,40,0.0,0.0,62,0.00,,,0.00,VWS V14.01,2013-02-07 05:44:00,
2013-02-07 00:45:00,22.4,11.4,30.34,NE,40,0.0,0.0,62,0.00,,,0.00,VWS V14.01,2013-02-07 05:45:00,
2013-02-07 00:46:00,22.3,11.3,30.34,NE,40,0.0,0.0,62,0.00,,,0.00,VWS V14.01,2013-02-07 05:46:00,
2013-02-07 00:47:00,22.3,11.3,30.34,NE,40,0.0,0.0,62,0.00,,,0.00,VWS V14.01,2013-02-07 05:47:00,
2013-02-07 00:48:00,22.2,11.2,30.34,NE,40,0.0,0.0,62,0.00,,,0.00,VWS V14.01,2013-02-07 05:48:00,
2013-02-07 00:49:00,22.2,11.2,30.34,NE,40,0.0,0.0,62,0.00,,,0.00,VWS V14.01,2013-02-07 05:49:00,
2013-02-07 00:50:00,22.2,11.2,30.34,NE,40,0.0,0.0,62,0.00,,,0.00,VWS V14.01,2013-02-07 05:50:00,
2013-02-07 00:51:00,22.2,11.2,30.34,NE,40,0.0,0.0,62,0.00,,,0.00,VWS V14.01,2013-02-07 05:51:00,
2013-02-07 00:52:00,22.2,11.5,30.34,North,355,3.0,3.0,63,0.00,,,0.00,VWS V14.01,2013-02-07 05:52:00,
2013-02-07 00:53:00,22.1,11.4,30.34,North,355,0.0,3.0,63,0.00,,,0.00,VWS V14.01,2013-02-07 05:53:00,
2013-02-07 00:54:00,22.1,11.4,30.34,North,355,0.0,3.0,63,0.00,,,0.00,VWS V14.01,2013-02-07 05:54:00,
2013-02-07 00:55:00,22.0,11.4,30.34,North,355,0.0,3.0,63,0.00,,,0.00,VWS V14.01,2013-02-07 05:55:00,
2013-02-07 00:56:00,22.0,11.7,30.34,North,355,0.0,3.0,64,0.00,,,0.00,VWS V14.01,2013-02-07 05:56:00,
2013-02-07 00:57:00,22.0,11.7,30.34,North,355,0.0,3.0,64,0.00,,,0.00,VWS V14.01,2013-02-07 05:57:00,
2013-02-07 00:58:00,22.0,11.7,30.34,North,355,0.0,3.0,64,0.00,,,0.00,VWS V14.01,2013-02-07 05:58:00,
2013-02-07 00:59:00,21.9,11.6,30.34,North,355,0.0,3.0,64,0.00,,,0.00,VWS V14.01,2013-02-07 05:59:00,
2013-02-07 01:00:00,21.9,11.6,30.35,North,355,0.0,3.0,64,0.00,,,0.00,VWS V14.01,2013-02-07 06:00:00,
2013-02-07 01:01:00,21.9,11.6,30.35,North,355,0.0,0.0,64,0.00,,,0.00,VWS V14.01,2013-02-07 06:01:00,
2013-02-07 01:02:00,21.8,11.9,30.35,North,355,0.0,0.0,65,0.00,,,0.00,VWS V14.01,2013-02-07 06:02:00,
2013-02-07 01:03:00,21.8,11.9,30.35,North,355,0.0,0.0,65,0.00,,,0.00,VWS V14.01,2013-02-07 06:03:00,
2013-02-07 01:04:00,21.8,11.9,30.35,North,355,0.0,0.0,65,0.00,,,0.00,VWS V14.01,2013-02-07 06:04:00,
2013-02-07 01:05:00,21.7,12.1,30.35,North,355,0.0,0.0,66,0.00,,,0.00,VWS V14.01,2013-02-07 06:05:00,
2013-02-07 01:06:00,21.7,12.1,30.35,North,355,0.0,0.0,66,0.00,,,0.00,VWS V14.01,2013-02-07 06:06:00,
2013-02-07 01:07:00,21.7,12.1,30.35,North,355,0.0,0.0,66,0.00,,,0.00,VWS V14.01,2013-02-07 06:07:00,
2013-02-07 01:08:00,21.6,12.0,30.35,North,355,0.0,0.0,66,0.00,,,0.00,VWS V14.01,2013-02-07 06:08:00,
2013-02-07 01:09:00,21.6,12.0,30.35,North,355,0.0,0.0,66,0.00,,,0.00,VWS V14.01,2013-02-07 06:09:00,
2013-02-07 01:10:00,21.6,12.0,30.35,North,355,0.0,0.0,66,0.00,,,0.00,VWS V14.01,2013-02-07 06:10:00,
2013-02-07 01:11:00,21.6,12.0,30.35,North,355,0.0,0.0,66,0.00,,,0.00,VWS V14.01,2013-02-07 06:11:00,
2013-02-07 01:12:00,21.5,11.9,30.35,North,355,0.0,0.0,66,0.00,,,0.00,VWS V14.01,2013-02-07 06:12:00,
2013-02-07 01:13:00,21.5,11.9,30.35,North,355,0.0,0.0,66,0.00,,,0.00,VWS V14.01,2013-02-07 06:13:00,
2013-02-07 01:14:00,21.5,11.9,30.35,North,355,0.0,0.0,66,0.00,,,0.00,VWS V14.01,2013-02-07 06:14:00,
2013-02-07 01:15:00,21.5,11.9,30.35,North,355,0.0,0.0,66,0.00,,,0.00,VWS V14.01,2013-02-07 06:15:00,
2013-02-07 01:16:00,21.5,11.9,30.35,North,355,0.0,0.0,66,0.00,,,0.00,VWS V14.01,2013-02-07 06:16:00,
2013-02-07 01:17:00,21.4,11.8,30.35,North,355,0.0,0.0,66,0.00,,,0.00,VWS V14.01,2013-02-07 06:17:00,
2013-02-07 01:18:00,21.4,11.8,30.35,North,355,0.0,0.0,66,0.00,,,0.00,VWS V14.01,2013-02-07 06:18:00,
2013-02-07 01:19:00,21.4,11.8,30.35,North,355,0.0,0.0,66,0.00,,,0.00,VWS V14.01,2013-02-07 06:19:00,
2013-02-07 01:20:00,21.4,11.8,30.35,North,355,0.0,0.0,66,0.00,,,0.00,VWS V14.01,2013-02-07 06:20:00,
2013-02-07 01:21:00,21.3,11.7,30.35,North,355,0.0,0.0,66,0.00,,,0.00,VWS V14.01,2013-02-07 06:21:00,
2013-02-07 01:22:00,21.3,11.7,30.35,North,355,0.0,0.0,66,0.00,,,0.00,VWS V14.01,2013-02-07 06:22:00,
2013-02-07 01:23:00,21.3,11.7,30.35,North,355,0.0,0.0,66,0.00,,,0.00,VWS V14.01,2013-02-07 06:23:00,
2013-02-07 01:24:00,21.3,11.7,30.35,North,355,0.0,0.0,66,0.00,,,0.00,VWS V14.01,2013-02-07 06:24:00,
2013-02-07 01:25:00,21.3,11.7,30.35,North,355,0.0,0.0,66,0.00,,,0.00,VWS V14.01,2013-02-07 06:25:00,
2013-02-07 01:26:00,21.2,11.6,30.35,North,355,0.0,0.0,66,0.00,,,0.00,VWS V14.01,2013-02-07 06:26:00,
2013-02-07 01:27:00,21.2,11.6,30.35,North,355,0.0,0.0,66,0.00,,,0.00,VWS V14.01,2013-02-07 06:27:00,
2013-02-07 01:28:00,21.2,11.6,30.35,North,355,0.0,0.0,66,0.00,,,0.00,VWS V14.01,2013-02-07 06:28:00,
2013-02-07 01:29:00,21.2,11.6,30.35,North,355,0.0,0.0,66,0.00,,,0.00,VWS V14.01,2013-02-07 06:29:00,
2013-02-07 01:30:00,21.2,12.0,30.35,North,355,0.0,0.0,67,0.00,,,0.00,VWS V14.01,2013-02-07 06:30:00,
2013-02-07 01:31:00,21.1,11.9,30.35,North,355,0.0,0.0,67,0.00,,,0.00,VWS V14.01,2013-02-07 06:31:00,
2013-02-07 01:32:00,21.1,11.9,30.35,North,355,0.0,0.0,67,0.00,,,0.00,VWS V14.01,2013-02-07 06:32:00,
2013-02-07 01:33:00,21.1,11.9,30.35,North,355,0.0,0.0,67,0.00,,,0.00,VWS V14.01,2013-02-07 06:33:00,
2013-02-07 01:34:00,21.1,11.9,30.35,North,355,0.0,0.0,67,0.00,,,0.00,VWS V14.01,2013-02-07 06:34:00,
2013-02-07 01:35:00,21.1,11.9,30.35,North,355,0.0,0.0,67,0.00,,,0.00,VWS V14.01,2013-02-07 06:35:00,
2013-02-07 01:36:00,21.1,11.9,30.35,North,355,0.0,0.0,67,0.00,,,0.00,VWS V14.01,2013-02-07 06:36:00,
2013-02-07 01:37:00,21.0,11.8,30.35,North,355,0.0,0.0,67,0.00,,,0.00,VWS V14.01,2013-02-07 06:37:00,
2013-02-07 01:38:00,21.0,11.8,30.35,North,355,0.0,0.0,67,0.00,,,0.00,VWS V14.01,2013-02-07 06:38:00,
2013-02-07 01:39:00,21.0,11.8,30.35,North,355,0.0,0.0,67,0.00,,,0.00,VWS V14.01,2013-02-07 06:39:00,
2013-02-07 01:40:00,21.0,11.8,30.35,North,355,0.0,0.0,67,0.00,,,0.00,VWS V14.01,2013-02-07 06:40:00,
2013-02-07 01:41:00,21.0,11.8,30.35,North,355,0.0,0.0,67,0.00,,,0.00,VWS V14.01,2013-02-07 06:41:00,
2013-02-07 01:42:00,20.9,11.7,30.35,North,355,0.0,0.0,67,0.00,,,0.00,VWS V14.01,2013-02-07 06:42:00,
2013-02-07 01:43:00,20.9,11.7,30.35,North,355,2.0,2.0,67,0.00,,,0.00,VWS V14.01,2013-02-07 06:43:00,
2013-02-07 01:44:00,20.9,11.7,30.35,North,355,0.0,2.0,67,0.00,,,0.00,VWS V14.01,2013-02-07 06:44:00,
2013-02-07 01:45:00,20.9,12.0,30.36,North,355,0.0,2.0,68,0.00,,,0.00,VWS V14.01,2013-02-07 06:45:00,
2013-02-07 01:46:00,20.9,12.0,30.36,North,355,0.0,2.0,68,0.00,,,0.00,VWS V14.01,2013-02-07 06:46:00,
2013-02-07 01:47:00,20.8,11.9,30.36,North,355,0.0,2.0,68,0.00,,,0.00,VWS V14.01,2013-02-07 06:47:00,
2013-02-07 01:48:00,20.8,11.9,30.36,North,355,0.0,2.0,68,0.00,,,0.00,VWS V14.01,2013-02-07 06:48:00,
2013-02-07 01:49:00,20.7,11.8,30.36,North,355,0.0,2.0,68,0.00,,,0.00,VWS V14.01,2013-02-07 06:49:00,
2013-02-07 01:50:00,20.7,11.8,30.36,North,355,0.0,2.0,68,0.00,,,0.00,VWS V14.01,2013-02-07 06:50:00,
2013-02-07 01:51:00,20.7,12.1,30.36,North,355,0.0,0.0,69,0.00,,,0.00,VWS V14.01,2013-02-07 06:51:00,
2013-02-07 01:52:00,20.7,12.1,30.36,North,355,0.0,0.0,69,0.00,,,0.00,VWS V14.01,2013-02-07 06:52:00,
2013-02-07 01:53:00,20.6,12.1,30.36,North,355,0.0,0.0,69,0.00,,,0.00,VWS V14.01,2013-02-07 06:53:00,
2013-02-07 01:54:00,20.6,12.1,30.36,North,355,0.0,0.0,69,0.00,,,0.00,VWS V14.01,2013-02-07 06:54:00,
2013-02-07 01:55:00,20.5,12.0,30.36,North,355,0.0,0.0,69,0.00,,,0.00,VWS V14.01,2013-02-07 06:55:00,
2013-02-07 01:56:00,20.5,12.0,30.36,North,355,0.0,0.0,69,0.00,,,0.00,VWS V14.01,2013-02-07 06:56:00,
2013-02-07 01:57:00,20.5,12.0,30.36,North,355,0.0,0.0,69,0.00,,,0.00,VWS V14.01,2013-02-07 06:57:00,
2013-02-07 01:58:00,20.4,12.2,30.36,North,355,0.0,0.0,70,0.00,,,0.00,VWS V14.01,2013-02-07 06:58:00,
2013-02-07 01:59:00,20.4,12.2,30.36,North,355,0.0,0.0,70,0.00,,,0.00,VWS V14.01,2013-02-07 06:59:00,
2013-02-07 02:00:00,20.4,12.2,30.35,North,355,0.0,0.0,70,0.00,,,0.00,VWS V14.01,2013-02-07 07:00:00,
2013-02-07 02:01:00,20.3,12.1,30.35,North,355,0.0,0.0,70,0.00,,,0.00,VWS V14.01,2013-02-07 07:01:00,
2013-02-07 02:02:00,20.3,12.4,30.35,North,355,0.0,0.0,71,0.00,,,0.00,VWS V14.01,2013-02-07 07:02:00,
2013-02-07 02:03:00,20.2,12.3,30.35,North,355,0.0,0.0,71,0.00,,,0.00,VWS V14.01,2013-02-07 07:03:00,
2013-02-07 02:04:00,20.2,12.3,30.35,North,355,0.0,0.0,71,0.00,,,0.00,VWS V14.01,2013-02-07 07:04:00,
2013-02-07 02:05:00,20.2,12.3,30.35,North,355,0.0,0.0,71,0.00,,,0.00,VWS V14.01,2013-02-07 07:05:00,
2013-02-07 02:06:00,20.1,12.2,30.35,North,355,0.0,0.0,71,0.00,,,0.00,VWS V14.01,2013-02-07 07:06:00,
2013-02-07 02:07:00,20.1,12.2,30.35,North,355,0.0,0.0,71,0.00,,,0.00,VWS V14.01,2013-02-07 07:07:00,
2013-02-07 02:08:00,20.1,12.5,30.35,North,355,0.0,0.0,72,0.00,,,0.00,VWS V14.01,2013-02-07 07:08:00,
2013-02-07 02:09:00,20.1,12.5,30.35,North,355,0.0,0.0,72,0.00,,,0.00,VWS V14.01,2013-02-07 07:09:00,
2013-02-07 02:10:00,20.0,12.4,30.35,North,355,0.0,0.0,72,0.00,,,0.00,VWS V14.01,2013-02-07 07:10:00,
2013-02-07 02:11:00,20.0,12.4,30.35,North,355,0.0,0.0,72,0.00,,,0.00,VWS V14.01,2013-02-07 07:11:00,
2013-02-07 02:12:00,20.0,12.4,30.35,North,355,0.0,0.0,72,0.00,,,0.00,VWS V14.01,2013-02-07 07:12:00,
2013-02-07 02:13:00,20.0,12.4,30.35,North,355,0.0,0.0,72,0.00,,,0.00,VWS V14.01,2013-02-07 07:13:00,
2013-02-07 02:14:00,20.0,12.4,30.35,North,355,0.0,0.0,72,0.00,,,0.00,VWS V14.01,2013-02-07 07:14:00,
2013-02-07 02:15:00,19.9,12.3,30.36,North,355,0.0,0.0,72,0.00,,,0.00,VWS V14.01,2013-02-07 07:15:00,
2013-02-07 02:16:00,19.9,12.3,30.36,North,355,0.0,0.0,72,0.00,,,0.00,VWS V14.01,2013-02-07 07:16:00,
2013-02-07 02:17:00,19.9,12.3,30.36,North,355,0.0,0.0,72,0.00,,,0.00,VWS V14.01,2013-02-07 07:17:00,
2013-02-07 02:18:00,19.9,12.3,30.36,North,355,0.0,0.0,72,0.00,,,0.00,VWS V14.01,2013-02-07 07:18:00,
2013-02-07 02:19:00,19.9,12.3,30.36,North,355,0.0,0.0,72,0.00,,,0.00,VWS V14.01,2013-02-07 07:19:00,
2013-02-07 02:20:00,19.8,12.2,30.36,North,355,0.0,0.0,72,0.00,,,0.00,VWS V14.01,2013-02-07 07:20:00,
2013-02-07 02:21:00,19.8,12.2,30.36,North,355,0.0,0.0,72,0.00,,,0.00,VWS V14.01,2013-02-07 07:21:00,
2013-02-07 02:22:00,19.8,12.2,30.36,North,355,0.0,0.0,72,0.00,,,0.00,VWS V14.01,2013-02-07 07:22:00,
2013-02-07 02:23:00,19.7,12.1,30.36,North,355,0.0,0.0,72,0.00,,,0.00,VWS V14.01,2013-02-07 07:23:00,
2013-02-07 02:24:00,19.7,12.1,30.36,North,355,0.0,0.0,72,0.00,,,0.00,VWS V14.01,2013-02-07 07:24:00,
2013-02-07 02:25:00,19.7,12.1,30.36,North,355,0.0,0.0,72,0.00,,,0.00,VWS V14.01,2013-02-07 07:25:00,
2013-02-07 02:26:00,19.7,12.1,30.36,North,355,0.0,0.0,72,0.00,,,0.00,VWS V14.01,2013-02-07 07:26:00,
2013-02-07 02:27:00,19.7,12.1,30.36,North,355,0.0,0.0,72,0.00,,,0.00,VWS V14.01,2013-02-07 07:27:00,
2013-02-07 02:28:00,19.7,12.1,30.36,North,355,0.0,0.0,72,0.00,,,0.00,VWS V14.01,2013-02-07 07:28:00,
2013-02-07 02:29:00,19.6,12.4,30.36,North,355,0.0,0.0,73,0.00,,,0.00,VWS V14.01,2013-02-07 07:29:00,
2013-02-07 02:30:00,19.6,12.4,30.36,North,355,0.0,0.0,73,0.00,,,0.00,VWS V14.01,2013-02-07 07:30:00,
2013-02-07 02:31:00,19.5,12.3,30.36,North,355,0.0,0.0,73,0.00,,,0.00,VWS V14.01,2013-02-07 07:31:00,
2013-02-07 02:32:00,19.5,12.3,30.36,North,355,0.0,0.0,73,0.00,,,0.00,VWS V14.01,2013-02-07 07:32:00,
2013-02-07 02:33:00,19.5,12.0,30.36,North,355,0.0,0.0,72,0.00,,,0.00,VWS V14.01,2013-02-07 07:33:00,
2013-02-07 02:34:00,19.5,12.0,30.36,North,355,1.0,1.0,72,0.00,,,0.00,VWS V14.01,2013-02-07 07:34:00,
2013-02-07 02:35:00,19.4,11.9,30.36,North,355,0.0,1.0,72,0.00,,,0.00,VWS V14.01,2013-02-07 07:35:00,
2013-02-07 02:36:00,19.4,11.9,30.36,North,355,0.0,1.0,72,0.00,,,0.00,VWS V14.01,2013-02-07 07:36:00,
2013-02-07 02:37:00,19.4,11.9,30.36,North,355,0.0,1.0,72,0.00,,,0.00,VWS V14.01,2013-02-07 07:37:00,
2013-02-07 02:38:00,19.4,11.9,30.36,North,355,0.0,1.0,72,0.00,,,0.00,VWS V14.01,2013-02-07 07:38:00,
2013-02-07 02:39:00,19.3,11.8,30.36,North,355,0.0,1.0,72,0.00,,,0.00,VWS V14.01,2013-02-07 07:39:00,
2013-02-07 02:40:00,19.3,11.8,30.36,North,355,0.0,1.0,72,0.00,,,0.00,VWS V14.01,2013-02-07 07:40:00,
2013-02-07 02:41:00,19.3,11.8,30.36,North,355,0.0,1.0,72,0.00,,,0.00,VWS V14.01,2013-02-07 07:41:00,
2013-02-07 02:42:00,19.3,11.8,30.36,North,355,0.0,1.0,72,0.00,,,0.00,VWS V14.01,2013-02-07 07:42:00,
2013-02-07 02:43:00,19.3,11.8,30.36,North,355,0.0,1.0,72,0.00,,,0.00,VWS V14.01,2013-02-07 07:43:00,
2013-02-07 02:44:00,19.3,11.8,30.36,North,355,0.0,1.0,72,0.00,,,0.00,VWS V14.01,2013-02-07 07:44:00,
2013-02-07 02:45:00,19.3,11.8,30.37,North,355,0.0,1.0,72,0.00,,,0.00,VWS V14.01,2013-02-07 07:45:00,
2013-02-07 02:46:00,19.2,12.0,30.37,North,355,0.0,1.0,73,0.00,,,0.00,VWS V14.01,2013-02-07 07:46:00,
2013-02-07 02:47:00,19.2,12.0,30.37,North,355,0.0,1.0,73,0.00,,,0.00,VWS V14.01,2013-02-07 07:47:00,
2013-02-07 02:48:00,19.2,12.0,30.37,North,355,0.0,1.0,73,0.00,,,0.00,VWS V14.01,2013-02-07 07:48:00,
2013-02-07 02:49:00,19.2,12.0,30.37,North,355,0.0,1.0,73,0.00,,,0.00,VWS V14.01,2013-02-07 07:49:00,
2013-02-07 02:50:00,19.2,12.0,30.37,North,355,0.0,1.0,73,0.00,,,0.00,VWS V14.01,2013-02-07 07:50:00,
2013-02-07 02:51:00,19.1,11.9,30.37,North,355,0.0,0.0,73,0.00,,,0.00,VWS V14.01,2013-02-07 07:51:00,
2013-02-07 02:52:00,19.1,11.9,30.37,North,355,0.0,0.0,73,0.00,,,0.00,VWS V14.01,2013-02-07 07:52:00,
2013-02-07 02:53:00,19.1,11.9,30.37,North,355,0.0,0.0,73,0.00,,,0.00,VWS V14.01,2013-02-07 07:53:00,
2013-02-07 02:54:00,19.1,11.9,30.37,North,355,0.0,0.0,73,0.00,,,0.00,VWS V14.01,2013-02-07 07:54:00,
2013-02-07 02:55:00,19.1,11.9,30.37,North,355,0.0,0.0,73,0.00,,,0.00,VWS V14.01,2013-02-07 07:55:00,
2013-02-07 02:56:00,19.1,11.9,30.37,North,355,0.0,0.0,73,0.00,,,0.00,VWS V14.01,2013-02-07 07:56:00,
2013-02-07 02:57:00,19.1,11.9,30.37,North,355,0.0,0.0,73,0.00,,,0.00,VWS V14.01,2013-02-07 07:57:00,
2013-02-07 02:58:00,19.1,11.9,30.37,North,355,0.0,0.0,73,0.00,,,0.00,VWS V14.01,2013-02-07 07:58:00,
2013-02-07 02:59:00,19.1,11.9,30.37,North,355,0.0,0.0,73,0.00,,,0.00,VWS V14.01,2013-02-07 07:59:00,
2013-02-07 03:00:00,19.1,11.9,30.37,North,355,0.0,0.0,73,0.00,,,0.00,VWS V14.01,2013-02-07 08:00:00,
2013-02-07 03:01:00,19.0,11.8,30.37,North,355,0.0,0.0,73,0.00,,,0.00,VWS V14.01,2013-02-07 08:01:00,
2013-02-07 03:02:00,19.0,11.8,30.37,North,355,0.0,0.0,73,0.00,,,0.00,VWS V14.01,2013-02-07 08:02:00,
2013-02-07 03:03:00,19.0,11.8,30.37,North,355,0.0,0.0,73,0.00,,,0.00,VWS V14.01,2013-02-07 08:03:00,
2013-02-07 03:04:00,19.0,11.8,30.37,North,355,0.0,0.0,73,0.00,,,0.00,VWS V14.01,2013-02-07 08:04:00,
2013-02-07 03:05:00,19.0,11.8,30.37,North,355,0.0,0.0,73,0.00,,,0.00,VWS V14.01,2013-02-07 08:05:00,
2013-02-07 03:06:00,18.9,11.7,30.37,North,355,0.0,0.0,73,0.00,,,0.00,VWS V14.01,2013-02-07 08:06:00,
2013-02-07 03:07:00,18.9,11.7,30.37,North,355,0.0,0.0,73,0.00,,,0.00,VWS V14.01,2013-02-07 08:07:00,
2013-02-07 03:08:00,18.9,12.0,30.37,North,355,0.0,0.0,74,0.00,,,0.00,VWS V14.01,2013-02-07 08:08:00,
2013-02-07 03:09:00,18.9,12.0,30.37,North,355,0.0,0.0,74,0.00,,,0.00,VWS V14.01,2013-02-07 08:09:00,
2013-02-07 03:10:00,18.9,12.0,30.37,North,355,0.0,0.0,74,0.00,,,0.00,VWS V14.01,2013-02-07 08:10:00,
2013-02-07 03:11:00,18.9,12.0,30.37,North,355,0.0,0.0,74,0.00,,,0.00,VWS V14.01,2013-02-07 08:11:00,
2013-02-07 03:12:00,18.9,12.0,30.37,North,355,0.0,0.0,74,0.00,,,0.00,VWS V14.01,2013-02-07 08:12:00,
2013-02-07 03:13:00,18.9,12.0,30.37,North,355,1.0,1.0,74,0.00,,,0.00,VWS V14.01,2013-02-07 08:13:00,
2013-02-07 03:14:00,18.9,12.0,30.37,North,355,0.0,1.0,74,0.00,,,0.00,VWS V14.01,2013-02-07 08:14:00,
2013-02-07 03:15:00,18.8,11.9,30.38,North,355,0.0,1.0,74,0.00,,,0.00,VWS V14.01,2013-02-07 08:15:00,
2013-02-07 03:16:00,18.8,11.9,30.38,North,355,0.0,1.0,74,0.00,,,0.00,VWS V14.01,2013-02-07 08:16:00,
2013-02-07 03:17:00,18.8,11.9,30.38,North,355,0.0,1.0,74,0.00,,,0.00,VWS V14.01,2013-02-07 08:17:00,
2013-02-07 03:18:00,18.8,11.9,30.38,North,355,0.0,1.0,74,0.00,,,0.00,VWS V14.01,2013-02-07 08:18:00,
2013-02-07 03:19:00,18.8,11.9,30.38,North,355,0.0,1.0,74,0.00,,,0.00,VWS V14.01,2013-02-07 08:19:00,
2013-02-07 03:20:00,18.8,11.9,30.38,North,355,0.0,1.0,74,0.00,,,0.00,VWS V14.01,2013-02-07 08:20:00,
2013-02-07 03:21:00,18.7,11.8,30.38,North,355,0.0,0.0,74,0.00,,,0.00,VWS V14.01,2013-02-07 08:21:00,
2013-02-07 03:22:00,18.7,11.8,30.38,North,355,0.0,0.0,74,0.00,,,0.00,VWS V14.01,2013-02-07 08:22:00,
2013-02-07 03:23:00,18.7,11.8,30.38,North,355,0.0,0.0,74,0.00,,,0.00,VWS V14.01,2013-02-07 08:23:00,
2013-02-07 03:24:00,18.7,11.8,30.38,North,355,0.0,0.0,74,0.00,,,0.00,VWS V14.01,2013-02-07 08:24:00,
2013-02-07 03:25:00,18.7,11.8,30.38,North,355,0.0,1.0,74,0.00,,,0.00,VWS V14.01,2013-02-07 08:25:00,
2013-02-07 03:26:00,18.6,11.7,30.38,North,355,0.0,1.0,74,0.00,,,0.00,VWS V14.01,2013-02-07 08:26:00,
2013-02-07 03:27:00,18.6,11.7,30.38,North,355,0.0,1.0,74,0.00,,,0.00,VWS V14.01,2013-02-07 08:27:00,
2013-02-07 03:28:00,18.6,11.7,30.38,North,355,0.0,1.0,74,0.00,,,0.00,VWS V14.01,2013-02-07 08:28:00,
2013-02-07 03:29:00,18.6,11.7,30.38,North,355,0.0,1.0,74,0.00,,,0.00,VWS V14.01,2013-02-07 08:29:00,
2013-02-07 03:30:00,18.6,11.7,30.37,North,355,0.0,1.0,74,0.00,,,0.00,VWS V14.01,2013-02-07 08:30:00,
2013-02-07 03:31:00,18.5,11.9,30.37,North,355,0.0,0.0,75,0.00,,,0.00,VWS V14.01,2013-02-07 08:31:00,
2013-02-07 03:32:00,18.5,11.9,30.37,North,355,0.0,0.0,75,0.00,,,0.00,VWS V14.01,2013-02-07 08:32:00,
2013-02-07 03:33:00,18.5,11.9,30.37,North,355,0.0,0.0,75,0.00,,,0.00,VWS V14.01,2013-02-07 08:33:00,
2013-02-07 03:34:00,18.5,11.9,30.37,North,355,0.0,0.0,75,0.00,,,0.00,VWS V14.01,2013-02-07 08:34:00,
2013-02-07 03:35:00,18.5,11.9,30.37,North,355,0.0,0.0,75,0.00,,,0.00,VWS V14.01,2013-02-07 08:35:00,
2013-02-07 03:36:00,18.5,11.9,30.37,North,355,0.0,0.0,75,0.00,,,0.00,VWS V14.01,2013-02-07 08:36:00,
2013-02-07 03:37:00,18.5,11.9,30.37,North,355,0.0,0.0,75,0.00,,,0.00,VWS V14.01,2013-02-07 08:37:00,
2013-02-07 03:38:00,18.4,11.8,30.37,North,355,0.0,0.0,75,0.00,,,0.00,VWS V14.01,2013-02-07 08:38:00,
2013-02-07 03:39:00,18.5,11.9,30.37,North,355,0.0,0.0,75,0.00,,,0.00,VWS V14.01,2013-02-07 08:39:00,
2013-02-07 03:40:00,18.4,11.8,30.37,North,355,0.0,0.0,75,0.00,,,0.00,VWS V14.01,2013-02-07 08:40:00,
2013-02-07 03:41:00,18.4,11.8,30.37,North,355,0.0,0.0,75,0.00,,,0.00,VWS V14.01,2013-02-07 08:41:00,
2013-02-07 03:42:00,18.4,11.8,30.37,North,355,0.0,0.0,75,0.00,,,0.00,VWS V14.01,2013-02-07 08:42:00,
2013-02-07 03:43:00,18.4,11.8,30.37,North,355,0.0,0.0,75,0.00,,,0.00,VWS V14.01,2013-02-07 08:43:00,
2013-02-07 03:44:00,18.4,11.8,30.37,North,355,0.0,0.0,75,0.00,,,0.00,VWS V14.01,2013-02-07 08:44:00,
2013-02-07 03:45:00,18.4,11.8,30.38,North,355,0.0,0.0,75,0.00,,,0.00,VWS V14.01,2013-02-07 08:45:00,
2013-02-07 03:46:00,18.4,11.8,30.38,North,355,0.0,0.0,75,0.00,,,0.00,VWS V14.01,2013-02-07 08:46:00,
2013-02-07 03:47:00,18.3,11.7,30.38,North,355,0.0,0.0,75,0.00,,,0.00,VWS V14.01,2013-02-07 08:47:00,
2013-02-07 03:48:00,18.3,11.7,30.38,North,355,0.0,0.0,75,0.00,,,0.00,VWS V14.01,2013-02-07 08:48:00,
2013-02-07 03:49:00,18.3,11.7,30.38,North,355,0.0,0.0,75,0.00,,,0.00,VWS V14.01,2013-02-07 08:49:00,
2013-02-07 03:50:00,18.3,11.7,30.38,North,355,0.0,0.0,75,0.00,,,0.00,VWS V14.01,2013-02-07 08:50:00,
2013-02-07 03:51:00,18.3,12.0,30.38,North,355,0.0,0.0,76,0.00,,,0.00,VWS V14.01,2013-02-07 08:51:00,
2013-02-07 03:52:00,18.3,12.0,30.38,North,355,0.0,0.0,76,0.00,,,0.00,VWS V14.01,2013-02-07 08:52:00,
2013-02-07 03:53:00,18.3,12.0,30.38,North,355,0.0,0.0,76,0.00,,,0.00,VWS V14.01,2013-02-07 08:53:00,
2013-02-07 03:54:00,18.2,11.9,30.38,North,355,0.0,0.0,76,0.00,,,0.00,VWS V14.01,2013-02-07 08:54:00,
2013-02-07 03:55:00,18.2,11.9,30.38,North,355,0.0,0.0,76,0.00,,,0.00,VWS V14.01,2013-02-07 08:55:00,
2013-02-07 03:56:00,18.2,11.9,30.38,North,355,0.0,0.0,76,0.00,,,0.00,VWS V14.01,2013-02-07 08:56:00,
2013-02-07 03:57:00,18.2,11.9,30.38,North,355,0.0,0.0,76,0.00,,,0.00,VWS V14.01,2013-02-07 08:57:00,
2013-02-07 03:58:00,18.2,11.9,30.38,North,355,0.0,0.0,76,0.00,,,0.00,VWS V14.01,2013-02-07 08:58:00,
2013-02-07 03:59:00,18.1,11.8,30.38,North,355,0.0,0.0,76,0.00,,,0.00,VWS V14.01,2013-02-07 08:59:00,
2013-02-07 04:00:00,18.1,11.8,30.39,North,355,0.0,0.0,76,0.00,,,0.00,VWS V14.01,2013-02-07 09:00:00,
2013-02-07 04:01:00,18.1,11.8,30.39,North,355,0.0,0.0,76,0.00,,,0.00,VWS V14.01,2013-02-07 09:01:00,
2013-02-07 04:02:00,18.1,11.8,30.39,North,355,0.0,0.0,76,0.00,,,0.00,VWS V14.01,2013-02-07 09:02:00,
2013-02-07 04:03:00,18.1,11.8,30.39,North,355,0.0,0.0,76,0.00,,,0.00,VWS V14.01,2013-02-07 09:03:00,
2013-02-07 04:04:00,18.1,11.8,30.39,North,355,0.0,0.0,76,0.00,,,0.00,VWS V14.01,2013-02-07 09:04:00,
2013-02-07 04:05:00,18.1,11.8,30.39,North,355,0.0,0.0,76,0.00,,,0.00,VWS V14.01,2013-02-07 09:05:00,
2013-02-07 04:06:00,18.1,12.1,30.39,North,355,0.0,0.0,77,0.00,,,0.00,VWS V14.01,2013-02-07 09:06:00,
2013-02-07 04:07:00,18.0,12.0,30.39,North,355,0.0,0.0,77,0.00,,,0.00,VWS V14.01,2013-02-07 09:07:00,
2013-02-07 04:08:00,18.0,12.0,30.39,North,355,0.0,0.0,77,0.00,,,0.00,VWS V14.01,2013-02-07 09:08:00,
2013-02-07 04:09:00,18.0,12.0,30.39,North,355,0.0,0.0,77,0.00,,,0.00,VWS V14.01,2013-02-07 09:09:00,
2013-02-07 04:10:00,18.0,12.0,30.39,North,355,0.0,0.0,77,0.00,,,0.00,VWS V14.01,2013-02-07 09:10:00,
2013-02-07 04:11:00,18.0,12.0,30.39,North,355,0.0,0.0,77,0.00,,,0.00,VWS V14.01,2013-02-07 09:11:00,
2013-02-07 04:12:00,18.0,12.0,30.39,North,355,0.0,0.0,77,0.00,,,0.00,VWS V14.01,2013-02-07 09:12:00,
2013-02-07 04:13:00,18.0,12.0,30.39,North,355,0.0,0.0,77,0.00,,,0.00,VWS V14.01,2013-02-07 09:13:00,
2013-02-07 04:14:00,18.0,12.0,30.39,North,355,0.0,0.0,77,0.00,,,0.00,VWS V14.01,2013-02-07 09:14:00,
2013-02-07 04:15:00,18.0,12.0,30.40,North,355,0.0,0.0,77,0.00,,,0.00,VWS V14.01,2013-02-07 09:15:00,
2013-02-07 04:16:00,18.0,12.0,30.40,North,355,0.0,0.0,77,0.00,,,0.00,VWS V14.01,2013-02-07 09:16:00,
2013-02-07 04:17:00,18.0,12.0,30.40,North,355,0.0,0.0,77,0.00,,,0.00,VWS V14.01,2013-02-07 09:17:00,
2013-02-07 04:18:00,18.0,12.0,30.40,North,355,0.0,0.0,77,0.00,,,0.00,VWS V14.01,2013-02-07 09:18:00,
2013-02-07 04:19:00,18.0,12.0,30.40,North,355,0.0,0.0,77,0.00,,,0.00,VWS V14.01,2013-02-07 09:19:00,
2013-02-07 04:20:00,17.9,11.9,30.40,North,355,0.0,0.0,77,0.00,,,0.00,VWS V14.01,2013-02-07 09:20:00,
2013-02-07 04:21:00,17.9,11.9,30.40,North,355,0.0,1.0,77,0.00,,,0.00,VWS V14.01,2013-02-07 09:21:00,
2013-02-07 04:22:00,17.9,11.9,30.40,North,355,0.0,1.0,77,0.00,,,0.00,VWS V14.01,2013-02-07 09:22:00,
2013-02-07 04:23:00,17.9,11.9,30.40,North,355,0.0,1.0,77,0.00,,,0.00,VWS V14.01,2013-02-07 09:23:00,
2013-02-07 04:24:00,17.9,11.9,30.40,North,355,0.0,1.0,77,0.00,,,0.00,VWS V14.01,2013-02-07 09:24:00,
2013-02-07 04:25:00,17.9,11.9,30.40,North,355,0.0,1.0,77,0.00,,,0.00,VWS V14.01,2013-02-07 09:25:00,
2013-02-07 04:26:00,17.9,11.9,30.40,North,355,0.0,1.0,77,0.00,,,0.00,VWS V14.01,2013-02-07 09:26:00,
2013-02-07 04:27:00,17.9,12.2,30.40,North,355,0.0,1.0,78,0.00,,,0.00,VWS V14.01,2013-02-07 09:27:00,
2013-02-07 04:28:00,17.9,12.2,30.40,North,355,0.0,1.0,78,0.00,,,0.00,VWS V14.01,2013-02-07 09:28:00,
2013-02-07 04:29:00,17.8,12.1,30.40,North,355,0.0,1.0,78,0.00,,,0.00,VWS V14.01,2013-02-07 09:29:00,
2013-02-07 04:30:00,17.8,12.1,30.40,North,355,0.0,1.0,78,0.00,,,0.00,VWS V14.01,2013-02-07 09:30:00,
2013-02-07 04:31:00,17.8,12.1,30.40,North,355,0.0,0.0,78,0.00,,,0.00,VWS V14.01,2013-02-07 09:31:00,
2013-02-07 04:32:00,17.8,12.1,30.40,North,355,0.0,0.0,78,0.00,,,0.00,VWS V14.01,2013-02-07 09:32:00,
2013-02-07 04:33:00,17.8,12.1,30.40,North,355,0.0,0.0,78,0.00,,,0.00,VWS V14.01,2013-02-07 09:33:00,
2013-02-07 04:34:00,17.8,12.1,30.40,North,355,0.0,0.0,78,0.00,,,0.00,VWS V14.01,2013-02-07 09:34:00,
2013-02-07 04:35:00,17.8,12.1,30.40,North,355,0.0,0.0,78,0.00,,,0.00,VWS V14.01,2013-02-07 09:35:00,
2013-02-07 04:36:00,17.7,12.0,30.40,North,355,0.0,0.0,78,0.00,,,0.00,VWS V14.01,2013-02-07 09:36:00,
2013-02-07 04:37:00,17.7,12.0,30.40,North,355,0.0,0.0,78,0.00,,,0.00,VWS V14.01,2013-02-07 09:37:00,
2013-02-07 04:38:00,17.7,12.3,30.40,North,355,0.0,0.0,79,0.00,,,0.00,VWS V14.01,2013-02-07 09:38:00,
2013-02-07 04:39:00,17.7,12.3,30.40,North,355,0.0,0.0,79,0.00,,,0.00,VWS V14.01,2013-02-07 09:39:00,
2013-02-07 04:40:00,17.7,12.3,30.40,North,355,0.0,0.0,79,0.00,,,0.00,VWS V14.01,2013-02-07 09:40:00,
2013-02-07 04:41:00,17.7,12.3,30.40,North,355,0.0,0.0,79,0.00,,,0.00,VWS V14.01,2013-02-07 09:41:00,
2013-02-07 04:42:00,17.7,12.3,30.40,North,355,0.0,0.0,79,0.00,,,0.00,VWS V14.01,2013-02-07 09:42:00,
2013-02-07 04:43:00,17.7,12.3,30.40,North,355,0.0,0.0,79,0.00,,,0.00,VWS V14.01,2013-02-07 09:43:00,
2013-02-07 04:44:00,17.6,12.2,30.40,North,355,0.0,0.0,79,0.00,,,0.00,VWS V14.01,2013-02-07 09:44:00,
2013-02-07 04:45:00,17.6,12.2,30.40,North,355,0.0,0.0,79,0.00,,,0.00,VWS V14.01,2013-02-07 09:45:00,
2013-02-07 04:46:00,17.6,12.2,30.40,North,355,0.0,0.0,79,0.00,,,0.00,VWS V14.01,2013-02-07 09:46:00,
2013-02-07 04:47:00,17.6,12.2,30.40,North,355,0.0,0.0,79,0.00,,,0.00,VWS V14.01,2013-02-07 09:47:00,
2013-02-07 04:48:00,17.6,12.2,30.40,North,355,0.0,0.0,79,0.00,,,0.00,VWS V14.01,2013-02-07 09:48:00,
2013-02-07 04:49:00,17.6,12.2,30.40,North,355,0.0,0.0,79,0.00,,,0.00,VWS V14.01,2013-02-07 09:49:00,
2013-02-07 04:50:00,17.6,12.2,30.40,North,355,0.0,0.0,79,0.00,,,0.00,VWS V14.01,2013-02-07 09:50:00,
2013-02-07 04:51:00,17.6,12.2,30.40,North,355,0.0,0.0,79,0.00,,,0.00,VWS V14.01,2013-02-07 09:51:00,
2013-02-07 04:52:00,17.5,12.1,30.40,North,355,0.0,0.0,79,0.00,,,0.00,VWS V14.01,2013-02-07 09:52:00,
2013-02-07 04:53:00,17.5,12.1,30.40,North,355,0.0,0.0,79,0.00,,,0.00,VWS V14.01,2013-02-07 09:53:00,
2013-02-07 04:54:00,17.5,12.1,30.40,North,355,0.0,0.0,79,0.00,,,0.00,VWS V14.01,2013-02-07 09:54:00,
2013-02-07 04:55:00,17.5,12.1,30.40,North,355,0.0,0.0,79,0.00,,,0.00,VWS V14.01,2013-02-07 09:55:00,
2013-02-07 04:56:00,17.5,12.1,30.40,North,355,0.0,0.0,79,0.00,,,0.00,VWS V14.01,2013-02-07 09:56:00,
2013-02-07 04:57:00,17.5,12.1,30.40,North,355,0.0,0.0,79,0.00,,,0.00,VWS V14.01,2013-02-07 09:57:00,
2013-02-07 04:58:00,17.5,12.1,30.40,North,355,0.0,0.0,79,0.00,,,0.00,VWS V14.01,2013-02-07 09:58:00,
2013-02-07 04:59:00,17.5,12.1,30.40,North,355,0.0,0.0,79,0.00,,,0.00,VWS V14.01,2013-02-07 09:59:00,
2013-02-07 05:00:00,17.5,12.1,30.41,North,355,0.0,0.0,79,0.00,,,0.00,VWS V14.01,2013-02-07 10:00:00,
2013-02-07 05:01:00,17.5,12.1,30.41,North,355,0.0,0.0,79,0.00,,,0.00,VWS V14.01,2013-02-07 10:01:00,
2013-02-07 05:02:00,17.4,12.0,30.41,North,355,0.0,0.0,79,0.00,,,0.00,VWS V14.01,2013-02-07 10:02:00,
2013-02-07 05:03:00,17.4,12.0,30.41,North,355,0.0,0.0,79,0.00,,,0.00,VWS V14.01,2013-02-07 10:03:00,
2013-02-07 05:04:00,17.4,12.0,30.41,North,355,0.0,0.0,79,0.00,,,0.00,VWS V14.01,2013-02-07 10:04:00,
2013-02-07 05:05:00,17.4,12.0,30.41,North,355,0.0,0.0,79,0.00,,,0.00,VWS V14.01,2013-02-07 10:05:00,
2013-02-07 05:06:00,17.4,12.0,30.41,North,355,0.0,0.0,79,0.00,,,0.00,VWS V14.01,2013-02-07 10:06:00,
2013-02-07 05:07:00,17.4,12.0,30.41,North,355,0.0,0.0,79,0.00,,,0.00,VWS V14.01,2013-02-07 10:07:00,
2013-02-07 05:08:00,17.4,12.0,30.41,North,355,0.0,0.0,79,0.00,,,0.00,VWS V14.01,2013-02-07 10:08:00,
2013-02-07 05:09:00,17.3,11.9,30.41,North,355,0.0,0.0,79,0.00,,,0.00,VWS V14.01,2013-02-07 10:09:00,
2013-02-07 05:10:00,17.3,11.9,30.41,North,355,0.0,0.0,79,0.00,,,0.00,VWS V14.01,2013-02-07 10:10:00,
2013-02-07 05:11:00,17.3,11.9,30.41,North,355,0.0,0.0,79,0.00,,,0.00,VWS V14.01,2013-02-07 10:11:00,
2013-02-07 05:12:00,17.3,11.9,30.41,North,355,0.0,0.0,79,0.00,,,0.00,VWS V14.01,2013-02-07 10:12:00,
2013-02-07 05:13:00,17.3,11.9,30.41,North,355,0.0,0.0,79,0.00,,,0.00,VWS V14.01,2013-02-07 10:13:00,
2013-02-07 05:14:00,17.3,11.9,30.41,North,355,0.0,0.0,79,0.00,,,0.00,VWS V14.01,2013-02-07 10:14:00,
2013-02-07 05:15:00,17.3,11.9,30.40,North,355,0.0,0.0,79,0.00,,,0.00,VWS V14.01,2013-02-07 10:15:00,
2013-02-07 05:16:00,17.3,11.9,30.40,North,355,0.0,0.0,79,0.00,,,0.00,VWS V14.01,2013-02-07 10:16:00,
2013-02-07 05:17:00,17.3,11.9,30.40,North,355,0.0,0.0,79,0.00,,,0.00,VWS V14.01,2013-02-07 10:17:00,
2013-02-07 05:18:00,17.3,11.9,30.40,North,355,0.0,0.0,79,0.00,,,0.00,VWS V14.01,2013-02-07 10:18:00,
2013-02-07 05:19:00,17.3,11.9,30.40,North,355,0.0,0.0,79,0.00,,,0.00,VWS V14.01,2013-02-07 10:19:00,
2013-02-07 05:20:00,17.3,12.2,30.40,North,355,0.0,0.0,80,0.00,,,0.00,VWS V14.01,2013-02-07 10:20:00,
2013-02-07 05:21:00,17.3,12.2,30.40,North,355,0.0,0.0,80,0.00,,,0.00,VWS V14.01,2013-02-07 10:21:00,
2013-02-07 05:22:00,17.3,12.2,30.40,North,355,0.0,0.0,80,0.00,,,0.00,VWS V14.01,2013-02-07 10:22:00,
2013-02-07 05:23:00,17.3,12.2,30.40,North,355,0.0,0.0,80,0.00,,,0.00,VWS V14.01,2013-02-07 10:23:00,
2013-02-07 05:24:00,17.3,12.2,30.40,North,355,0.0,0.0,80,0.00,,,0.00,VWS V14.01,2013-02-07 10:24:00,
2013-02-07 05:25:00,17.3,12.2,30.40,North,355,0.0,0.0,80,0.00,,,0.00,VWS V14.01,2013-02-07 10:25:00,
2013-02-07 05:26:00,17.3,12.2,30.40,North,355,0.0,0.0,80,0.00,,,0.00,VWS V14.01,2013-02-07 10:26:00,
2013-02-07 05:27:00,17.3,12.2,30.40,North,355,0.0,0.0,80,0.00,,,0.00,VWS V14.01,2013-02-07 10:27:00,
2013-02-07 05:28:00,17.3,12.2,30.40,North,355,0.0,0.0,80,0.00,,,0.00,VWS V14.01,2013-02-07 10:28:00,
2013-02-07 05:29:00,17.3,12.2,30.40,North,355,0.0,0.0,80,0.00,,,0.00,VWS V14.01,2013-02-07 10:29:00,
2013-02-07 05:30:00,17.3,12.2,30.40,North,355,0.0,0.0,80,0.00,,,0.00,VWS V14.01,2013-02-07 10:30:00,
2013-02-07 05:31:00,17.3,12.2,30.40,North,355,0.0,0.0,80,0.00,,,0.00,VWS V14.01,2013-02-07 10:31:00,
2013-02-07 05:32:00,17.3,12.2,30.40,North,355,0.0,0.0,80,0.00,,,0.00,VWS V14.01,2013-02-07 10:32:00,
2013-02-07 05:33:00,17.3,12.2,30.40,North,355,0.0,0.0,80,0.00,,,0.00,VWS V14.01,2013-02-07 10:33:00,
2013-02-07 05:34:00,17.3,12.2,30.40,North,355,0.0,0.0,80,0.00,,,0.00,VWS V14.01,2013-02-07 10:34:00,
2013-02-07 05:35:00,17.3,12.2,30.40,North,355,0.0,0.0,80,0.00,,,0.00,VWS V14.01,2013-02-07 10:35:00,
2013-02-07 05:36:00,17.3,12.2,30.40,North,355,0.0,0.0,80,0.00,,,0.00,VWS V14.01,2013-02-07 10:36:00,
2013-02-07 05:37:00,17.3,12.2,30.40,North,355,0.0,0.0,80,0.00,,,0.00,VWS V14.01,2013-02-07 10:37:00,
2013-02-07 05:38:00,17.3,12.2,30.40,North,355,0.0,0.0,80,0.00,,,0.00,VWS V14.01,2013-02-07 10:38:00,
2013-02-07 05:39:00,17.3,12.2,30.40,North,355,0.0,0.0,80,0.00,,,0.00,VWS V14.01,2013-02-07 10:39:00,
2013-02-07 05:40:00,17.3,12.2,30.40,North,355,0.0,0.0,80,0.00,,,0.00,VWS V14.01,2013-02-07 10:40:00,
2013-02-07 05:41:00,17.3,12.2,30.40,North,355,0.0,0.0,80,0.00,,,0.00,VWS V14.01,2013-02-07 10:41:00,
2013-02-07 05:42:00,17.3,12.2,30.40,North,355,0.0,0.0,80,0.00,,,0.00,VWS V14.01,2013-02-07 10:42:00,
2013-02-07 05:43:00,17.3,12.2,30.40,North,355,0.0,0.0,80,0.00,,,0.00,VWS V14.01,2013-02-07 10:43:00,
2013-02-07 05:44:00,17.3,12.2,30.40,North,355,0.0,0.0,80,0.00,,,0.00,VWS V14.01,2013-02-07 10:44:00,
2013-02-07 05:45:00,17.3,12.2,30.39,North,355,0.0,0.0,80,0.00,,,0.00,VWS V14.01,2013-02-07 10:45:00,
2013-02-07 05:46:00,17.3,12.2,30.39,North,355,0.0,0.0,80,0.00,,,0.00,VWS V14.01,2013-02-07 10:46:00,
2013-02-07 05:47:00,17.2,12.1,30.39,North,355,0.0,0.0,80,0.00,,,0.00,VWS V14.01,2013-02-07 10:47:00,
2013-02-07 05:48:00,17.2,12.1,30.39,North,355,0.0,0.0,80,0.00,,,0.00,VWS V14.01,2013-02-07 10:48:00,
2013-02-07 05:49:00,17.2,12.1,30.39,North,355,0.0,0.0,80,0.00,,,0.00,VWS V14.01,2013-02-07 10:49:00,
2013-02-07 05:50:00,17.2,12.1,30.39,North,355,0.0,0.0,80,0.00,,,0.00,VWS V14.01,2013-02-07 10:50:00,
2013-02-07 05:51:00,17.2,12.1,30.39,North,355,0.0,0.0,80,0.00,,,0.00,VWS V14.01,2013-02-07 10:51:00,
2013-02-07 05:52:00,17.2,12.1,30.39,North,355,0.0,0.0,80,0.00,,,0.00,VWS V14.01,2013-02-07 10:52:00,
2013-02-07 05:53:00,17.2,12.1,30.39,North,355,0.0,0.0,80,0.00,,,0.00,VWS V14.01,2013-02-07 10:53:00,
2013-02-07 05:54:00,17.2,12.1,30.39,North,355,0.0,0.0,80,0.00,,,0.00,VWS V14.01,2013-02-07 10:54:00,
2013-02-07 05:55:00,17.2,12.1,30.39,North,355,0.0,0.0,80,0.00,,,0.00,VWS V14.01,2013-02-07 10:55:00,
2013-02-07 05:56:00,17.2,12.1,30.39,North,355,0.0,0.0,80,0.00,,,0.00,VWS V14.01,2013-02-07 10:56:00,
2013-02-07 05:57:00,17.1,12.0,30.39,North,355,0.0,0.0,80,0.00,,,0.00,VWS V14.01,2013-02-07 10:57:00,
2013-02-07 05:58:00,17.1,12.0,30.39,North,355,0.0,0.0,80,0.00,,,0.00,VWS V14.01,2013-02-07 10:58:00,
2013-02-07 05:59:00,17.1,12.0,30.39,North,355,0.0,0.0,80,0.00,,,0.00,VWS V14.01,2013-02-07 10:59:00,
2013-02-07 06:00:00,17.1,12.0,30.40,North,355,0.0,0.0,80,0.00,,,0.00,VWS V14.01,2013-02-07 11:00:00,
2013-02-07 06:01:00,17.1,12.0,30.40,North,355,0.0,0.0,80,0.00,,,0.00,VWS V14.01,2013-02-07 11:01:00,
2013-02-07 06:02:00,17.1,12.0,30.40,North,355,0.0,0.0,80,0.00,,,0.00,VWS V14.01,2013-02-07 11:02:00,
2013-02-07 06:03:00,17.1,12.0,30.40,North,355,0.0,0.0,80,0.00,,,0.00,VWS V14.01,2013-02-07 11:03:00,
2013-02-07 06:04:00,17.1,12.0,30.40,North,355,0.0,0.0,80,0.00,,,0.00,VWS V14.01,2013-02-07 11:04:00,
2013-02-07 06:05:00,17.1,12.0,30.40,North,355,0.0,0.0,80,0.00,,,0.00,VWS V14.01,2013-02-07 11:05:00,
2013-02-07 06:06:00,17.1,12.0,30.40,North,355,0.0,0.0,80,0.00,,,0.00,VWS V14.01,2013-02-07 11:06:00,
2013-02-07 06:07:00,17.1,12.0,30.40,North,355,0.0,0.0,80,0.00,,,0.00,VWS V14.01,2013-02-07 11:07:00,
2013-02-07 06:08:00,17.1,12.0,30.40,North,355,0.0,0.0,80,0.00,,,0.00,VWS V14.01,2013-02-07 11:08:00,
2013-02-07 06:09:00,17.1,12.0,30.40,North,355,0.0,0.0,80,0.00,,,0.00,VWS V14.01,2013-02-07 11:09:00,
2013-02-07 06:10:00,17.1,12.0,30.40,North,355,0.0,0.0,80,0.00,,,0.00,VWS V14.01,2013-02-07 11:10:00,
2013-02-07 06:11:00,17.1,12.0,30.40,North,355,0.0,0.0,80,0.00,,,0.00,VWS V14.01,2013-02-07 11:11:00,
2013-02-07 06:12:00,17.1,12.0,30.40,North,355,0.0,0.0,80,0.00,,,0.00,VWS V14.01,2013-02-07 11:12:00,
2013-02-07 06:13:00,17.1,12.0,30.40,North,355,0.0,0.0,80,0.00,,,0.00,VWS V14.01,2013-02-07 11:13:00,
2013-02-07 06:14:00,17.1,12.0,30.40,North,355,0.0,0.0,80,0.00,,,0.00,VWS V14.01,2013-02-07 11:14:00,
2013-02-07 06:15:00,17.1,12.0,30.42,North,355,0.0,0.0,80,0.00,,,0.00,VWS V14.01,2013-02-07 11:15:00,
2013-02-07 06:16:00,17.1,12.0,30.42,North,355,0.0,0.0,80,0.00,,,0.00,VWS V14.01,2013-02-07 11:16:00,
2013-02-07 06:17:00,17.1,12.0,30.42,North,355,0.0,0.0,80,0.00,,,0.00,VWS V14.01,2013-02-07 11:17:00,
2013-02-07 06:18:00,17.1,12.0,30.42,North,355,0.0,0.0,80,0.00,,,0.00,VWS V14.01,2013-02-07 11:18:00,
2013-02-07 06:19:00,17.2,12.1,30.42,North,355,0.0,0.0,80,0.00,,,0.00,VWS V14.01,2013-02-07 11:19:00,
2013-02-07 06:20:00,17.2,12.1,30.42,North,355,0.0,0.0,80,0.00,,,0.00,VWS V14.01,2013-02-07 11:20:00,
2013-02-07 06:21:00,17.2,12.1,30.42,North,355,0.0,0.0,80,0.00,,,0.00,VWS V14.01,2013-02-07 11:21:00,
2013-02-07 06:22:00,17.2,12.1,30.42,North,355,0.0,0.0,80,0.00,,,0.00,VWS V14.01,2013-02-07 11:22:00,
2013-02-07 06:23:00,17.2,12.1,30.42,North,355,0.0,0.0,80,0.00,,,0.00,VWS V14.01,2013-02-07 11:23:00,
2013-02-07 06:24:00,17.2,12.1,30.42,North,355,0.0,0.0,80,0.00,,,0.00,VWS V14.01,2013-02-07 11:24:00,
2013-02-07 06:25:00,17.2,12.1,30.42,North,355,0.0,0.0,80,0.00,,,0.00,VWS V14.01,2013-02-07 11:25:00,
2013-02-07 06:26:00,17.3,12.2,30.42,North,355,0.0,0.0,80,0.00,,,0.00,VWS V14.01,2013-02-07 11:26:00,
2013-02-07 06:27:00,17.3,12.2,30.42,North,355,0.0,0.0,80,0.00,,,0.00,VWS V14.01,2013-02-07 11:27:00,
2013-02-07 06:28:00,17.3,12.2,30.42,North,355,0.0,0.0,80,0.00,,,0.00,VWS V14.01,2013-02-07 11:28:00,
2013-02-07 06:29:00,17.3,12.2,30.42,North,355,0.0,0.0,80,0.00,,,0.00,VWS V14.01,2013-02-07 11:29:00,
2013-02-07 06:30:00,17.3,12.2,30.43,North,355,0.0,0.0,80,0.00,,,0.00,VWS V14.01,2013-02-07 11:30:00,
2013-02-07 06:31:00,17.3,12.2,30.43,North,355,0.0,0.0,80,0.00,,,0.00,VWS V14.01,2013-02-07 11:31:00,
2013-02-07 06:32:00,17.3,12.2,30.43,North,355,0.0,0.0,80,0.00,,,0.00,VWS V14.01,2013-02-07 11:32:00,
2013-02-07 06:33:00,17.3,12.2,30.43,North,355,0.0,0.0,80,0.00,,,0.00,VWS V14.01,2013-02-07 11:33:00,
2013-02-07 06:34:00,17.4,12.3,30.43,North,355,0.0,0.0,80,0.00,,,0.00,VWS V14.01,2013-02-07 11:34:00,
2013-02-07 06:35:00,17.4,12.3,30.43,North,355,0.0,0.0,80,0.00,,,0.00,VWS V14.01,2013-02-07 11:35:00,
2013-02-07 06:36:00,17.4,12.3,30.43,North,355,0.0,0.0,80,0.00,,,0.00,VWS V14.01,2013-02-07 11:36:00,
2013-02-07 06:37:00,17.4,12.3,30.43,North,355,0.0,0.0,80,0.00,,,0.00,VWS V14.01,2013-02-07 11:37:00,
2013-02-07 06:38:00,17.4,12.3,30.43,North,355,0.0,0.0,80,0.00,,,0.00,VWS V14.01,2013-02-07 11:38:00,
2013-02-07 06:39:00,17.4,12.3,30.43,North,355,0.0,0.0,80,0.00,,,0.00,VWS V14.01,2013-02-07 11:39:00,
2013-02-07 06:40:00,17.4,12.3,30.43,North,355,0.0,0.0,80,0.00,,,0.00,VWS V14.01,2013-02-07 11:40:00,
2013-02-07 06:41:00,17.5,12.4,30.43,North,355,0.0,0.0,80,0.00,,,0.00,VWS V14.01,2013-02-07 11:41:00,
2013-02-07 06:42:00,17.5,12.4,30.43,North,355,0.0,0.0,80,0.00,,,0.00,VWS V14.01,2013-02-07 11:42:00,
2013-02-07 06:43:00,17.5,12.4,30.43,North,355,0.0,0.0,80,0.00,,,0.00,VWS V14.01,2013-02-07 11:43:00,
2013-02-07 06:44:00,17.5,12.4,30.43,North,355,0.0,0.0,80,0.00,,,0.00,VWS V14.01,2013-02-07 11:44:00,
2013-02-07 06:45:00,17.5,12.4,30.43,North,355,0.0,0.0,80,0.00,,,0.00,VWS V14.01,2013-02-07 11:45:00,
2013-02-07 06:46:00,17.5,12.4,30.43,North,355,0.0,0.0,80,0.00,,,0.00,VWS V14.01,2013-02-07 11:46:00,
2013-02-07 06:47:00,17.5,12.4,30.43,North,355,0.0,0.0,80,0.00,,,0.00,VWS V14.01,2013-02-07 11:47:00,
2013-02-07 06:48:00,17.5,12.4,30.43,North,355,0.0,0.0,80,0.00,,,0.00,VWS V14.01,2013-02-07 11:48:00,
2013-02-07 06:49:00,17.5,12.4,30.43,North,355,0.0,0.0,80,0.00,,,0.00,VWS V14.01,2013-02-07 11:49:00,
2013-02-07 06:50:00,17.5,12.4,30.43,North,355,0.0,0.0,80,0.00,,,0.00,VWS V14.01,2013-02-07 11:50:00,
2013-02-07 06:51:00,17.5,12.4,30.43,North,355,0.0,0.0,80,0.00,,,0.00,VWS V14.01,2013-02-07 11:51:00,
2013-02-07 06:52:00,17.5,12.4,30.43,North,355,0.0,0.0,80,0.00,,,0.00,VWS V14.01,2013-02-07 11:52:00,
2013-02-07 06:53:00,17.5,12.4,30.43,North,355,0.0,0.0,80,0.00,,,0.00,VWS V14.01,2013-02-07 11:53:00,
2013-02-07 06:54:00,17.5,12.4,30.43,North,355,0.0,0.0,80,0.00,,,0.00,VWS V14.01,2013-02-07 11:54:00,
2013-02-07 06:55:00,17.5,12.4,30.43,North,355,0.0,0.0,80,0.00,,,0.00,VWS V14.01,2013-02-07 11:55:00,
2013-02-07 06:56:00,17.5,12.4,30.43,North,355,0.0,0.0,80,0.00,,,0.00,VWS V14.01,2013-02-07 11:56:00,
2013-02-07 06:57:00,17.5,12.1,30.43,North,355,0.0,0.0,79,0.00,,,0.00,VWS V14.01,2013-02-07 11:57:00,
2013-02-07 06:58:00,17.5,12.4,30.43,North,355,0.0,0.0,80,0.00,,,0.00,VWS V14.01,2013-02-07 11:58:00,
2013-02-07 06:59:00,17.6,12.5,30.43,North,355,0.0,0.0,80,0.00,,,0.00,VWS V14.01,2013-02-07 11:59:00,
2013-02-07 07:00:00,17.6,12.5,30.45,North,355,0.0,0.0,80,0.00,,,0.00,VWS V14.01,2013-02-07 12:00:00,
2013-02-07 07:01:00,17.6,12.2,30.45,North,355,0.0,0.0,79,0.00,,,0.00,VWS V14.01,2013-02-07 12:01:00,
2013-02-07 07:02:00,17.6,12.2,30.45,North,355,0.0,0.0,79,0.00,,,0.00,VWS V14.01,2013-02-07 12:02:00,
2013-02-07 07:03:00,17.7,12.3,30.45,North,355,0.0,0.0,79,0.00,,,0.00,VWS V14.01,2013-02-07 12:03:00,
2013-02-07 07:04:00,17.7,12.3,30.45,North,355,0.0,0.0,79,0.00,,,0.00,VWS V14.01,2013-02-07 12:04:00,
2013-02-07 07:05:00,17.7,12.3,30.45,North,355,0.0,0.0,79,0.00,,,0.00,VWS V14.01,2013-02-07 12:05:00,
2013-02-07 07:06:00,17.7,12.3,30.45,North,355,0.0,0.0,79,0.00,,,0.00,VWS V14.01,2013-02-07 12:06:00,
2013-02-07 07:07:00,17.7,12.3,30.45,North,355,0.0,0.0,79,0.00,,,0.00,VWS V14.01,2013-02-07 12:07:00,
2013-02-07 07:08:00,17.8,12.4,30.45,North,355,0.0,0.0,79,0.00,,,0.00,VWS V14.01,2013-02-07 12:08:00,
2013-02-07 07:09:00,17.8,12.4,30.45,North,355,0.0,0.0,79,0.00,,,0.00,VWS V14.01,2013-02-07 12:09:00,
2013-02-07 07:10:00,17.8,12.4,30.45,North,355,0.0,0.0,79,0.00,,,0.00,VWS V14.01,2013-02-07 12:10:00,
2013-02-07 07:11:00,17.8,12.4,30.45,North,355,0.0,0.0,79,0.00,,,0.00,VWS V14.01,2013-02-07 12:11:00,
2013-02-07 07:12:00,17.8,12.4,30.45,North,355,0.0,0.0,79,0.00,,,0.00,VWS V14.01,2013-02-07 12:12:00,
2013-02-07 07:13:00,17.9,12.5,30.45,North,355,0.0,0.0,79,0.00,,,0.00,VWS V14.01,2013-02-07 12:13:00,
2013-02-07 07:14:00,17.9,12.5,30.45,North,355,0.0,0.0,79,0.00,,,0.00,VWS V14.01,2013-02-07 12:14:00,
2013-02-07 07:15:00,17.9,12.5,30.45,North,355,0.0,0.0,79,0.00,,,0.00,VWS V14.01,2013-02-07 12:15:00,
2013-02-07 07:16:00,17.9,12.5,30.45,North,355,0.0,0.0,79,0.00,,,0.00,VWS V14.01,2013-02-07 12:16:00,
2013-02-07 07:17:00,18.0,12.6,30.45,North,355,0.0,0.0,79,0.00,,,0.00,VWS V14.01,2013-02-07 12:17:00,
2013-02-07 07:18:00,18.0,12.6,30.45,North,355,0.0,0.0,79,0.00,,,0.00,VWS V14.01,2013-02-07 12:18:00,
2013-02-07 07:19:00,18.0,12.6,30.45,North,355,0.0,0.0,79,0.00,,,0.00,VWS V14.01,2013-02-07 12:19:00,
2013-02-07 07:20:00,18.0,12.6,30.45,North,355,0.0,0.0,79,0.00,,,0.00,VWS V14.01,2013-02-07 12:20:00,
2013-02-07 07:21:00,18.0,12.6,30.45,North,355,0.0,0.0,79,0.00,,,0.00,VWS V14.01,2013-02-07 12:21:00,
2013-02-07 07:22:00,18.0,12.6,30.45,North,355,0.0,0.0,79,0.00,,,0.00,VWS V14.01,2013-02-07 12:22:00,
2013-02-07 07:23:00,18.0,12.6,30.45,North,355,0.0,0.0,79,0.00,,,0.00,VWS V14.01,2013-02-07 12:23:00,
2013-02-07 07:24:00,18.0,12.6,30.45,North,355,0.0,0.0,79,0.00,,,0.00,VWS V14.01,2013-02-07 12:24:00,
2013-02-07 07:25:00,18.0,12.6,30.45,North,355,0.0,0.0,79,0.00,,,0.00,VWS V14.01,2013-02-07 12:25:00,
2013-02-07 07:26:00,18.1,12.7,30.45,North,355,0.0,0.0,79,0.00,,,0.00,VWS V14.01,2013-02-07 12:26:00,
2013-02-07 07:27:00,18.1,12.7,30.45,North,355,0.0,0.0,79,0.00,,,0.00,VWS V14.01,2013-02-07 12:27:00,
2013-02-07 07:28:00,18.1,12.7,30.45,North,355,0.0,0.0,79,0.00,,,0.00,VWS V14.01,2013-02-07 12:28:00,
2013-02-07 07:29:00,18.1,12.7,30.45,North,355,0.0,1.0,79,0.00,,,0.00,VWS V14.01,2013-02-07 12:29:00,
2013-02-07 07:30:00,18.2,12.8,30.46,North,355,0.0,1.0,79,0.00,,,0.00,VWS V14.01,2013-02-07 12:30:00,
2013-02-07 07:31:00,18.2,12.8,30.46,North,355,0.0,0.0,79,0.00,,,0.00,VWS V14.01,2013-02-07 12:31:00,
2013-02-07 07:32:00,18.2,12.8,30.46,North,355,0.0,0.0,79,0.00,,,0.00,VWS V14.01,2013-02-07 12:32:00,
2013-02-07 07:33:00,18.2,12.8,30.46,North,355,0.0,1.0,79,0.00,,,0.00,VWS V14.01,2013-02-07 12:33:00,
2013-02-07 07:34:00,18.3,12.6,30.46,North,355,0.0,1.0,78,0.00,,,0.00,VWS V14.01,2013-02-07 12:34:00,
2013-02-07 07:35:00,18.3,12.6,30.46,North,355,0.0,1.0,78,0.00,,,0.00,VWS V14.01,2013-02-07 12:35:00,
2013-02-07 07:36:00,18.4,12.7,30.46,North,355,0.0,1.0,78,0.00,,,0.00,VWS V14.01,2013-02-07 12:36:00,
2013-02-07 07:37:00,18.4,12.7,30.46,North,355,0.0,1.0,78,0.00,,,0.00,VWS V14.01,2013-02-07 12:37:00,
2013-02-07 07:38:00,18.4,12.7,30.46,North,355,0.0,1.0,78,0.00,,,0.00,VWS V14.01,2013-02-07 12:38:00,
2013-02-07 07:39:00,18.5,12.8,30.46,North,355,0.0,1.0,78,0.00,,,0.00,VWS V14.01,2013-02-07 12:39:00,
2013-02-07 07:40:00,18.5,12.5,30.46,North,355,0.0,1.0,77,0.00,,,0.00,VWS V14.01,2013-02-07 12:40:00,
2013-02-07 07:41:00,18.5,12.5,30.46,North,355,0.0,0.0,77,0.00,,,0.00,VWS V14.01,2013-02-07 12:41:00,
2013-02-07 07:42:00,18.6,12.6,30.46,North,355,0.0,0.0,77,0.00,,,0.00,VWS V14.01,2013-02-07 12:42:00,
2013-02-07 07:43:00,18.6,12.6,30.46,North,355,0.0,0.0,77,0.00,,,0.00,VWS V14.01,2013-02-07 12:43:00,
2013-02-07 07:44:00,18.6,12.3,30.46,North,355,0.0,0.0,76,0.00,,,0.00,VWS V14.01,2013-02-07 12:44:00,
2013-02-07 07:45:00,18.6,12.3,30.47,North,355,0.0,0.0,76,0.00,,,0.00,VWS V14.01,2013-02-07 12:45:00,
2013-02-07 07:46:00,18.7,12.4,30.47,North,355,0.0,0.0,76,0.00,,,0.00,VWS V14.01,2013-02-07 12:46:00,
2013-02-07 07:47:00,18.7,12.4,30.47,North,355,0.0,0.0,76,0.00,,,0.00,VWS V14.01,2013-02-07 12:47:00,
2013-02-07 07:48:00,18.8,12.5,30.47,North,355,0.0,1.0,76,0.00,,,0.00,VWS V14.01,2013-02-07 12:48:00,
2013-02-07 07:49:00,18.8,12.2,30.47,North,355,0.0,1.0,75,0.00,,,0.00,VWS V14.01,2013-02-07 12:49:00,
2013-02-07 07:50:00,18.9,12.3,30.47,North,355,0.0,1.0,75,0.00,,,0.00,VWS V14.01,2013-02-07 12:50:00,
2013-02-07 07:51:00,18.9,12.3,30.47,North,355,0.0,0.0,75,0.00,,,0.00,VWS V14.01,2013-02-07 12:51:00,
2013-02-07 07:52:00,19.0,12.4,30.47,North,355,0.0,0.0,75,0.00,,,0.00,VWS V14.01,2013-02-07 12:52:00,
2013-02-07 07:53:00,19.0,12.4,30.47,North,355,0.0,0.0,75,0.00,,,0.00,VWS V14.01,2013-02-07 12:53:00,
2013-02-07 07:54:00,19.0,12.4,30.47,North,355,0.0,0.0,75,0.00,,,0.00,VWS V14.01,2013-02-07 12:54:00,
2013-02-07 07:55:00,19.1,12.5,30.47,North,355,0.0,0.0,75,0.00,,,0.00,VWS V14.01,2013-02-07 12:55:00,
2013-02-07 07:56:00,19.1,12.5,30.47,North,355,0.0,0.0,75,0.00,,,0.00,VWS V14.01,2013-02-07 12:56:00,
2013-02-07 07:57:00,19.2,12.3,30.47,North,355,0.0,0.0,74,0.00,,,0.00,VWS V14.01,2013-02-07 12:57:00,
2013-02-07 07:58:00,19.3,12.4,30.47,North,355,0.0,0.0,74,0.00,,,0.00,VWS V14.01,2013-02-07 12:58:00,
2013-02-07 07:59:00,19.3,12.4,30.47,North,355,0.0,0.0,74,0.00,,,0.00,VWS V14.01,2013-02-07 12:59:00,
2013-02-07 08:00:00,19.4,12.5,30.47,North,355,0.0,0.0,74,0.00,,,0.00,VWS V14.01,2013-02-07 13:00:00,
2013-02-07 08:01:00,19.4,12.5,30.47,North,355,0.0,0.0,74,0.00,,,0.00,VWS V14.01,2013-02-07 13:01:00,
2013-02-07 08:02:00,19.5,12.6,30.47,North,355,0.0,0.0,74,0.00,,,0.00,VWS V14.01,2013-02-07 13:02:00,
2013-02-07 08:03:00,19.5,12.6,30.47,North,355,0.0,0.0,74,0.00,,,0.00,VWS V14.01,2013-02-07 13:03:00,
2013-02-07 08:04:00,19.5,12.6,30.47,North,355,0.0,0.0,74,0.00,,,0.00,VWS V14.01,2013-02-07 13:04:00,
2013-02-07 08:05:00,19.6,12.4,30.47,North,355,0.0,0.0,73,0.00,,,0.00,VWS V14.01,2013-02-07 13:05:00,
2013-02-07 08:06:00,19.6,12.4,30.47,North,355,0.0,0.0,73,0.00,,,0.00,VWS V14.01,2013-02-07 13:06:00,
2013-02-07 08:07:00,19.7,12.5,30.47,North,355,0.0,0.0,73,0.00,,,0.00,VWS V14.01,2013-02-07 13:07:00,
2013-02-07 08:08:00,19.8,12.6,30.47,North,355,0.0,0.0,73,0.00,,,0.00,VWS V14.01,2013-02-07 13:08:00,
2013-02-07 08:09:00,19.8,12.6,30.47,North,355,0.0,0.0,73,0.00,,,0.00,VWS V14.01,2013-02-07 13:09:00,
2013-02-07 08:10:00,19.9,12.7,30.47,North,355,0.0,0.0,73,0.00,,,0.00,VWS V14.01,2013-02-07 13:10:00,
2013-02-07 08:11:00,20.0,12.8,30.47,North,355,0.0,0.0,73,0.00,,,0.00,VWS V14.01,2013-02-07 13:11:00,
2013-02-07 08:12:00,20.0,12.8,30.47,North,355,0.0,0.0,73,0.00,,,0.00,VWS V14.01,2013-02-07 13:12:00,
2013-02-07 08:13:00,20.0,12.8,30.47,North,355,0.0,0.0,73,0.00,,,0.00,VWS V14.01,2013-02-07 13:13:00,
2013-02-07 08:14:00,20.1,12.9,30.47,North,355,0.0,0.0,73,0.00,,,0.00,VWS V14.01,2013-02-07 13:14:00,
2013-02-07 08:15:00,20.2,12.9,30.47,North,355,0.0,0.0,73,0.00,,,0.00,VWS V14.01,2013-02-07 13:15:00,
2013-02-07 08:16:00,20.2,12.9,30.47,North,355,0.0,0.0,73,0.00,,,0.00,VWS V14.01,2013-02-07 13:16:00,
2013-02-07 08:17:00,20.2,12.6,30.47,North,355,0.0,0.0,72,0.00,,,0.00,VWS V14.01,2013-02-07 13:17:00,
2013-02-07 08:18:00,20.3,12.7,30.47,North,355,0.0,0.0,72,0.00,,,0.00,VWS V14.01,2013-02-07 13:18:00,
2013-02-07 08:19:00,20.4,12.8,30.47,North,355,0.0,0.0,72,0.00,,,0.00,VWS V14.01,2013-02-07 13:19:00,
2013-02-07 08:20:00,20.4,12.8,30.47,North,355,0.0,0.0,72,0.00,,,0.00,VWS V14.01,2013-02-07 13:20:00,
2013-02-07 08:21:00,20.5,12.9,30.47,North,355,0.0,0.0,72,0.00,,,0.00,VWS V14.01,2013-02-07 13:21:00,
2013-02-07 08:22:00,20.6,13.0,30.47,North,355,0.0,0.0,72,0.00,,,0.00,VWS V14.01,2013-02-07 13:22:00,
2013-02-07 08:23:00,20.6,13.0,30.47,North,355,0.0,0.0,72,0.00,,,0.00,VWS V14.01,2013-02-07 13:23:00,
2013-02-07 08:24:00,20.6,12.7,30.47,North,355,0.0,0.0,71,0.00,,,0.00,VWS V14.01,2013-02-07 13:24:00,
2013-02-07 08:25:00,20.7,12.8,30.47,North,355,0.0,0.0,71,0.00,,,0.00,VWS V14.01,2013-02-07 13:25:00,
2013-02-07 08:26:00,20.7,12.8,30.47,North,355,0.0,0.0,71,0.00,,,0.00,VWS V14.01,2013-02-07 13:26:00,
2013-02-07 08:27:00,20.7,12.8,30.47,North,355,0.0,0.0,71,0.00,,,0.00,VWS V14.01,2013-02-07 13:27:00,
2013-02-07 08:28:00,20.7,12.5,30.47,North,355,0.0,0.0,70,0.00,,,0.00,VWS V14.01,2013-02-07 13:28:00,
2013-02-07 08:29:00,20.7,12.5,30.47,North,355,0.0,0.0,70,0.00,,,0.00,VWS V14.01,2013-02-07 13:29:00,
2013-02-07 08:30:00,20.7,12.5,30.47,North,355,0.0,0.0,70,0.00,,,0.00,VWS V14.01,2013-02-07 13:30:00,
2013-02-07 08:31:00,20.8,12.6,30.47,North,355,0.0,0.0,70,0.00,,,0.00,VWS V14.01,2013-02-07 13:31:00,
2013-02-07 08:32:00,20.8,12.6,30.47,North,355,0.0,0.0,70,0.00,,,0.00,VWS V14.01,2013-02-07 13:32:00,
2013-02-07 08:33:00,20.9,12.7,30.47,North,355,0.0,0.0,70,0.00,,,0.00,VWS V14.01,2013-02-07 13:33:00,
2013-02-07 08:34:00,20.9,12.7,30.47,North,355,0.0,0.0,70,0.00,,,0.00,VWS V14.01,2013-02-07 13:34:00,
2013-02-07 08:35:00,20.9,12.7,30.47,North,355,0.0,0.0,70,0.00,,,0.00,VWS V14.01,2013-02-07 13:35:00,
2013-02-07 08:36:00,20.9,12.7,30.47,North,355,0.0,0.0,70,0.00,,,0.00,VWS V14.01,2013-02-07 13:36:00,
2013-02-07 08:37:00,20.9,12.7,30.47,North,355,0.0,0.0,70,0.00,,,0.00,VWS V14.01,2013-02-07 13:37:00,
2013-02-07 08:38:00,21.0,12.4,30.47,North,355,0.0,0.0,69,0.00,,,0.00,VWS V14.01,2013-02-07 13:38:00,
2013-02-07 08:39:00,21.0,12.8,30.47,North,355,0.0,0.0,70,0.00,,,0.00,VWS V14.01,2013-02-07 13:39:00,
2013-02-07 08:40:00,21.1,12.9,30.47,North,355,0.0,0.0,70,0.00,,,0.00,VWS V14.01,2013-02-07 13:40:00,
2013-02-07 08:41:00,21.1,12.5,30.47,North,355,0.0,0.0,69,0.00,,,0.00,VWS V14.01,2013-02-07 13:41:00,
2013-02-07 08:42:00,21.1,12.9,30.47,North,355,0.0,0.0,70,0.00,,,0.00,VWS V14.01,2013-02-07 13:42:00,
2013-02-07 08:43:00,21.2,13.0,30.47,North,355,0.0,0.0,70,0.00,,,0.00,VWS V14.01,2013-02-07 13:43:00,
2013-02-07 08:44:00,21.3,13.1,30.47,North,355,0.0,0.0,70,0.00,,,0.00,VWS V14.01,2013-02-07 13:44:00,
2013-02-07 08:45:00,21.4,13.1,30.47,North,355,0.0,0.0,70,0.00,,,0.00,VWS V14.01,2013-02-07 13:45:00,
2013-02-07 08:46:00,21.5,13.2,30.47,North,355,0.0,0.0,70,0.00,,,0.00,VWS V14.01,2013-02-07 13:46:00,
2013-02-07 08:47:00,21.7,13.4,30.47,North,355,0.0,0.0,70,0.00,,,0.00,VWS V14.01,2013-02-07 13:47:00,
2013-02-07 08:48:00,21.8,13.9,30.47,North,355,0.0,0.0,71,0.00,,,0.00,VWS V14.01,2013-02-07 13:48:00,
2013-02-07 08:49:00,21.8,13.9,30.47,North,355,0.0,0.0,71,0.00,,,0.00,VWS V14.01,2013-02-07 13:49:00,
2013-02-07 08:50:00,21.9,13.6,30.47,North,355,0.0,0.0,70,0.00,,,0.00,VWS V14.01,2013-02-07 13:50:00,
2013-02-07 08:51:00,21.9,13.6,30.47,North,355,0.0,0.0,70,0.00,,,0.00,VWS V14.01,2013-02-07 13:51:00,
2013-02-07 08:52:00,22.0,13.7,30.47,North,355,1.0,1.0,70,0.00,,,0.00,VWS V14.01,2013-02-07 13:52:00,
2013-02-07 08:53:00,22.0,13.7,30.47,North,355,0.0,1.0,70,0.00,,,0.00,VWS V14.01,2013-02-07 13:53:00,
2013-02-07 08:54:00,22.1,13.8,30.47,North,355,0.0,1.0,70,0.00,,,0.00,VWS V14.01,2013-02-07 13:54:00,
2013-02-07 08:55:00,22.1,13.5,30.47,North,355,1.0,1.0,69,0.00,,,0.00,VWS V14.01,2013-02-07 13:55:00,
2013-02-07 08:56:00,22.1,13.5,30.47,North,355,1.0,1.0,69,0.00,,,0.00,VWS V14.01,2013-02-07 13:56:00,
2013-02-07 08:57:00,22.2,13.6,30.47,North,355,0.0,2.0,69,0.00,,,0.00,VWS V14.01,2013-02-07 13:57:00,
2013-02-07 08:58:00,22.3,13.7,30.47,North,355,2.0,2.0,69,0.00,,,0.00,VWS V14.01,2013-02-07 13:58:00,
2013-02-07 08:59:00,22.4,13.8,30.47,North,355,0.0,2.0,69,0.00,,,0.00,VWS V14.01,2013-02-07 13:59:00,
2013-02-07 09:00:00,22.4,13.8,30.47,North,355,0.0,2.0,69,0.00,,,0.00,VWS V14.01,2013-02-07 14:00:00,
2013-02-07 09:01:00,22.5,13.9,30.47,North,355,0.0,0.0,69,0.00,,,0.00,VWS V14.01,2013-02-07 14:01:00,
2013-02-07 09:02:00,22.5,13.9,30.47,North,355,0.0,0.0,69,0.00,,,0.00,VWS V14.01,2013-02-07 14:02:00,
2013-02-07 09:03:00,22.6,14.0,30.47,North,355,0.0,0.0,69,0.00,,,0.00,VWS V14.01,2013-02-07 14:03:00,
2013-02-07 09:04:00,22.6,14.0,30.47,North,355,0.0,0.0,69,0.00,,,0.00,VWS V14.01,2013-02-07 14:04:00,
2013-02-07 09:05:00,22.7,14.1,30.47,North,355,0.0,0.0,69,0.00,,,0.00,VWS V14.01,2013-02-07 14:05:00,
2013-02-07 09:06:00,22.7,14.1,30.47,North,355,0.0,0.0,69,0.00,,,0.00,VWS V14.01,2013-02-07 14:06:00,
2013-02-07 09:07:00,22.8,14.2,30.47,North,355,0.0,1.0,69,0.00,,,0.00,VWS V14.01,2013-02-07 14:07:00,
2013-02-07 09:08:00,22.9,14.3,30.47,North,355,0.0,1.0,69,0.00,,,0.00,VWS V14.01,2013-02-07 14:08:00,
2013-02-07 09:09:00,23.0,14.4,30.47,North,355,0.0,1.0,69,0.00,,,0.00,VWS V14.01,2013-02-07 14:09:00,
2013-02-07 09:10:00,23.0,14.4,30.47,North,355,0.0,1.0,69,0.00,,,0.00,VWS V14.01,2013-02-07 14:10:00,
2013-02-07 09:11:00,23.0,14.4,30.47,North,355,0.0,0.0,69,0.00,,,0.00,VWS V14.01,2013-02-07 14:11:00,
2013-02-07 09:12:00,23.1,14.1,30.47,North,355,0.0,0.0,68,0.00,,,0.00,VWS V14.01,2013-02-07 14:12:00,
2013-02-07 09:13:00,23.1,14.1,30.47,North,355,0.0,0.0,68,0.00,,,0.00,VWS V14.01,2013-02-07 14:13:00,
2013-02-07 09:14:00,23.1,14.1,30.47,North,355,0.0,0.0,68,0.00,,,0.00,VWS V14.01,2013-02-07 14:14:00,
2013-02-07 09:15:00,23.2,14.2,30.47,North,355,0.0,0.0,68,0.00,,,0.00,VWS V14.01,2013-02-07 14:15:00,
2013-02-07 09:16:00,23.2,14.2,30.47,North,355,0.0,0.0,68,0.00,,,0.00,VWS V14.01,2013-02-07 14:16:00,
2013-02-07 09:17:00,23.4,14.4,30.47,North,355,0.0,0.0,68,0.00,,,0.00,VWS V14.01,2013-02-07 14:17:00,
2013-02-07 09:18:00,23.4,14.4,30.47,North,355,0.0,0.0,68,0.00,,,0.00,VWS V14.01,2013-02-07 14:18:00,
2013-02-07 09:19:00,23.5,14.5,30.47,North,355,0.0,0.0,68,0.00,,,0.00,VWS V14.01,2013-02-07 14:19:00,
2013-02-07 09:20:00,23.6,14.6,30.47,North,355,0.0,0.0,68,0.00,,,0.00,VWS V14.01,2013-02-07 14:20:00,
2013-02-07 09:21:00,23.7,14.7,30.47,North,355,0.0,0.0,68,0.00,,,0.00,VWS V14.01,2013-02-07 14:21:00,
2013-02-07 09:22:00,23.8,14.8,30.47,North,355,0.0,0.0,68,0.00,,,0.00,VWS V14.01,2013-02-07 14:22:00,
2013-02-07 09:23:00,23.9,14.9,30.47,North,355,0.0,0.0,68,0.00,,,0.00,VWS V14.01,2013-02-07 14:23:00,
2013-02-07 09:24:00,24.0,15.0,30.47,North,355,0.0,0.0,68,0.00,,,0.00,VWS V14.01,2013-02-07 14:24:00,
2013-02-07 09:25:00,24.0,14.6,30.47,North,355,0.0,1.0,67,0.00,,,0.00,VWS V14.01,2013-02-07 14:25:00,
2013-02-07 09:26:00,24.0,14.6,30.47,North,355,2.0,2.0,67,0.00,,,0.00,VWS V14.01,2013-02-07 14:26:00,
2013-02-07 09:27:00,24.1,14.7,30.47,North,355,0.0,2.0,67,0.00,,,0.00,VWS V14.01,2013-02-07 14:27:00,
2013-02-07 09:28:00,24.2,14.5,30.47,North,355,0.0,2.0,66,0.00,,,0.00,VWS V14.01,2013-02-07 14:28:00,
2013-02-07 09:29:00,24.2,14.5,30.47,North,355,0.0,2.0,66,0.00,,,0.00,VWS V14.01,2013-02-07 14:29:00,
2013-02-07 09:30:00,24.3,14.9,30.48,North,355,0.0,2.0,67,0.00,,,0.00,VWS V14.01,2013-02-07 14:30:00,
2013-02-07 09:31:00,24.3,14.9,30.48,North,355,0.0,1.0,67,0.00,,,0.00,VWS V14.01,2013-02-07 14:31:00,
2013-02-07 09:32:00,24.4,15.0,30.48,North,350,2.0,2.0,67,0.00,,,0.00,VWS V14.01,2013-02-07 14:32:00,
2013-02-07 09:33:00,24.5,15.1,30.48,North,350,0.0,2.0,67,0.00,,,0.00,VWS V14.01,2013-02-07 14:33:00,
2013-02-07 09:34:00,24.5,15.1,30.48,North,350,0.0,2.0,67,0.00,,,0.00,VWS V14.01,2013-02-07 14:34:00,
2013-02-07 09:35:00,24.6,14.9,30.48,North,350,0.0,2.0,66,0.00,,,0.00,VWS V14.01,2013-02-07 14:35:00,
2013-02-07 09:36:00,24.7,15.0,30.48,North,350,0.0,2.0,66,0.00,,,0.00,VWS V14.01,2013-02-07 14:36:00,
2013-02-07 09:37:00,24.8,15.1,30.48,NNW,334,3.0,3.0,66,0.00,,,0.00,VWS V14.01,2013-02-07 14:37:00,
2013-02-07 09:38:00,24.8,15.1,30.48,NW,305,3.0,3.0,66,0.00,,,0.00,VWS V14.01,2013-02-07 14:38:00,
2013-02-07 09:39:00,25.0,15.3,30.48,NW,305,1.0,3.0,66,0.00,,,0.00,VWS V14.01,2013-02-07 14:39:00,
2013-02-07 09:40:00,25.0,15.3,30.48,WNW,296,0.0,4.0,66,0.00,,,0.00,VWS V14.01,2013-02-07 14:40:00,
2013-02-07 09:41:00,25.1,15.4,30.48,WNW,296,0.0,0.0,66,0.00,,,0.00,VWS V14.01,2013-02-07 14:41:00,
2013-02-07 09:42:00,25.2,15.1,30.48,WNW,296,2.0,3.0,65,0.00,,,0.00,VWS V14.01,2013-02-07 14:42:00,
2013-02-07 09:43:00,25.3,15.6,30.48,WNW,296,1.0,3.0,66,0.00,,,0.00,VWS V14.01,2013-02-07 14:43:00,
2013-02-07 09:44:00,25.4,15.6,30.48,NW,304,2.0,3.0,66,0.00,,,0.00,VWS V14.01,2013-02-07 14:44:00,
2013-02-07 09:45:00,25.6,15.8,30.48,NW,304,0.0,3.0,66,0.00,,,0.00,VWS V14.01,2013-02-07 14:45:00,
2013-02-07 09:46:00,25.6,15.5,30.48,NW,304,0.0,3.0,65,0.00,,,0.00,VWS V14.01,2013-02-07 14:46:00,
2013-02-07 09:47:00,25.7,15.6,30.48,NW,305,3.0,3.0,65,0.00,,,0.00,VWS V14.01,2013-02-07 14:47:00,
2013-02-07 09:48:00,25.8,15.7,30.48,WNW,303,0.0,3.0,65,0.00,,,0.00,VWS V14.01,2013-02-07 14:48:00,
2013-02-07 09:49:00,25.8,15.7,30.48,NW,312,2.0,3.0,65,0.00,,,0.00,VWS V14.01,2013-02-07 14:49:00,
2013-02-07 09:50:00,25.8,15.7,30.48,NW,311,0.0,3.0,65,0.00,,,0.00,VWS V14.01,2013-02-07 14:50:00,
2013-02-07 09:51:00,26.0,15.5,30.48,NW,311,1.0,1.0,64,0.00,,,0.00,VWS V14.01,2013-02-07 14:51:00,
2013-02-07 09:52:00,26.0,15.9,30.48,NW,312,1.0,1.0,65,0.00,,,0.00,VWS V14.01,2013-02-07 14:52:00,
2013-02-07 09:53:00,26.1,16.0,30.48,NW,312,2.0,2.0,65,0.00,,,0.00,VWS V14.01,2013-02-07 14:53:00,
2013-02-07 09:54:00,26.2,16.1,30.48,NW,317,1.0,2.0,65,0.00,,,0.00,VWS V14.01,2013-02-07 14:54:00,
2013-02-07 09:55:00,26.3,16.1,30.48,NW,317,0.0,2.0,65,0.00,,,0.00,VWS V14.01,2013-02-07 14:55:00,
2013-02-07 09:56:00,26.4,16.2,30.48,NW,317,1.0,2.0,65,0.00,,,0.00,VWS V14.01,2013-02-07 14:56:00,
2013-02-07 09:57:00,26.5,16.0,30.48,NW,326,3.0,3.0,64,0.00,,,0.00,VWS V14.01,2013-02-07 14:57:00,
2013-02-07 09:58:00,26.5,16.0,30.48,NNW,333,0.0,3.0,64,0.00,,,0.00,VWS V14.01,2013-02-07 14:58:00,
2013-02-07 09:59:00,26.6,16.1,30.48,NNW,333,2.0,3.0,64,0.00,,,0.00,VWS V14.01,2013-02-07 14:59:00,
2013-02-07 10:00:00,26.6,15.7,30.48,NNW,333,0.0,3.0,63,0.00,,,0.00,VWS V14.01,2013-02-07 15:00:00,
2013-02-07 10:01:00,26.6,15.7,30.48,NNE,22,1.0,2.0,63,0.00,,,0.00,VWS V14.01,2013-02-07 15:01:00,
2013-02-07 10:02:00,26.6,15.7,30.48,NNE,21,1.0,2.0,63,0.00,,,0.00,VWS V14.01,2013-02-07 15:02:00,
2013-02-07 10:03:00,26.6,15.4,30.48,NNE,21,0.0,2.0,62,0.00,,,0.00,VWS V14.01,2013-02-07 15:03:00,
2013-02-07 10:04:00,26.6,15.7,30.48,NNE,21,0.0,2.0,63,0.00,,,0.00,VWS V14.01,2013-02-07 15:04:00,
2013-02-07 10:05:00,26.6,15.7,30.48,NNE,21,1.0,2.0,63,0.00,,,0.00,VWS V14.01,2013-02-07 15:05:00,
2013-02-07 10:06:00,26.6,15.7,30.48,NNE,21,0.0,2.0,63,0.00,,,0.00,VWS V14.01,2013-02-07 15:06:00,
2013-02-07 10:07:00,26.6,15.4,30.48,NNE,21,1.0,3.0,62,0.00,,,0.00,VWS V14.01,2013-02-07 15:07:00,
2013-02-07 10:08:00,26.6,15.4,30.48,NNE,21,0.0,3.0,62,0.00,,,0.00,VWS V14.01,2013-02-07 15:08:00,
2013-02-07 10:09:00,26.6,15.4,30.48,NNE,20,0.0,3.0,62,0.00,,,0.00,VWS V14.01,2013-02-07 15:09:00,
2013-02-07 10:10:00,26.7,15.8,30.48,NNE,20,1.0,3.0,63,0.00,,,0.00,VWS V14.01,2013-02-07 15:10:00,
2013-02-07 10:11:00,26.7,15.4,30.48,NNE,20,0.0,0.0,62,0.00,,,0.00,VWS V14.01,2013-02-07 15:11:00,
2013-02-07 10:12:00,26.7,15.4,30.48,NNE,20,0.0,0.0,62,0.00,,,0.00,VWS V14.01,2013-02-07 15:12:00,
2013-02-07 10:13:00,26.7,15.1,30.48,NNE,20,0.0,0.0,61,0.00,,,0.00,VWS V14.01,2013-02-07 15:13:00,
2013-02-07 10:14:00,26.7,15.1,30.48,NNE,20,0.0,0.0,61,0.00,,,0.00,VWS V14.01,2013-02-07 15:14:00,
2013-02-07 10:15:00,26.7,15.1,30.48,NNE,20,0.0,0.0,61,0.00,,,0.00,VWS V14.01,2013-02-07 15:15:00,
2013-02-07 10:16:00,26.8,15.5,30.48,NNE,20,1.0,1.0,62,0.00,,,0.00,VWS V14.01,2013-02-07 15:16:00,
2013-02-07 10:17:00,26.8,15.5,30.48,NNE,22,1.0,2.0,62,0.00,,,0.00,VWS V14.01,2013-02-07 15:17:00,
2013-02-07 10:18:00,26.8,15.2,30.48,NNE,27,1.0,2.0,61,0.00,,,0.00,VWS V14.01,2013-02-07 15:18:00,
2013-02-07 10:19:00,26.8,15.2,30.48,NNE,27,0.0,2.0,61,0.00,,,0.00,VWS V14.01,2013-02-07 15:19:00,
2013-02-07 10:20:00,26.8,14.8,30.48,NNE,27,0.0,2.0,60,0.00,,,0.00,VWS V14.01,2013-02-07 15:20:00,
2013-02-07 10:21:00,26.8,14.8,30.48,NNE,27,1.0,1.0,60,0.00,,,0.00,VWS V14.01,2013-02-07 15:21:00,
2013-02-07 10:22:00,26.7,14.7,30.48,ENE,71,5.0,5.0,60,0.00,,,0.00,VWS V14.01,2013-02-07 15:22:00,
2013-02-07 10:23:00,26.7,14.7,30.48,ENE,68,2.0,5.0,60,0.00,,,0.00,VWS V14.01,2013-02-07 15:23:00,
2013-02-07 10:24:00,26.6,14.6,30.48,NE,45,1.0,5.0,60,0.00,,,0.00,VWS V14.01,2013-02-07 15:24:00,
2013-02-07 10:25:00,26.6,14.2,30.48,NE,45,3.0,5.0,59,0.00,,,0.00,VWS V14.01,2013-02-07 15:25:00,
2013-02-07 10:26:00,26.6,14.6,30.48,NE,45,1.0,5.0,60,0.00,,,0.00,VWS V14.01,2013-02-07 15:26:00,
2013-02-07 10:27:00,26.6,14.6,30.48,NE,45,1.0,5.0,60,0.00,,,0.00,VWS V14.01,2013-02-07 15:27:00,
2013-02-07 10:28:00,26.7,14.7,30.48,NE,45,0.0,5.0,60,0.00,,,0.00,VWS V14.01,2013-02-07 15:28:00,
2013-02-07 10:29:00,26.6,14.6,30.48,NE,46,0.0,5.0,60,0.00,,,0.00,VWS V14.01,2013-02-07 15:29:00,
2013-02-07 10:30:00,26.7,14.7,30.47,NE,46,1.0,5.0,60,0.00,,,0.00,VWS V14.01,2013-02-07 15:30:00,
2013-02-07 10:31:00,26.7,14.7,30.47,NE,46,3.0,3.0,60,0.00,,,0.00,VWS V14.01,2013-02-07 15:31:00,
2013-02-07 10:32:00,26.7,14.7,30.47,NE,56,1.0,4.0,60,0.00,,,0.00,VWS V14.01,2013-02-07 15:32:00,
2013-02-07 10:33:00,26.7,14.7,30.47,ESE,102,2.0,5.0,60,0.00,,,0.00,VWS V14.01,2013-02-07 15:33:00,
2013-02-07 10:34:00,26.8,14.8,30.47,ESE,102,1.0,5.0,60,0.00,,,0.00,VWS V14.01,2013-02-07 15:34:00,
2013-02-07 10:35:00,26.8,14.8,30.47,ENE,69,2.0,5.0,60,0.00,,,0.00,VWS V14.01,2013-02-07 15:35:00,
2013-02-07 10:36:00,26.9,14.5,30.47,ENE,69,1.0,5.0,59,0.00,,,0.00,VWS V14.01,2013-02-07 15:36:00,
2013-02-07 10:37:00,26.9,14.5,30.47,ESE,108,4.0,5.0,59,0.00,,,0.00,VWS V14.01,2013-02-07 15:37:00,
2013-02-07 10:38:00,26.9,14.5,30.47,ESE,109,0.0,5.0,59,0.00,,,0.00,VWS V14.01,2013-02-07 15:38:00,
2013-02-07 10:39:00,27.0,15.0,30.47,ESE,109,0.0,5.0,60,0.00,,,0.00,VWS V14.01,2013-02-07 15:39:00,
2013-02-07 10:40:00,27.1,15.1,30.47,ESE,110,1.0,5.0,60,0.00,,,0.00,VWS V14.01,2013-02-07 15:40:00,
2013-02-07 10:41:00,27.2,14.8,30.47,ESE,109,2.0,2.0,59,0.00,,,0.00,VWS V14.01,2013-02-07 15:41:00,
2013-02-07 10:42:00,27.2,14.0,30.47,ESE,103,2.0,2.0,57,0.00,,,0.00,VWS V14.01,2013-02-07 15:42:00,
2013-02-07 10:43:00,27.2,14.4,30.47,ENE,74,1.0,2.0,58,0.00,,,0.00,VWS V14.01,2013-02-07 15:43:00,
2013-02-07 10:44:00,27.2,14.0,30.47,ENE,57,0.0,3.0,57,0.00,,,0.00,VWS V14.01,2013-02-07 15:44:00,
2013-02-07 10:45:00,27.2,13.6,30.47,ENE,57,2.0,3.0,56,0.00,,,0.00,VWS V14.01,2013-02-07 15:45:00,
2013-02-07 10:46:00,27.1,13.5,30.47,ENE,57,0.0,3.0,56,0.00,,,0.00,VWS V14.01,2013-02-07 15:46:00,
2013-02-07 10:47:00,27.1,13.5,30.47,ENE,57,1.0,3.0,56,0.00,,,0.00,VWS V14.01,2013-02-07 15:47:00,
2013-02-07 10:48:00,27.0,13.4,30.47,ENE,57,1.0,3.0,56,0.00,,,0.00,VWS V14.01,2013-02-07 15:48:00,
2013-02-07 10:49:00,27.0,13.4,30.47,ENE,57,0.0,3.0,56,0.00,,,0.00,VWS V14.01,2013-02-07 15:49:00,
2013-02-07 10:50:00,27.1,13.9,30.47,ENE,57,1.0,3.0,57,0.00,,,0.00,VWS V14.01,2013-02-07 15:50:00,
2013-02-07 10:51:00,27.1,13.9,30.47,ENE,57,1.0,1.0,57,0.00,,,0.00,VWS V14.01,2013-02-07 15:51:00,
2013-02-07 10:52:00,27.1,13.5,30.47,ENE,57,1.0,2.0,56,0.00,,,0.00,VWS V14.01,2013-02-07 15:52:00,
2013-02-07 10:53:00,27.1,13.5,30.47,ENE,57,3.0,3.0,56,0.00,,,0.00,VWS V14.01,2013-02-07 15:53:00,
2013-02-07 10:54:00,27.2,14.0,30.47,ENE,57,0.0,3.0,57,0.00,,,0.00,VWS V14.01,2013-02-07 15:54:00,
2013-02-07 10:55:00,27.2,14.4,30.47,ENE,57,0.0,3.0,58,0.00,,,0.00,VWS V14.01,2013-02-07 15:55:00,
2013-02-07 10:56:00,27.3,14.5,30.47,ENE,57,0.0,3.0,58,0.00,,,0.00,VWS V14.01,2013-02-07 15:56:00,
2013-02-07 10:57:00,27.3,14.1,30.47,ENE,57,0.0,3.0,57,0.00,,,0.00,VWS V14.01,2013-02-07 15:57:00,
2013-02-07 10:58:00,27.4,14.2,30.47,ENE,57,0.0,3.0,57,0.00,,,0.00,VWS V14.01,2013-02-07 15:58:00,
2013-02-07 10:59:00,27.5,14.3,30.47,ENE,57,0.0,3.0,57,0.00,,,0.00,VWS V14.01,2013-02-07 15:59:00,
2013-02-07 11:00:00,27.6,14.4,30.46,ENE,57,0.0,3.0,57,0.00,,,0.00,VWS V14.01,2013-02-07 16:00:00,
2013-02-07 11:01:00,27.6,14.4,30.46,ENE,57,1.0,1.0,57,0.00,,,0.00,VWS V14.01,2013-02-07 16:01:00,
2013-02-07 11:02:00,27.8,14.6,30.46,ESE,118,2.0,4.0,57,0.00,,,0.00,VWS V14.01,2013-02-07 16:02:00,
2013-02-07 11:03:00,27.9,14.6,30.46,ENE,61,3.0,4.0,57,0.00,,,0.00,VWS V14.01,2013-02-07 16:03:00,
2013-02-07 11:04:00,28.0,14.3,30.46,ENE,65,3.0,5.0,56,0.00,,,0.00,VWS V14.01,2013-02-07 16:04:00,
2013-02-07 11:05:00,28.0,14.3,30.46,ENE,74,1.0,5.0,56,0.00,,,0.00,VWS V14.01,2013-02-07 16:05:00,
2013-02-07 11:06:00,28.0,14.3,30.46,ENE,75,2.0,5.0,56,0.00,,,0.00,VWS V14.01,2013-02-07 16:06:00,
2013-02-07 11:07:00,28.0,13.9,30.46,ENE,75,1.0,5.0,55,0.00,,,0.00,VWS V14.01,2013-02-07 16:07:00,
2013-02-07 11:08:00,28.0,13.9,30.46,ENE,75,0.0,5.0,55,0.00,,,0.00,VWS V14.01,2013-02-07 16:08:00,
2013-02-07 11:09:00,28.0,13.9,30.46,SSE,149,5.0,5.0,55,0.00,,,0.00,VWS V14.01,2013-02-07 16:09:00,
2013-02-07 11:10:00,28.1,14.0,30.46,SSE,150,3.0,6.0,55,0.00,,,0.00,VWS V14.01,2013-02-07 16:10:00,
2013-02-07 11:11:00,28.1,14.0,30.46,SSE,150,0.0,2.0,55,0.00,,,0.00,VWS V14.01,2013-02-07 16:11:00,
2013-02-07 11:12:00,28.2,13.7,30.46,SSE,150,3.0,4.0,54,0.00,,,0.00,VWS V14.01,2013-02-07 16:12:00,
2013-02-07 11:13:00,28.2,13.7,30.46,SSE,148,3.0,6.0,54,0.00,,,0.00,VWS V14.01,2013-02-07 16:13:00,
2013-02-07 11:14:00,28.3,13.8,30.46,SSE,148,1.0,6.0,54,0.00,,,0.00,VWS V14.01,2013-02-07 16:14:00,
2013-02-07 11:15:00,28.4,14.3,30.46,SSE,148,2.0,6.0,55,0.00,,,0.00,VWS V14.01,2013-02-07 16:15:00,
2013-02-07 11:16:00,28.5,14.4,30.46,South,169,2.0,6.0,55,0.00,,,0.00,VWS V14.01,2013-02-07 16:16:00,
2013-02-07 11:17:00,28.7,15.0,30.46,SE,135,3.0,6.0,56,0.00,,,0.00,VWS V14.01,2013-02-07 16:17:00,
2013-02-07 11:18:00,28.7,15.0,30.46,SE,138,4.0,6.0,56,0.00,,,0.00,VWS V14.01,2013-02-07 16:18:00,
2013-02-07 11:19:00,28.8,14.7,30.46,SE,141,4.0,6.0,55,0.00,,,0.00,VWS V14.01,2013-02-07 16:19:00,
2013-02-07 11:20:00,28.8,14.7,30.46,SSE,148,3.0,6.0,55,0.00,,,0.00,VWS V14.01,2013-02-07 16:20:00,
2013-02-07 11:21:00,28.9,14.8,30.46,NE,46,3.0,4.0,55,0.00,,,0.00,VWS V14.01,2013-02-07 16:21:00,
2013-02-07 11:22:00,28.9,14.8,30.46,SE,143,3.0,4.0,55,0.00,,,0.00,VWS V14.01,2013-02-07 16:22:00,
2013-02-07 11:23:00,29.0,15.3,30.46,SSE,148,4.0,6.0,56,0.00,,,0.00,VWS V14.01,2013-02-07 16:23:00,
2013-02-07 11:24:00,29.0,15.3,30.46,SSE,152,3.0,6.0,56,0.00,,,0.00,VWS V14.01,2013-02-07 16:24:00,
2013-02-07 11:25:00,29.1,15.4,30.46,SSE,152,3.0,6.0,56,0.00,,,0.00,VWS V14.01,2013-02-07 16:25:00,
2013-02-07 11:26:00,29.1,15.0,30.46,SSE,152,0.0,6.0,55,0.00,,,0.00,VWS V14.01,2013-02-07 16:26:00,
2013-02-07 11:27:00,29.3,15.6,30.46,SSE,152,2.0,6.0,56,0.00,,,0.00,VWS V14.01,2013-02-07 16:27:00,
2013-02-07 11:28:00,29.4,15.7,30.46,SSE,155,3.0,6.0,56,0.00,,,0.00,VWS V14.01,2013-02-07 16:28:00,
2013-02-07 11:29:00,29.5,15.3,30.46,SSE,164,3.0,6.0,55,0.00,,,0.00,VWS V14.01,2013-02-07 16:29:00,
2013-02-07 11:30:00,29.6,15.4,30.47,SSE,165,2.0,6.0,55,0.00,,,0.00,VWS V14.01,2013-02-07 16:30:00,
2013-02-07 11:31:00,29.6,15.4,30.47,SSE,165,4.0,6.0,55,0.00,,,0.00,VWS V14.01,2013-02-07 16:31:00,
2013-02-07 11:32:00,29.7,15.1,30.47,SSE,165,3.0,6.0,54,0.00,,,0.00,VWS V14.01,2013-02-07 16:32:00,
2013-02-07 11:33:00,29.8,15.2,30.47,SSE,165,1.0,6.0,54,0.00,,,0.00,VWS V14.01,2013-02-07 16:33:00,
2013-02-07 11:34:00,29.8,15.2,30.47,SSE,165,2.0,6.0,54,0.00,,,0.00,VWS V14.01,2013-02-07 16:34:00,
2013-02-07 11:35:00,29.9,15.3,30.47,SSE,165,0.0,6.0,54,0.00,,,0.00,VWS V14.01,2013-02-07 16:35:00,
2013-02-07 11:36:00,29.9,15.3,30.47,SSE,165,0.0,6.0,54,0.00,,,0.00,VWS V14.01,2013-02-07 16:36:00,
2013-02-07 11:37:00,30.0,15.4,30.47,SSE,165,0.0,6.0,54,0.00,,,0.00,VWS V14.01,2013-02-07 16:37:00,
2013-02-07 11:38:00,30.1,15.5,30.47,SSE,165,1.0,6.0,54,0.00,,,0.00,VWS V14.01,2013-02-07 16:38:00,
2013-02-07 11:39:00,30.2,15.6,30.47,SSE,163,1.0,6.0,54,0.00,,,0.00,VWS V14.01,2013-02-07 16:39:00,
2013-02-07 11:40:00,30.2,15.1,30.47,SSE,163,0.0,6.0,53,0.00,,,0.00,VWS V14.01,2013-02-07 16:40:00,
2013-02-07 11:41:00,30.3,15.2,30.47,SSE,160,5.0,5.0,53,0.00,,,0.00,VWS V14.01,2013-02-07 16:41:00,
2013-02-07 11:42:00,30.3,15.2,30.47,SSE,155,5.0,7.0,53,0.00,,,0.00,VWS V14.01,2013-02-07 16:42:00,
2013-02-07 11:43:00,30.4,15.3,30.47,SSE,165,5.0,7.0,53,0.00,,,0.00,VWS V14.01,2013-02-07 16:43:00,
2013-02-07 11:44:00,30.4,14.9,30.47,SSE,149,0.0,7.0,52,0.00,,,0.00,VWS V14.01,2013-02-07 16:44:00,
2013-02-07 11:45:00,30.5,15.0,30.44,SSE,151,0.0,7.0,52,0.00,,,0.00,VWS V14.01,2013-02-07 16:45:00,
2013-02-07 11:46:00,30.5,15.0,30.44,SSE,151,5.0,7.0,52,0.00,,,0.00,VWS V14.01,2013-02-07 16:46:00,
2013-02-07 11:47:00,30.5,15.0,30.44,SSE,151,1.0,7.0,52,0.00,,,0.00,VWS V14.01,2013-02-07 16:47:00,
2013-02-07 11:48:00,30.5,15.0,30.44,SSE,163,1.0,7.0,52,0.00,,,0.00,VWS V14.01,2013-02-07 16:48:00,
2013-02-07 11:49:00,30.4,14.4,30.44,South,169,3.0,7.0,51,0.00,,,0.00,VWS V14.01,2013-02-07 16:49:00,
2013-02-07 11:50:00,30.4,14.4,30.44,South,169,0.0,7.0,51,0.00,,,0.00,VWS V14.01,2013-02-07 16:50:00,
2013-02-07 11:51:00,30.4,14.9,30.44,South,169,3.0,3.0,52,0.00,,,0.00,VWS V14.01,2013-02-07 16:51:00,
2013-02-07 11:52:00,30.3,14.8,30.44,SE,138,4.0,7.0,52,0.00,,,0.00,VWS V14.01,2013-02-07 16:52:00,
2013-02-07 11:53:00,30.3,14.8,30.44,SE,138,0.0,7.0,52,0.00,,,0.00,VWS V14.01,2013-02-07 16:53:00,
2013-02-07 11:54:00,30.3,14.8,30.44,SE,138,2.0,7.0,52,0.00,,,0.00,VWS V14.01,2013-02-07 16:54:00,
2013-02-07 11:55:00,30.3,14.8,30.44,SE,138,3.0,7.0,52,0.00,,,0.00,VWS V14.01,2013-02-07 16:55:00,
2013-02-07 11:56:00,30.2,15.1,30.44,SSE,155,5.0,7.0,53,0.00,,,0.00,VWS V14.01,2013-02-07 16:56:00,
2013-02-07 11:57:00,30.2,14.7,30.44,SSE,160,1.0,7.0,52,0.00,,,0.00,VWS V14.01,2013-02-07 16:57:00,
2013-02-07 11:58:00,30.2,14.7,30.44,SSE,160,0.0,7.0,52,0.00,,,0.00,VWS V14.01,2013-02-07 16:58:00,
2013-02-07 11:59:00,30.1,15.1,30.44,SSE,160,1.0,7.0,53,0.00,,,0.00,VWS V14.01,2013-02-07 16:59:00,
2013-02-07 12:00:00,30.1,14.6,30.45,SSE,160,2.0,7.0,52,0.00,,,0.00,VWS V14.01,2013-02-07 17:00:00,
2013-02-07 12:01:00,30.1,15.1,30.45,SSE,160,0.0,3.0,53,0.00,,,0.00,VWS V14.01,2013-02-07 17:01:00,
2013-02-07 12:02:00,30.1,15.1,30.45,SSE,160,0.0,3.0,53,0.00,,,0.00,VWS V14.01,2013-02-07 17:02:00,
2013-02-07 12:03:00,30.1,15.1,30.45,SSE,160,0.0,3.0,53,0.00,,,0.00,VWS V14.01,2013-02-07 17:03:00,
2013-02-07 12:04:00,30.1,15.1,30.45,SSE,160,3.0,3.0,53,0.00,,,0.00,VWS V14.01,2013-02-07 17:04:00,
2013-02-07 12:05:00,30.1,15.1,30.45,SSE,160,0.0,3.0,53,0.00,,,0.00,VWS V14.01,2013-02-07 17:05:00,
2013-02-07 12:06:00,30.1,15.1,30.45,SSE,160,2.0,3.0,53,0.00,,,0.00,VWS V14.01,2013-02-07 17:06:00,
2013-02-07 12:07:00,30.1,15.1,30.45,SSE,157,3.0,4.0,53,0.00,,,0.00,VWS V14.01,2013-02-07 17:07:00,
2013-02-07 12:08:00,30.2,15.1,30.45,SSE,152,2.0,5.0,53,0.00,,,0.00,VWS V14.01,2013-02-07 17:08:00,
2013-02-07 12:09:00,30.2,15.1,30.45,SSE,152,2.0,5.0,53,0.00,,,0.00,VWS V14.01,2013-02-07 17:09:00,
2013-02-07 12:10:00,30.2,15.1,30.45,SSE,152,1.0,5.0,53,0.00,,,0.00,VWS V14.01,2013-02-07 17:10:00,
2013-02-07 12:11:00,30.2,15.1,30.45,SSE,152,2.0,2.0,53,0.00,,,0.00,VWS V14.01,2013-02-07 17:11:00,
2013-02-07 12:12:00,30.2,15.1,30.45,SSE,152,0.0,2.0,53,0.00,,,0.00,VWS V14.01,2013-02-07 17:12:00,
2013-02-07 12:13:00,30.2,15.1,30.45,SSE,152,1.0,2.0,53,0.00,,,0.00,VWS V14.01,2013-02-07 17:13:00,
2013-02-07 12:14:00,30.2,15.1,30.45,SSE,152,1.0,4.0,53,0.00,,,0.00,VWS V14.01,2013-02-07 17:14:00,
2013-02-07 12:15:00,30.2,15.1,30.44,SSE,152,2.0,4.0,53,0.00,,,0.00,VWS V14.01,2013-02-07 17:15:00,
2013-02-07 12:16:00,30.3,15.2,30.44,SSE,152,1.0,4.0,53,0.00,,,0.00,VWS V14.01,2013-02-07 17:16:00,
2013-02-07 12:17:00,30.2,15.1,30.44,SSE,163,4.0,4.0,53,0.00,,,0.00,VWS V14.01,2013-02-07 17:17:00,
2013-02-07 12:18:00,30.3,15.2,30.44,SSE,156,3.0,5.0,53,0.00,,,0.00,VWS V14.01,2013-02-07 17:18:00,
2013-02-07 12:19:00,30.2,14.7,30.44,SSE,157,3.0,5.0,52,0.00,,,0.00,VWS V14.01,2013-02-07 17:19:00,
2013-02-07 12:20:00,30.3,14.8,30.44,SSE,157,3.0,5.0,52,0.00,,,0.00,VWS V14.01,2013-02-07 17:20:00,
2013-02-07 12:21:00,30.3,15.2,30.44,SSE,165,4.0,4.0,53,0.00,,,0.00,VWS V14.01,2013-02-07 17:21:00,
2013-02-07 12:22:00,30.3,14.8,30.44,SSE,165,1.0,4.0,52,0.00,,,0.00,VWS V14.01,2013-02-07 17:22:00,
2013-02-07 12:23:00,30.3,15.2,30.44,South,173,1.0,5.0,53,0.00,,,0.00,VWS V14.01,2013-02-07 17:23:00,
2013-02-07 12:24:00,30.3,14.8,30.44,South,174,2.0,5.0,52,0.00,,,0.00,VWS V14.01,2013-02-07 17:24:00,
2013-02-07 12:25:00,30.3,14.8,30.44,SSE,161,5.0,7.0,52,0.00,,,0.00,VWS V14.01,2013-02-07 17:25:00,
2013-02-07 12:26:00,30.3,14.8,30.44,SE,136,4.0,7.0,52,0.00,,,0.00,VWS V14.01,2013-02-07 17:26:00,
2013-02-07 12:27:00,30.3,14.8,30.44,SE,144,1.0,7.0,52,0.00,,,0.00,VWS V14.01,2013-02-07 17:27:00,
2013-02-07 12:28:00,30.3,15.2,30.44,SE,144,1.0,7.0,53,0.00,,,0.00,VWS V14.01,2013-02-07 17:28:00,
2013-02-07 12:29:00,30.3,15.2,30.44,SSE,148,3.0,7.0,53,0.00,,,0.00,VWS V14.01,2013-02-07 17:29:00,
2013-02-07 12:30:00,30.4,15.3,30.44,SSE,148,2.0,7.0,53,0.00,,,0.00,VWS V14.01,2013-02-07 17:30:00,
2013-02-07 12:31:00,30.4,15.3,30.44,SSE,152,4.0,4.0,53,0.00,,,0.00,VWS V14.01,2013-02-07 17:31:00,
2013-02-07 12:32:00,30.4,15.3,30.44,SSW,196,4.0,6.0,53,0.00,,,0.00,VWS V14.01,2013-02-07 17:32:00,
2013-02-07 12:33:00,30.5,15.4,30.44,SSE,162,5.0,7.0,53,0.00,,,0.00,VWS V14.01,2013-02-07 17:33:00,
2013-02-07 12:34:00,30.5,15.0,30.44,SSE,163,3.0,7.0,52,0.00,,,0.00,VWS V14.01,2013-02-07 17:34:00,
2013-02-07 12:35:00,30.5,15.4,30.44,South,169,4.0,7.0,53,0.00,,,0.00,VWS V14.01,2013-02-07 17:35:00,
2013-02-07 12:36:00,30.5,15.4,30.44,South,169,2.0,7.0,53,0.00,,,0.00,VWS V14.01,2013-02-07 17:36:00,
2013-02-07 12:37:00,30.5,15.4,30.44,South,179,5.0,7.0,53,0.00,,,0.00,VWS V14.01,2013-02-07 17:37:00,
2013-02-07 12:38:00,30.5,15.0,30.44,South,179,3.0,7.0,52,0.00,,,0.00,VWS V14.01,2013-02-07 17:38:00,
2013-02-07 12:39:00,30.5,15.0,30.44,South,179,2.0,7.0,52,0.00,,,0.00,VWS V14.01,2013-02-07 17:39:00,
2013-02-07 12:40:00,30.5,15.0,30.44,South,179,3.0,7.0,52,0.00,,,0.00,VWS V14.01,2013-02-07 17:40:00,
2013-02-07 12:41:00,30.5,15.0,30.44,South,173,2.0,3.0,52,0.00,,,0.00,VWS V14.01,2013-02-07 17:41:00,
2013-02-07 12:42:00,30.5,15.0,30.44,SSE,159,1.0,5.0,52,0.00,,,0.00,VWS V14.01,2013-02-07 17:42:00,
2013-02-07 12:43:00,30.5,15.0,30.44,SSE,159,0.0,5.0,52,0.00,,,0.00,VWS V14.01,2013-02-07 17:43:00,
2013-02-07 12:44:00,30.5,15.0,30.44,SSE,161,3.0,5.0,52,0.00,,,0.00,VWS V14.01,2013-02-07 17:44:00,
2013-02-07 12:45:00,30.5,15.0,30.43,SSE,161,5.0,5.0,52,0.00,,,0.00,VWS V14.01,2013-02-07 17:45:00,
2013-02-07 12:46:00,30.6,15.1,30.43,SE,146,6.0,8.0,52,0.00,,,0.00,VWS V14.01,2013-02-07 17:46:00,
2013-02-07 12:47:00,30.6,14.6,30.43,SE,144,1.0,8.0,51,0.00,,,0.00,VWS V14.01,2013-02-07 17:47:00,
2013-02-07 12:48:00,30.5,14.5,30.43,SE,144,1.0,8.0,51,0.00,,,0.00,VWS V14.01,2013-02-07 17:48:00,
2013-02-07 12:49:00,30.5,14.5,30.43,SSE,148,2.0,8.0,51,0.00,,,0.00,VWS V14.01,2013-02-07 17:49:00,
2013-02-07 12:50:00,30.6,14.6,30.43,SSE,151,3.0,8.0,51,0.00,,,0.00,VWS V14.01,2013-02-07 17:50:00,
2013-02-07 12:51:00,30.6,15.1,30.43,SSE,161,3.0,4.0,52,0.00,,,0.00,VWS V14.01,2013-02-07 17:51:00,
2013-02-07 12:52:00,30.6,15.1,30.43,SSE,164,2.0,4.0,52,0.00,,,0.00,VWS V14.01,2013-02-07 17:52:00,
2013-02-07 12:53:00,30.6,14.2,30.43,SSE,164,1.0,4.0,50,0.00,,,0.00,VWS V14.01,2013-02-07 17:53:00,
2013-02-07 12:54:00,30.6,14.6,30.43,SSE,164,1.0,4.0,51,0.00,,,0.00,VWS V14.01,2013-02-07 17:54:00,
2013-02-07 12:55:00,30.6,14.2,30.43,SSE,164,0.0,4.0,50,0.00,,,0.00,VWS V14.01,2013-02-07 17:55:00,
2013-02-07 12:56:00,30.6,14.2,30.43,SSE,164,0.0,4.0,50,0.00,,,0.00,VWS V14.01,2013-02-07 17:56:00,
2013-02-07 12:57:00,30.6,14.2,30.43,SSE,164,0.0,4.0,50,0.00,,,0.00,VWS V14.01,2013-02-07 17:57:00,
2013-02-07 12:58:00,30.6,14.2,30.43,SSE,164,0.0,4.0,50,0.00,,,0.00,VWS V14.01,2013-02-07 17:58:00,
2013-02-07 12:59:00,30.6,14.6,30.43,SSE,164,3.0,4.0,51,0.00,,,0.00,VWS V14.01,2013-02-07 17:59:00,
2013-02-07 13:00:00,30.6,14.6,30.43,SSE,164,3.0,4.0,51,0.00,,,0.00,VWS V14.01,2013-02-07 18:00:00,
2013-02-07 13:01:00,30.6,14.6,30.43,SSE,164,2.0,3.0,51,0.00,,,0.00,VWS V14.01,2013-02-07 18:01:00,
2013-02-07 13:02:00,30.6,14.6,30.43,SSE,164,3.0,5.0,51,0.00,,,0.00,VWS V14.01,2013-02-07 18:02:00,
2013-02-07 13:03:00,30.6,14.2,30.43,SSE,164,4.0,5.0,50,0.00,,,0.00,VWS V14.01,2013-02-07 18:03:00,
2013-02-07 13:04:00,30.6,13.7,30.43,SSE,164,2.0,5.0,49,0.00,,,0.00,VWS V14.01,2013-02-07 18:04:00,
2013-02-07 13:05:00,30.6,14.2,30.43,SSE,161,3.0,6.0,50,0.00,,,0.00,VWS V14.01,2013-02-07 18:05:00,
2013-02-07 13:06:00,30.6,13.7,30.43,SSE,161,0.0,6.0,49,0.00,,,0.00,VWS V14.01,2013-02-07 18:06:00,
2013-02-07 13:07:00,30.6,14.2,30.43,SSE,161,1.0,6.0,50,0.00,,,0.00,VWS V14.01,2013-02-07 18:07:00,
2013-02-07 13:08:00,30.6,14.2,30.43,SSE,161,1.0,6.0,50,0.00,,,0.00,VWS V14.01,2013-02-07 18:08:00,
2013-02-07 13:09:00,30.6,13.7,30.43,SSE,161,3.0,6.0,49,0.00,,,0.00,VWS V14.01,2013-02-07 18:09:00,
2013-02-07 13:10:00,30.6,13.7,30.43,SSE,161,4.0,6.0,49,0.00,,,0.00,VWS V14.01,2013-02-07 18:10:00,
2013-02-07 13:11:00,30.5,13.6,30.43,SSE,161,2.0,4.0,49,0.00,,,0.00,VWS V14.01,2013-02-07 18:11:00,
2013-02-07 13:12:00,30.5,14.1,30.43,SSE,161,0.0,4.0,50,0.00,,,0.00,VWS V14.01,2013-02-07 18:12:00,
2013-02-07 13:13:00,30.5,13.6,30.43,SSE,161,1.0,4.0,49,0.00,,,0.00,VWS V14.01,2013-02-07 18:13:00,
2013-02-07 13:14:00,30.5,13.6,30.43,SSE,161,1.0,4.0,49,0.00,,,0.00,VWS V14.01,2013-02-07 18:14:00,
2013-02-07 13:15:00,30.5,13.6,30.42,SSE,161,0.0,4.0,49,0.00,,,0.00,VWS V14.01,2013-02-07 18:15:00,
2013-02-07 13:16:00,30.5,13.6,30.42,SSE,161,0.0,4.0,49,0.00,,,0.00,VWS V14.01,2013-02-07 18:16:00,
2013-02-07 13:17:00,30.5,13.6,30.42,SSE,161,0.0,4.0,49,0.00,,,0.00,VWS V14.01,2013-02-07 18:17:00,
2013-02-07 13:18:00,30.5,14.1,30.42,SSE,161,1.0,4.0,50,0.00,,,0.00,VWS V14.01,2013-02-07 18:18:00,
2013-02-07 13:19:00,30.5,14.1,30.42,SSE,161,0.0,4.0,50,0.00,,,0.00,VWS V14.01,2013-02-07 18:19:00,
2013-02-07 13:20:00,30.5,14.1,30.42,SSE,161,1.0,4.0,50,0.00,,,0.00,VWS V14.01,2013-02-07 18:20:00,
2013-02-07 13:21:00,30.5,14.1,30.42,SSE,161,1.0,1.0,50,0.00,,,0.00,VWS V14.01,2013-02-07 18:21:00,
2013-02-07 13:22:00,30.5,14.1,30.42,SSE,161,0.0,2.0,50,0.00,,,0.00,VWS V14.01,2013-02-07 18:22:00,
2013-02-07 13:23:00,30.5,14.1,30.42,SSE,161,0.0,2.0,50,0.00,,,0.00,VWS V14.01,2013-02-07 18:23:00,
2013-02-07 13:24:00,30.5,14.1,30.42,SSE,161,0.0,2.0,50,0.00,,,0.00,VWS V14.01,2013-02-07 18:24:00,
2013-02-07 13:25:00,30.5,14.1,30.42,SSE,161,1.0,2.0,50,0.00,,,0.00,VWS V14.01,2013-02-07 18:25:00,
2013-02-07 13:26:00,30.5,14.1,30.42,SSE,161,0.0,2.0,50,0.00,,,0.00,VWS V14.01,2013-02-07 18:26:00,
2013-02-07 13:27:00,30.6,14.2,30.42,SSE,161,2.0,2.0,50,0.00,,,0.00,VWS V14.01,2013-02-07 18:27:00,
2013-02-07 13:28:00,30.6,14.6,30.42,SSE,161,0.0,2.0,51,0.00,,,0.00,VWS V14.01,2013-02-07 18:28:00,
2013-02-07 13:29:00,30.6,14.6,30.42,SSE,161,1.0,2.0,51,0.00,,,0.00,VWS V14.01,2013-02-07 18:29:00,
2013-02-07 13:30:00,30.6,14.6,30.42,SSE,161,2.0,3.0,51,0.00,,,0.00,VWS V14.01,2013-02-07 18:30:00,
2013-02-07 13:31:00,30.6,14.2,30.42,SSE,161,3.0,3.0,50,0.00,,,0.00,VWS V14.01,2013-02-07 18:31:00,
2013-02-07 13:32:00,30.6,14.6,30.42,SSE,161,0.0,3.0,51,0.00,,,0.00,VWS V14.01,2013-02-07 18:32:00,
2013-02-07 13:33:00,30.6,14.6,30.42,SSE,161,2.0,3.0,51,0.00,,,0.00,VWS V14.01,2013-02-07 18:33:00,
2013-02-07 13:34:00,30.6,14.2,30.42,SSE,161,3.0,3.0,50,0.00,,,0.00,VWS V14.01,2013-02-07 18:34:00,
2013-02-07 13:35:00,30.6,14.2,30.42,SSE,161,2.0,3.0,50,0.00,,,0.00,VWS V14.01,2013-02-07 18:35:00,
2013-02-07 13:36:00,30.6,14.2,30.42,SSE,161,1.0,3.0,50,0.00,,,0.00,VWS V14.01,2013-02-07 18:36:00,
2013-02-07 13:37:00,30.5,14.1,30.42,SSE,161,0.0,3.0,50,0.00,,,0.00,VWS V14.01,2013-02-07 18:37:00,
2013-02-07 13:38:00,30.5,14.1,30.42,SSE,161,0.0,3.0,50,0.00,,,0.00,VWS V14.01,2013-02-07 18:38:00,
2013-02-07 13:39:00,30.5,14.5,30.42,SSE,161,2.0,3.0,51,0.00,,,0.00,VWS V14.01,2013-02-07 18:39:00,
2013-02-07 13:40:00,30.5,14.5,30.42,SSE,161,1.0,3.0,51,0.00,,,0.00,VWS V14.01,2013-02-07 18:40:00,
2013-02-07 13:41:00,30.5,14.5,30.42,SSE,161,4.0,4.0,51,0.00,,,0.00,VWS V14.01,2013-02-07 18:41:00,
2013-02-07 13:42:00,30.5,14.5,30.42,SSE,167,3.0,5.0,51,0.00,,,0.00,VWS V14.01,2013-02-07 18:42:00,
2013-02-07 13:43:00,30.4,14.4,30.42,SSE,166,3.0,5.0,51,0.00,,,0.00,VWS V14.01,2013-02-07 18:43:00,
2013-02-07 13:44:00,30.4,14.0,30.42,SSE,166,0.0,5.0,50,0.00,,,0.00,VWS V14.01,2013-02-07 18:44:00,
2013-02-07 13:45:00,30.4,14.4,30.41,SSE,166,4.0,5.0,51,0.00,,,0.00,VWS V14.01,2013-02-07 18:45:00,
2013-02-07 13:46:00,30.3,13.9,30.41,SSE,165,4.0,5.0,50,0.00,,,0.00,VWS V14.01,2013-02-07 18:46:00,
2013-02-07 13:47:00,30.3,13.9,30.41,SE,144,5.0,7.0,50,0.00,,,0.00,VWS V14.01,2013-02-07 18:47:00,
2013-02-07 13:48:00,30.2,13.8,30.41,South,169,4.0,7.0,50,0.00,,,0.00,VWS V14.01,2013-02-07 18:48:00,
2013-02-07 13:49:00,30.2,14.3,30.41,South,169,3.0,7.0,51,0.00,,,0.00,VWS V14.01,2013-02-07 18:49:00,
2013-02-07 13:50:00,30.2,13.8,30.41,South,173,4.0,7.0,50,0.00,,,0.00,VWS V14.01,2013-02-07 18:50:00,
2013-02-07 13:51:00,30.1,13.7,30.41,South,173,2.0,4.0,50,0.00,,,0.00,VWS V14.01,2013-02-07 18:51:00,
2013-02-07 13:52:00,30.2,14.3,30.41,South,173,0.0,4.0,51,0.00,,,0.00,VWS V14.01,2013-02-07 18:52:00,
2013-02-07 13:53:00,30.1,14.6,30.41,South,170,4.0,5.0,52,0.00,,,0.00,VWS V14.01,2013-02-07 18:53:00,
2013-02-07 13:54:00,30.1,14.6,30.41,SSE,168,3.0,5.0,52,0.00,,,0.00,VWS V14.01,2013-02-07 18:54:00,
2013-02-07 13:55:00,30.1,14.6,30.41,East,96,2.0,5.0,52,0.00,,,0.00,VWS V14.01,2013-02-07 18:55:00,
2013-02-07 13:56:00,30.1,14.6,30.41,East,96,1.0,5.0,52,0.00,,,0.00,VWS V14.01,2013-02-07 18:56:00,
2013-02-07 13:57:00,30.1,14.2,30.41,NE,55,1.0,5.0,51,0.00,,,0.00,VWS V14.01,2013-02-07 18:57:00,
2013-02-07 13:58:00,30.1,14.2,30.41,ENE,68,2.0,5.0,51,0.00,,,0.00,VWS V14.01,2013-02-07 18:58:00,
2013-02-07 13:59:00,30.0,14.1,30.41,ESE,102,4.0,5.0,51,0.00,,,0.00,VWS V14.01,2013-02-07 18:59:00,
2013-02-07 14:00:00,29.9,14.0,30.41,SE,142,2.0,5.0,51,0.00,,,0.00,VWS V14.01,2013-02-07 19:00:00,
2013-02-07 14:01:00,29.9,14.4,30.41,East,95,2.0,3.0,52,0.00,,,0.00,VWS V14.01,2013-02-07 19:01:00,
2013-02-07 14:02:00,29.9,14.4,30.41,East,88,0.0,3.0,52,0.00,,,0.00,VWS V14.01,2013-02-07 19:02:00,
2013-02-07 14:03:00,29.8,14.3,30.41,East,96,3.0,3.0,52,0.00,,,0.00,VWS V14.01,2013-02-07 19:03:00,
2013-02-07 14:04:00,29.7,14.2,30.41,ESE,113,1.0,4.0,52,0.00,,,0.00,VWS V14.01,2013-02-07 19:04:00,
2013-02-07 14:05:00,29.7,14.2,30.41,SSE,163,5.0,5.0,52,0.00,,,0.00,VWS V14.01,2013-02-07 19:05:00,
2013-02-07 14:06:00,29.8,14.3,30.41,SSE,163,3.0,5.0,52,0.00,,,0.00,VWS V14.01,2013-02-07 19:06:00,
2013-02-07 14:07:00,29.8,14.3,30.41,SSE,161,2.0,6.0,52,0.00,,,0.00,VWS V14.01,2013-02-07 19:07:00,
2013-02-07 14:08:00,29.8,14.3,30.41,SSE,161,2.0,6.0,52,0.00,,,0.00,VWS V14.01,2013-02-07 19:08:00,
2013-02-07 14:09:00,29.7,14.2,30.41,SSE,161,5.0,6.0,52,0.00,,,0.00,VWS V14.01,2013-02-07 19:09:00,
2013-02-07 14:10:00,29.8,14.8,30.41,SSE,162,6.0,6.0,53,0.00,,,0.00,VWS V14.01,2013-02-07 19:10:00,
2013-02-07 14:11:00,29.7,14.7,30.41,SSE,162,1.0,6.0,53,0.00,,,0.00,VWS V14.01,2013-02-07 19:11:00,
2013-02-07 14:12:00,29.7,14.7,30.41,ESE,115,5.0,6.0,53,0.00,,,0.00,VWS V14.01,2013-02-07 19:12:00,
2013-02-07 14:13:00,29.7,14.7,30.41,ESE,117,0.0,6.0,53,0.00,,,0.00,VWS V14.01,2013-02-07 19:13:00,
2013-02-07 14:14:00,29.8,14.8,30.41,SE,126,2.0,6.0,53,0.00,,,0.00,VWS V14.01,2013-02-07 19:14:00,
2013-02-07 14:15:00,29.8,15.2,30.41,SE,128,2.0,6.0,54,0.00,,,0.00,VWS V14.01,2013-02-07 19:15:00,
2013-02-07 14:16:00,29.8,14.8,30.41,SE,128,1.0,6.0,53,0.00,,,0.00,VWS V14.01,2013-02-07 19:16:00,
2013-02-07 14:17:00,29.8,14.8,30.41,SE,140,4.0,6.0,53,0.00,,,0.00,VWS V14.01,2013-02-07 19:17:00,
2013-02-07 14:18:00,29.8,14.8,30.41,SE,142,3.0,6.0,53,0.00,,,0.00,VWS V14.01,2013-02-07 19:18:00,
2013-02-07 14:19:00,29.8,14.8,30.41,SE,142,0.0,6.0,53,0.00,,,0.00,VWS V14.01,2013-02-07 19:19:00,
2013-02-07 14:20:00,29.8,14.8,30.41,SE,142,2.0,6.0,53,0.00,,,0.00,VWS V14.01,2013-02-07 19:20:00,
2013-02-07 14:21:00,29.8,14.8,30.41,ESE,107,0.0,7.0,53,0.00,,,0.00,VWS V14.01,2013-02-07 19:21:00,
2013-02-07 14:22:00,29.8,14.3,30.41,ESE,107,2.0,7.0,52,0.00,,,0.00,VWS V14.01,2013-02-07 19:22:00,
2013-02-07 14:23:00,29.8,14.3,30.41,South,189,3.0,7.0,52,0.00,,,0.00,VWS V14.01,2013-02-07 19:23:00,
2013-02-07 14:24:00,29.8,14.8,30.41,South,177,3.0,7.0,53,0.00,,,0.00,VWS V14.01,2013-02-07 19:24:00,
2013-02-07 14:25:00,29.8,14.8,30.41,South,170,3.0,7.0,53,0.00,,,0.00,VWS V14.01,2013-02-07 19:25:00,
2013-02-07 14:26:00,29.8,14.3,30.41,SSE,154,6.0,7.0,52,0.00,,,0.00,VWS V14.01,2013-02-07 19:26:00,
2013-02-07 14:27:00,29.8,14.3,30.41,SSE,157,2.0,7.0,52,0.00,,,0.00,VWS V14.01,2013-02-07 19:27:00,
2013-02-07 14:28:00,29.8,14.3,30.41,SSE,157,0.0,7.0,52,0.00,,,0.00,VWS V14.01,2013-02-07 19:28:00,
2013-02-07 14:29:00,29.8,14.8,30.41,SSE,157,0.0,7.0,53,0.00,,,0.00,VWS V14.01,2013-02-07 19:29:00,
2013-02-07 14:30:00,29.8,14.8,30.41,ENE,71,2.0,7.0,53,0.00,,,0.00,VWS V14.01,2013-02-07 19:30:00,
2013-02-07 14:31:00,29.8,14.8,30.41,ENE,70,2.0,3.0,53,0.00,,,0.00,VWS V14.01,2013-02-07 19:31:00,
2013-02-07 14:32:00,29.8,14.8,30.41,ENE,71,3.0,3.0,53,0.00,,,0.00,VWS V14.01,2013-02-07 19:32:00,
2013-02-07 14:33:00,29.8,14.8,30.41,ENE,71,0.0,3.0,53,0.00,,,0.00,VWS V14.01,2013-02-07 19:33:00,
2013-02-07 14:34:00,29.7,15.1,30.41,ENE,71,0.0,3.0,54,0.00,,,0.00,VWS V14.01,2013-02-07 19:34:00,
2013-02-07 14:35:00,29.8,14.8,30.41,ENE,71,0.0,3.0,53,0.00,,,0.00,VWS V14.01,2013-02-07 19:35:00,
2013-02-07 14:36:00,29.8,15.2,30.41,ENE,71,0.0,3.0,54,0.00,,,0.00,VWS V14.01,2013-02-07 19:36:00,
2013-02-07 14:37:00,29.8,15.2,30.41,ENE,74,2.0,3.0,54,0.00,,,0.00,VWS V14.01,2013-02-07 19:37:00,
2013-02-07 14:38:00,29.8,15.2,30.41,ENE,74,1.0,3.0,54,0.00,,,0.00,VWS V14.01,2013-02-07 19:38:00,
2013-02-07 14:39:00,29.8,14.8,30.41,ENE,74,1.0,3.0,53,0.00,,,0.00,VWS V14.01,2013-02-07 19:39:00,
2013-02-07 14:40:00,29.8,14.8,30.41,ENE,74,1.0,3.0,53,0.00,,,0.00,VWS V14.01,2013-02-07 19:40:00,
2013-02-07 14:41:00,29.8,14.8,30.41,ENE,74,1.0,2.0,53,0.00,,,0.00,VWS V14.01,2013-02-07 19:41:00,
2013-02-07 14:42:00,29.8,14.8,30.41,ENE,69,1.0,2.0,53,0.00,,,0.00,VWS V14.01,2013-02-07 19:42:00,
2013-02-07 14:43:00,29.8,14.8,30.41,ENE,67,2.0,2.0,53,0.00,,,0.00,VWS V14.01,2013-02-07 19:43:00,
2013-02-07 14:44:00,29.8,14.8,30.41,ENE,67,0.0,2.0,53,0.00,,,0.00,VWS V14.01,2013-02-07 19:44:00,
2013-02-07 14:45:00,29.7,14.7,30.40,ENE,67,0.0,2.0,53,0.00,,,0.00,VWS V14.01,2013-02-07 19:45:00,
2013-02-07 14:46:00,29.8,14.8,30.40,ENE,67,3.0,3.0,53,0.00,,,0.00,VWS V14.01,2013-02-07 19:46:00,
2013-02-07 14:47:00,29.7,14.7,30.40,ENE,67,0.0,3.0,53,0.00,,,0.00,VWS V14.01,2013-02-07 19:47:00,
2013-02-07 14:48:00,29.7,14.7,30.40,ENE,67,0.0,3.0,53,0.00,,,0.00,VWS V14.01,2013-02-07 19:48:00,
2013-02-07 14:49:00,29.8,14.8,30.40,ENE,66,2.0,3.0,53,0.00,,,0.00,VWS V14.01,2013-02-07 19:49:00,
2013-02-07 14:50:00,29.8,15.2,30.40,ENE,65,3.0,4.0,54,0.00,,,0.00,VWS V14.01,2013-02-07 19:50:00,
2013-02-07 14:51:00,29.8,14.8,30.40,SW,226,3.0,3.0,53,0.00,,,0.00,VWS V14.01,2013-02-07 19:51:00,
2013-02-07 14:52:00,29.8,14.8,30.40,SSW,192,0.0,3.0,53,0.00,,,0.00,VWS V14.01,2013-02-07 19:52:00,
2013-02-07 14:53:00,29.8,14.8,30.40,ESE,110,2.0,3.0,53,0.00,,,0.00,VWS V14.01,2013-02-07 19:53:00,
2013-02-07 14:54:00,29.8,14.8,30.40,ESE,106,3.0,3.0,53,0.00,,,0.00,VWS V14.01,2013-02-07 19:54:00,
2013-02-07 14:55:00,29.8,14.8,30.40,ESE,105,0.0,3.0,53,0.00,,,0.00,VWS V14.01,2013-02-07 19:55:00,
2013-02-07 14:56:00,29.8,14.3,30.40,ESE,105,2.0,3.0,52,0.00,,,0.00,VWS V14.01,2013-02-07 19:56:00,
2013-02-07 14:57:00,29.8,14.3,30.40,ESE,105,1.0,3.0,52,0.00,,,0.00,VWS V14.01,2013-02-07 19:57:00,
2013-02-07 14:58:00,29.8,14.3,30.40,ESE,105,1.0,3.0,52,0.00,,,0.00,VWS V14.01,2013-02-07 19:58:00,
2013-02-07 14:59:00,29.8,14.8,30.40,NE,48,3.0,3.0,53,0.00,,,0.00,VWS V14.01,2013-02-07 19:59:00,
2013-02-07 15:00:00,29.8,14.8,30.40,NE,50,2.0,4.0,53,0.00,,,0.00,VWS V14.01,2013-02-07 20:00:00,
2013-02-07 15:01:00,29.8,14.3,30.40,ENE,59,2.0,4.0,52,0.00,,,0.00,VWS V14.01,2013-02-07 20:01:00,
2013-02-07 15:02:00,29.8,14.3,30.40,ENE,61,1.0,4.0,52,0.00,,,0.00,VWS V14.01,2013-02-07 20:02:00,
2013-02-07 15:03:00,29.7,14.2,30.40,ENE,61,1.0,4.0,52,0.00,,,0.00,VWS V14.01,2013-02-07 20:03:00,
2013-02-07 15:04:00,29.7,14.7,30.40,ENE,77,1.0,4.0,53,0.00,,,0.00,VWS V14.01,2013-02-07 20:04:00,
2013-02-07 15:05:00,29.7,14.7,30.40,SSE,155,5.0,6.0,53,0.00,,,0.00,VWS V14.01,2013-02-07 20:05:00,
2013-02-07 15:06:00,29.7,14.7,30.40,SSE,153,2.0,6.0,53,0.00,,,0.00,VWS V14.01,2013-02-07 20:06:00,
2013-02-07 15:07:00,29.7,14.7,30.40,East,82,2.0,6.0,53,0.00,,,0.00,VWS V14.01,2013-02-07 20:07:00,
2013-02-07 15:08:00,29.7,14.7,30.40,SE,144,2.0,6.0,53,0.00,,,0.00,VWS V14.01,2013-02-07 20:08:00,
2013-02-07 15:09:00,29.8,14.8,30.40,ENE,71,2.0,6.0,53,0.00,,,0.00,VWS V14.01,2013-02-07 20:09:00,
2013-02-07 15:10:00,29.8,15.2,30.40,SSE,148,2.0,6.0,54,0.00,,,0.00,VWS V14.01,2013-02-07 20:10:00,
2013-02-07 15:11:00,29.8,14.8,30.40,SSE,157,0.0,3.0,53,0.00,,,0.00,VWS V14.01,2013-02-07 20:11:00,
2013-02-07 15:12:00,29.8,14.8,30.40,SSE,150,3.0,3.0,53,0.00,,,0.00,VWS V14.01,2013-02-07 20:12:00,
2013-02-07 15:13:00,29.8,14.8,30.40,ESE,111,1.0,3.0,53,0.00,,,0.00,VWS V14.01,2013-02-07 20:13:00,
2013-02-07 15:14:00,29.8,14.8,30.40,ENE,70,3.0,4.0,53,0.00,,,0.00,VWS V14.01,2013-02-07 20:14:00,
2013-02-07 15:15:00,29.7,14.2,30.39,ENE,71,1.0,4.0,52,0.00,,,0.00,VWS V14.01,2013-02-07 20:15:00,
2013-02-07 15:16:00,29.7,14.2,30.39,East,82,3.0,6.0,52,0.00,,,0.00,VWS V14.01,2013-02-07 20:16:00,
2013-02-07 15:17:00,29.7,14.2,30.39,East,79,2.0,6.0,52,0.00,,,0.00,VWS V14.01,2013-02-07 20:17:00,
2013-02-07 15:18:00,29.6,14.1,30.39,ENE,61,3.0,6.0,52,0.00,,,0.00,VWS V14.01,2013-02-07 20:18:00,
2013-02-07 15:19:00,29.6,14.1,30.39,ENE,74,0.0,6.0,52,0.00,,,0.00,VWS V14.01,2013-02-07 20:19:00,
2013-02-07 15:20:00,29.6,14.6,30.39,East,79,2.0,6.0,53,0.00,,,0.00,VWS V14.01,2013-02-07 20:20:00,
2013-02-07 15:21:00,29.5,14.5,30.39,SSW,210,3.0,4.0,53,0.00,,,0.00,VWS V14.01,2013-02-07 20:21:00,
2013-02-07 15:22:00,29.5,14.5,30.39,SSE,157,1.0,4.0,53,0.00,,,0.00,VWS V14.01,2013-02-07 20:22:00,
2013-02-07 15:23:00,29.5,14.1,30.39,SSE,157,0.0,4.0,52,0.00,,,0.00,VWS V14.01,2013-02-07 20:23:00,
2013-02-07 15:24:00,29.5,14.5,30.39,SSE,149,1.0,4.0,53,0.00,,,0.00,VWS V14.01,2013-02-07 20:24:00,
2013-02-07 15:25:00,29.6,15.0,30.39,SSE,149,0.0,4.0,54,0.00,,,0.00,VWS V14.01,2013-02-07 20:25:00,
2013-02-07 15:26:00,29.6,14.6,30.39,SSE,149,3.0,4.0,53,0.00,,,0.00,VWS V14.01,2013-02-07 20:26:00,
2013-02-07 15:27:00,29.6,14.6,30.39,SSE,149,1.0,4.0,53,0.00,,,0.00,VWS V14.01,2013-02-07 20:27:00,
2013-02-07 15:28:00,29.6,14.6,30.39,SSE,150,3.0,5.0,53,0.00,,,0.00,VWS V14.01,2013-02-07 20:28:00,
2013-02-07 15:29:00,29.6,14.6,30.39,SSE,150,1.0,5.0,53,0.00,,,0.00,VWS V14.01,2013-02-07 20:29:00,
2013-02-07 15:30:00,29.6,14.6,30.39,SSE,150,0.0,5.0,53,0.00,,,0.00,VWS V14.01,2013-02-07 20:30:00,
2013-02-07 15:31:00,29.6,14.6,30.39,SSE,150,0.0,1.0,53,0.00,,,0.00,VWS V14.01,2013-02-07 20:31:00,
2013-02-07 15:32:00,29.7,15.1,30.39,ESE,122,3.0,3.0,54,0.00,,,0.00,VWS V14.01,2013-02-07 20:32:00,
2013-02-07 15:33:00,29.7,15.1,30.39,SE,146,7.0,7.0,54,0.00,,,0.00,VWS V14.01,2013-02-07 20:33:00,
2013-02-07 15:34:00,29.7,15.1,30.39,ESE,110,3.0,7.0,54,0.00,,,0.00,VWS V14.01,2013-02-07 20:34:00,
2013-02-07 15:35:00,29.6,14.6,30.39,ESE,109,3.0,7.0,53,0.00,,,0.00,VWS V14.01,2013-02-07 20:35:00,
2013-02-07 15:36:00,29.6,14.1,30.39,SE,146,6.0,8.0,52,0.00,,,0.00,VWS V14.01,2013-02-07 20:36:00,
2013-02-07 15:37:00,29.6,14.1,30.39,SE,139,4.0,8.0,52,0.00,,,0.00,VWS V14.01,2013-02-07 20:37:00,
2013-02-07 15:38:00,29.6,14.1,30.39,SE,134,4.0,8.0,52,0.00,,,0.00,VWS V14.01,2013-02-07 20:38:00,
2013-02-07 15:39:00,29.6,14.1,30.39,NE,56,4.0,8.0,52,0.00,,,0.00,VWS V14.01,2013-02-07 20:39:00,
2013-02-07 15:40:00,29.5,14.1,30.39,ENE,72,4.0,8.0,52,0.00,,,0.00,VWS V14.01,2013-02-07 20:40:00,
2013-02-07 15:41:00,29.5,14.1,30.39,ENE,74,2.0,4.0,52,0.00,,,0.00,VWS V14.01,2013-02-07 20:41:00,
2013-02-07 15:42:00,29.5,14.5,30.39,ESE,111,2.0,5.0,53,0.00,,,0.00,VWS V14.01,2013-02-07 20:42:00,
2013-02-07 15:43:00,29.4,14.0,30.39,ESE,102,1.0,5.0,52,0.00,,,0.00,VWS V14.01,2013-02-07 20:43:00,
2013-02-07 15:44:00,29.4,14.4,30.39,SE,139,2.0,5.0,53,0.00,,,0.00,VWS V14.01,2013-02-07 20:44:00,
2013-02-07 15:45:00,29.4,14.4,30.39,NE,51,1.0,5.0,53,0.00,,,0.00,VWS V14.01,2013-02-07 20:45:00,
2013-02-07 15:46:00,29.4,14.8,30.39,ESE,118,0.0,5.0,54,0.00,,,0.00,VWS V14.01,2013-02-07 20:46:00,
2013-02-07 15:47:00,29.3,14.7,30.39,SSE,155,8.0,8.0,54,0.00,,,0.00,VWS V14.01,2013-02-07 20:47:00,
2013-02-07 15:48:00,29.3,14.3,30.39,SSE,155,0.0,8.0,53,0.00,,,0.00,VWS V14.01,2013-02-07 20:48:00,
2013-02-07 15:49:00,29.3,14.3,30.39,SSE,155,3.0,8.0,53,0.00,,,0.00,VWS V14.01,2013-02-07 20:49:00,
2013-02-07 15:50:00,29.3,14.3,30.39,ESE,123,2.0,8.0,53,0.00,,,0.00,VWS V14.01,2013-02-07 20:50:00,
2013-02-07 15:51:00,29.3,14.3,30.39,ESE,123,0.0,2.0,53,0.00,,,0.00,VWS V14.01,2013-02-07 20:51:00,
2013-02-07 15:52:00,29.3,14.3,30.39,East,88,5.0,5.0,53,0.00,,,0.00,VWS V14.01,2013-02-07 20:52:00,
2013-02-07 15:53:00,29.3,14.7,30.39,South,169,3.0,5.0,54,0.00,,,0.00,VWS V14.01,2013-02-07 20:53:00,
2013-02-07 15:54:00,29.3,14.7,30.39,East,94,2.0,5.0,54,0.00,,,0.00,VWS V14.01,2013-02-07 20:54:00,
2013-02-07 15:55:00,29.3,14.7,30.39,ESE,117,1.0,5.0,54,0.00,,,0.00,VWS V14.01,2013-02-07 20:55:00,
2013-02-07 15:56:00,29.3,14.7,30.39,SE,124,1.0,5.0,54,0.00,,,0.00,VWS V14.01,2013-02-07 20:56:00,
2013-02-07 15:57:00,29.3,14.7,30.39,SE,139,7.0,7.0,54,0.00,,,0.00,VWS V14.01,2013-02-07 20:57:00,
2013-02-07 15:58:00,29.3,14.7,30.39,SSE,167,4.0,7.0,54,0.00,,,0.00,VWS V14.01,2013-02-07 20:58:00,
2013-02-07 15:59:00,29.3,14.7,30.39,SE,139,3.0,9.0,54,0.00,,,0.00,VWS V14.01,2013-02-07 20:59:00,
2013-02-07 16:00:00,29.3,14.3,30.38,South,184,2.0,9.0,53,0.00,,,0.00,VWS V14.01,2013-02-07 21:00:00,
2013-02-07 16:01:00,29.3,14.3,30.38,SE,141,3.0,4.0,53,0.00,,,0.00,VWS V14.01,2013-02-07 21:01:00,
2013-02-07 16:02:00,29.3,14.7,30.38,SE,145,0.0,4.0,54,0.00,,,0.00,VWS V14.01,2013-02-07 21:02:00,
2013-02-07 16:03:00,29.3,14.7,30.38,SSE,149,4.0,4.0,54,0.00,,,0.00,VWS V14.01,2013-02-07 21:03:00,
2013-02-07 16:04:00,29.3,15.1,30.38,SSW,202,5.0,10.0,55,0.00,,,0.00,VWS V14.01,2013-02-07 21:04:00,
2013-02-07 16:05:00,29.3,14.7,30.38,SSW,208,0.0,10.0,54,0.00,,,0.00,VWS V14.01,2013-02-07 21:05:00,
2013-02-07 16:06:00,29.2,14.6,30.38,SSW,206,2.0,10.0,54,0.00,,,0.00,VWS V14.01,2013-02-07 21:06:00,
2013-02-07 16:07:00,29.2,14.6,30.38,East,82,1.0,10.0,54,0.00,,,0.00,VWS V14.01,2013-02-07 21:07:00,
2013-02-07 16:08:00,29.2,14.2,30.38,ESE,108,0.0,10.0,53,0.00,,,0.00,VWS V14.01,2013-02-07 21:08:00,
2013-02-07 16:09:00,29.2,14.6,30.38,ENE,58,3.0,10.0,54,0.00,,,0.00,VWS V14.01,2013-02-07 21:09:00,
2013-02-07 16:10:00,29.2,14.6,30.38,ENE,57,2.0,10.0,54,0.00,,,0.00,VWS V14.01,2013-02-07 21:10:00,
2013-02-07 16:11:00,29.2,15.1,30.38,SE,132,2.0,4.0,55,0.00,,,0.00,VWS V14.01,2013-02-07 21:11:00,
2013-02-07 16:12:00,29.2,14.6,30.38,East,101,2.0,4.0,54,0.00,,,0.00,VWS V14.01,2013-02-07 21:12:00,
2013-02-07 16:13:00,29.1,14.5,30.38,ESE,102,0.0,4.0,54,0.00,,,0.00,VWS V14.01,2013-02-07 21:13:00,
2013-02-07 16:14:00,29.1,14.5,30.38,ESE,108,2.0,4.0,54,0.00,,,0.00,VWS V14.01,2013-02-07 21:14:00,
2013-02-07 16:15:00,29.1,14.5,30.38,ESE,102,3.0,4.0,54,0.00,,,0.00,VWS V14.01,2013-02-07 21:15:00,
2013-02-07 16:16:00,29.1,14.5,30.38,East,97,1.0,4.0,54,0.00,,,0.00,VWS V14.01,2013-02-07 21:16:00,
2013-02-07 16:17:00,29.1,15.0,30.38,East,87,0.0,4.0,55,0.00,,,0.00,VWS V14.01,2013-02-07 21:17:00,
2013-02-07 16:18:00,29.1,14.5,30.38,ESE,122,0.0,4.0,54,0.00,,,0.00,VWS V14.01,2013-02-07 21:18:00,
2013-02-07 16:19:00,29.1,14.5,30.38,WNW,296,4.0,4.0,54,0.00,,,0.00,VWS V14.01,2013-02-07 21:19:00,
2013-02-07 16:20:00,29.1,14.5,30.38,WNW,296,0.0,4.0,54,0.00,,,0.00,VWS V14.01,2013-02-07 21:20:00,
2013-02-07 16:21:00,29.0,14.4,30.38,SSW,209,3.0,3.0,54,0.00,,,0.00,VWS V14.01,2013-02-07 21:21:00,
2013-02-07 16:22:00,29.1,14.5,30.38,SE,144,4.0,4.0,54,0.00,,,0.00,VWS V14.01,2013-02-07 21:22:00,
2013-02-07 16:23:00,29.1,14.5,30.38,SE,125,1.0,7.0,54,0.00,,,0.00,VWS V14.01,2013-02-07 21:23:00,
2013-02-07 16:24:00,29.0,14.4,30.38,SE,134,3.0,7.0,54,0.00,,,0.00,VWS V14.01,2013-02-07 21:24:00,
2013-02-07 16:25:00,29.0,14.4,30.38,SE,146,2.0,7.0,54,0.00,,,0.00,VWS V14.01,2013-02-07 21:25:00,
2013-02-07 16:26:00,29.0,14.9,30.38,SE,144,0.0,7.0,55,0.00,,,0.00,VWS V14.01,2013-02-07 21:26:00,
2013-02-07 16:27:00,29.0,14.9,30.38,South,169,3.0,7.0,55,0.00,,,0.00,VWS V14.01,2013-02-07 21:27:00,
2013-02-07 16:28:00,29.0,14.9,30.38,East,96,0.0,7.0,55,0.00,,,0.00,VWS V14.01,2013-02-07 21:28:00,
2013-02-07 16:29:00,29.0,14.4,30.38,ESE,102,0.0,7.0,54,0.00,,,0.00,VWS V14.01,2013-02-07 21:29:00,
2013-02-07 16:30:00,29.0,14.4,30.38,East,101,0.0,7.0,54,0.00,,,0.00,VWS V14.01,2013-02-07 21:30:00,
2013-02-07 16:31:00,29.0,14.9,30.38,East,101,0.0,0.0,55,0.00,,,0.00,VWS V14.01,2013-02-07 21:31:00,
2013-02-07 16:32:00,29.0,14.9,30.38,ESE,102,2.0,3.0,55,0.00,,,0.00,VWS V14.01,2013-02-07 21:32:00,
2013-02-07 16:33:00,28.9,14.8,30.38,ESE,117,5.0,5.0,55,0.00,,,0.00,VWS V14.01,2013-02-07 21:33:00,
2013-02-07 16:34:00,28.9,14.8,30.38,East,86,0.0,5.0,55,0.00,,,0.00,VWS V14.01,2013-02-07 21:34:00,
2013-02-07 16:35:00,28.9,14.4,30.38,East,86,0.0,5.0,54,0.00,,,0.00,VWS V14.01,2013-02-07 21:35:00,
2013-02-07 16:36:00,28.9,14.4,30.38,East,86,0.0,5.0,54,0.00,,,0.00,VWS V14.01,2013-02-07 21:36:00,
2013-02-07 16:37:00,28.9,14.4,30.38,East,94,3.0,5.0,54,0.00,,,0.00,VWS V14.01,2013-02-07 21:37:00,
2013-02-07 16:38:00,28.9,14.4,30.38,SE,138,6.0,6.0,54,0.00,,,0.00,VWS V14.01,2013-02-07 21:38:00,
2013-02-07 16:39:00,28.9,14.4,30.38,SSE,153,2.0,6.0,54,0.00,,,0.00,VWS V14.01,2013-02-07 21:39:00,
2013-02-07 16:40:00,28.9,14.4,30.38,SSE,153,0.0,6.0,54,0.00,,,0.00,VWS V14.01,2013-02-07 21:40:00,
2013-02-07 16:41:00,28.8,14.3,30.38,SSE,153,0.0,0.0,54,0.00,,,0.00,VWS V14.01,2013-02-07 21:41:00,
2013-02-07 16:42:00,28.8,14.7,30.38,SSE,153,0.0,1.0,55,0.00,,,0.00,VWS V14.01,2013-02-07 21:42:00,
2013-02-07 16:43:00,28.8,14.3,30.38,SE,130,10.0,10.0,54,0.00,,,0.00,VWS V14.01,2013-02-07 21:43:00,
2013-02-07 16:44:00,28.8,14.3,30.38,South,172,3.0,10.0,54,0.00,,,0.00,VWS V14.01,2013-02-07 21:44:00,
2013-02-07 16:45:00,28.8,14.3,30.38,South,171,0.0,10.0,54,0.00,,,0.00,VWS V14.01,2013-02-07 21:45:00,
2013-02-07 16:46:00,28.8,14.3,30.38,South,171,2.0,10.0,54,0.00,,,0.00,VWS V14.01,2013-02-07 21:46:00,
2013-02-07 16:47:00,28.7,14.2,30.38,East,100,3.0,10.0,54,0.00,,,0.00,VWS V14.01,2013-02-07 21:47:00,
2013-02-07 16:48:00,28.7,14.2,30.38,SE,129,1.0,10.0,54,0.00,,,0.00,VWS V14.01,2013-02-07 21:48:00,
2013-02-07 16:49:00,28.7,14.2,30.38,East,95,3.0,10.0,54,0.00,,,0.00,VWS V14.01,2013-02-07 21:49:00,
2013-02-07 16:50:00,28.6,14.1,30.38,ESE,109,1.0,10.0,54,0.00,,,0.00,VWS V14.01,2013-02-07 21:50:00,
2013-02-07 16:51:00,28.6,14.1,30.38,SE,138,0.0,1.0,54,0.00,,,0.00,VWS V14.01,2013-02-07 21:51:00,
2013-02-07 16:52:00,28.6,14.1,30.38,SE,138,0.0,1.0,54,0.00,,,0.00,VWS V14.01,2013-02-07 21:52:00,
2013-02-07 16:53:00,28.5,14.4,30.38,SE,138,1.0,1.0,55,0.00,,,0.00,VWS V14.01,2013-02-07 21:53:00,
2013-02-07 16:54:00,28.6,14.5,30.38,SSE,151,5.0,7.0,55,0.00,,,0.00,VWS V14.01,2013-02-07 21:54:00,
2013-02-07 16:55:00,28.5,14.4,30.38,SE,143,1.0,7.0,55,0.00,,,0.00,VWS V14.01,2013-02-07 21:55:00,
2013-02-07 16:56:00,28.5,14.0,30.38,SE,142,2.0,7.0,54,0.00,,,0.00,VWS V14.01,2013-02-07 21:56:00,
2013-02-07 16:57:00,28.5,14.0,30.38,ENE,69,3.0,7.0,54,0.00,,,0.00,VWS V14.01,2013-02-07 21:57:00,
2013-02-07 16:58:00,28.5,14.4,30.38,SSE,166,0.0,7.0,55,0.00,,,0.00,VWS V14.01,2013-02-07 21:58:00,
2013-02-07 16:59:00,28.5,14.4,30.38,SSE,165,1.0,7.0,55,0.00,,,0.00,VWS V14.01,2013-02-07 21:59:00,
2013-02-07 17:00:00,28.4,14.3,30.38,SSE,165,0.0,7.0,55,0.00,,,0.00,VWS V14.01,2013-02-07 22:00:00,
2013-02-07 17:01:00,28.4,14.3,30.38,SSE,165,1.0,1.0,55,0.00,,,0.00,VWS V14.01,2013-02-07 22:01:00,
2013-02-07 17:02:00,28.4,14.3,30.38,SSE,165,0.0,1.0,55,0.00,,,0.00,VWS V14.01,2013-02-07 22:02:00,
2013-02-07 17:03:00,28.3,14.2,30.38,SSE,165,0.0,3.0,55,0.00,,,0.00,VWS V14.01,2013-02-07 22:03:00,
2013-02-07 17:04:00,28.3,14.2,30.38,SSE,165,0.0,3.0,55,0.00,,,0.00,VWS V14.01,2013-02-07 22:04:00,
2013-02-07 17:05:00,28.3,14.2,30.38,SSE,164,1.0,3.0,55,0.00,,,0.00,VWS V14.01,2013-02-07 22:05:00,
2013-02-07 17:06:00,28.3,14.6,30.38,SSE,159,1.0,3.0,56,0.00,,,0.00,VWS V14.01,2013-02-07 22:06:00,
2013-02-07 17:07:00,28.3,14.6,30.38,SSE,159,0.0,3.0,56,0.00,,,0.00,VWS V14.01,2013-02-07 22:07:00,
2013-02-07 17:08:00,28.3,14.6,30.38,SSE,159,0.0,3.0,56,0.00,,,0.00,VWS V14.01,2013-02-07 22:08:00,
2013-02-07 17:09:00,28.2,14.5,30.38,SSE,159,0.0,3.0,56,0.00,,,0.00,VWS V14.01,2013-02-07 22:09:00,
2013-02-07 17:10:00,28.2,14.5,30.38,SSE,159,0.0,3.0,56,0.00,,,0.00,VWS V14.01,2013-02-07 22:10:00,
2013-02-07 17:11:00,28.2,14.5,30.38,SSE,159,0.0,2.0,56,0.00,,,0.00,VWS V14.01,2013-02-07 22:11:00,
2013-02-07 17:12:00,28.2,14.1,30.38,East,98,0.0,2.0,55,0.00,,,0.00,VWS V14.01,2013-02-07 22:12:00,
2013-02-07 17:13:00,28.2,14.1,30.38,SE,129,3.0,5.0,55,0.00,,,0.00,VWS V14.01,2013-02-07 22:13:00,
2013-02-07 17:14:00,28.1,14.0,30.38,SE,139,4.0,7.0,55,0.00,,,0.00,VWS V14.01,2013-02-07 22:14:00,
2013-02-07 17:15:00,28.2,14.1,30.38,SE,139,0.0,7.0,55,0.00,,,0.00,VWS V14.01,2013-02-07 22:15:00,
2013-02-07 17:16:00,28.1,14.0,30.38,SE,136,1.0,7.0,55,0.00,,,0.00,VWS V14.01,2013-02-07 22:16:00,
2013-02-07 17:17:00,28.1,14.4,30.38,East,93,1.0,7.0,56,0.00,,,0.00,VWS V14.01,2013-02-07 22:17:00,
2013-02-07 17:18:00,28.1,14.0,30.38,East,93,0.0,7.0,55,0.00,,,0.00,VWS V14.01,2013-02-07 22:18:00,
2013-02-07 17:19:00,28.1,14.4,30.38,East,94,0.0,7.0,56,0.00,,,0.00,VWS V14.01,2013-02-07 22:19:00,
2013-02-07 17:20:00,28.1,14.4,30.38,East,93,2.0,7.0,56,0.00,,,0.00,VWS V14.01,2013-02-07 22:20:00,
2013-02-07 17:21:00,28.1,14.4,30.38,East,93,2.0,3.0,56,0.00,,,0.00,VWS V14.01,2013-02-07 22:21:00,
2013-02-07 17:22:00,28.0,14.3,30.38,East,94,0.0,3.0,56,0.00,,,0.00,VWS V14.01,2013-02-07 22:22:00,
2013-02-07 17:23:00,28.0,14.3,30.38,East,94,1.0,3.0,56,0.00,,,0.00,VWS V14.01,2013-02-07 22:23:00,
2013-02-07 17:24:00,28.0,14.3,30.38,East,100,2.0,3.0,56,0.00,,,0.00,VWS V14.01,2013-02-07 22:24:00,
2013-02-07 17:25:00,28.0,14.3,30.38,East,100,1.0,3.0,56,0.00,,,0.00,VWS V14.01,2013-02-07 22:25:00,
2013-02-07 17:26:00,28.0,14.3,30.38,NE,49,0.0,4.0,56,0.00,,,0.00,VWS V14.01,2013-02-07 22:26:00,
2013-02-07 17:27:00,28.0,14.3,30.38,NE,51,0.0,4.0,56,0.00,,,0.00,VWS V14.01,2013-02-07 22:27:00,
2013-02-07 17:28:00,28.0,14.3,30.38,NE,52,0.0,4.0,56,0.00,,,0.00,VWS V14.01,2013-02-07 22:28:00,
2013-02-07 17:29:00,27.9,14.2,30.38,East,93,0.0,4.0,56,0.00,,,0.00,VWS V14.01,2013-02-07 22:29:00,
2013-02-07 17:30:00,27.9,14.6,30.38,East,93,0.0,4.0,57,0.00,,,0.00,VWS V14.01,2013-02-07 22:30:00,
2013-02-07 17:31:00,27.9,14.6,30.38,East,94,0.0,0.0,57,0.00,,,0.00,VWS V14.01,2013-02-07 22:31:00,
2013-02-07 17:32:00,27.9,14.2,30.38,East,98,2.0,3.0,56,0.00,,,0.00,VWS V14.01,2013-02-07 22:32:00,
2013-02-07 17:33:00,27.9,14.2,30.38,SSW,200,1.0,3.0,56,0.00,,,0.00,VWS V14.01,2013-02-07 22:33:00,
2013-02-07 17:34:00,27.9,14.2,30.38,SE,145,3.0,3.0,56,0.00,,,0.00,VWS V14.01,2013-02-07 22:34:00,
2013-02-07 17:35:00,27.9,14.2,30.38,SSE,158,0.0,4.0,56,0.00,,,0.00,VWS V14.01,2013-02-07 22:35:00,
2013-02-07 17:36:00,27.9,14.2,30.38,South,187,3.0,5.0,56,0.00,,,0.00,VWS V14.01,2013-02-07 22:36:00,
2013-02-07 17:37:00,27.9,14.2,30.38,NE,34,0.0,5.0,56,0.00,,,0.00,VWS V14.01,2013-02-07 22:37:00,
2013-02-07 17:38:00,27.9,14.2,30.38,NE,34,0.0,5.0,56,0.00,,,0.00,VWS V14.01,2013-02-07 22:38:00,
2013-02-07 17:39:00,27.8,14.2,30.38,NE,34,0.0,5.0,56,0.00,,,0.00,VWS V14.01,2013-02-07 22:39:00,
2013-02-07 17:40:00,27.8,14.2,30.38,NE,34,0.0,5.0,56,0.00,,,0.00,VWS V14.01,2013-02-07 22:40:00,
2013-02-07 17:41:00,27.8,14.2,30.38,NNE,33,0.0,3.0,56,0.00,,,0.00,VWS V14.01,2013-02-07 22:41:00,
2013-02-07 17:42:00,27.8,14.6,30.38,NNE,33,0.0,3.0,57,0.00,,,0.00,VWS V14.01,2013-02-07 22:42:00,
2013-02-07 17:43:00,27.8,14.6,30.38,NE,34,0.0,3.0,57,0.00,,,0.00,VWS V14.01,2013-02-07 22:43:00,
2013-02-07 17:44:00,27.8,14.6,30.38,NE,34,0.0,3.0,57,0.00,,,0.00,VWS V14.01,2013-02-07 22:44:00,
2013-02-07 17:45:00,27.8,14.6,30.38,NE,34,1.0,3.0,57,0.00,,,0.00,VWS V14.01,2013-02-07 22:45:00,
2013-02-07 17:46:00,27.8,14.6,30.38,NE,34,0.0,3.0,57,0.00,,,0.00,VWS V14.01,2013-02-07 22:46:00,
2013-02-07 17:47:00,27.8,14.6,30.38,NE,42,2.0,3.0,57,0.00,,,0.00,VWS V14.01,2013-02-07 22:47:00,
2013-02-07 17:48:00,27.8,14.6,30.38,NE,43,0.0,3.0,57,0.00,,,0.00,VWS V14.01,2013-02-07 22:48:00,
2013-02-07 17:49:00,27.8,14.6,30.38,NE,43,1.0,3.0,57,0.00,,,0.00,VWS V14.01,2013-02-07 22:49:00,
2013-02-07 17:50:00,27.7,14.5,30.38,NE,43,0.0,3.0,57,0.00,,,0.00,VWS V14.01,2013-02-07 22:50:00,
2013-02-07 17:51:00,27.8,14.6,30.38,NE,43,1.0,1.0,57,0.00,,,0.00,VWS V14.01,2013-02-07 22:51:00,
2013-02-07 17:52:00,27.7,14.5,30.38,NE,44,0.0,2.0,57,0.00,,,0.00,VWS V14.01,2013-02-07 22:52:00,
2013-02-07 17:53:00,27.7,14.5,30.38,NE,44,0.0,2.0,57,0.00,,,0.00,VWS V14.01,2013-02-07 22:53:00,
2013-02-07 17:54:00,27.7,14.5,30.38,NE,44,0.0,2.0,57,0.00,,,0.00,VWS V14.01,2013-02-07 22:54:00,
2013-02-07 17:55:00,27.7,14.5,30.38,NE,44,1.0,2.0,57,0.00,,,0.00,VWS V14.01,2013-02-07 22:55:00,
2013-02-07 17:56:00,27.7,14.5,30.38,NE,44,0.0,2.0,57,0.00,,,0.00,VWS V14.01,2013-02-07 22:56:00,
2013-02-07 17:57:00,27.7,14.5,30.38,NE,44,1.0,2.0,57,0.00,,,0.00,VWS V14.01,2013-02-07 22:57:00,
2013-02-07 17:58:00,27.7,14.5,30.38,SE,144,4.0,4.0,57,0.00,,,0.00,VWS V14.01,2013-02-07 22:58:00,
2013-02-07 17:59:00,27.7,14.5,30.38,South,172,1.0,4.0,57,0.00,,,0.00,VWS V14.01,2013-02-07 22:59:00,
2013-02-07 18:00:00,27.7,14.5,30.38,South,172,0.0,4.0,57,0.00,,,0.00,VWS V14.01,2013-02-07 23:00:00,
2013-02-07 18:01:00,27.7,14.9,30.38,South,171,0.0,0.0,58,0.00,,,0.00,VWS V14.01,2013-02-07 23:01:00,
2013-02-07 18:02:00,27.6,14.4,30.38,South,171,0.0,0.0,57,0.00,,,0.00,VWS V14.01,2013-02-07 23:02:00,
2013-02-07 18:03:00,27.6,14.4,30.38,SE,132,0.0,2.0,57,0.00,,,0.00,VWS V14.01,2013-02-07 23:03:00,
2013-02-07 18:04:00,27.6,14.4,30.38,SE,132,1.0,2.0,57,0.00,,,0.00,VWS V14.01,2013-02-07 23:04:00,
2013-02-07 18:05:00,27.6,14.4,30.38,East,81,2.0,2.0,57,0.00,,,0.00,VWS V14.01,2013-02-07 23:05:00,
2013-02-07 18:06:00,27.6,14.4,30.38,East,79,2.0,4.0,57,0.00,,,0.00,VWS V14.01,2013-02-07 23:06:00,
2013-02-07 18:07:00,27.6,14.4,30.38,East,79,0.0,4.0,57,0.00,,,0.00,VWS V14.01,2013-02-07 23:07:00,
2013-02-07 18:08:00,27.6,14.4,30.38,ESE,103,3.0,4.0,57,0.00,,,0.00,VWS V14.01,2013-02-07 23:08:00,
2013-02-07 18:09:00,27.6,14.4,30.38,SE,130,1.0,4.0,57,0.00,,,0.00,VWS V14.01,2013-02-07 23:09:00,
2013-02-07 18:10:00,27.6,14.4,30.38,SE,130,1.0,4.0,57,0.00,,,0.00,VWS V14.01,2013-02-07 23:10:00,
2013-02-07 18:11:00,27.6,14.4,30.38,ESE,102,4.0,4.0,57,0.00,,,0.00,VWS V14.01,2013-02-07 23:11:00,
2013-02-07 18:12:00,27.6,14.4,30.38,SE,134,2.0,5.0,57,0.00,,,0.00,VWS V14.01,2013-02-07 23:12:00,
2013-02-07 18:13:00,27.5,14.3,30.38,SE,134,0.0,5.0,57,0.00,,,0.00,VWS V14.01,2013-02-07 23:13:00,
2013-02-07 18:14:00,27.5,14.3,30.38,SE,134,0.0,5.0,57,0.00,,,0.00,VWS V14.01,2013-02-07 23:14:00,
2013-02-07 18:15:00,27.5,14.3,30.39,SE,134,0.0,5.0,57,0.00,,,0.00,VWS V14.01,2013-02-07 23:15:00,
2013-02-07 18:16:00,27.5,14.3,30.39,SE,134,0.0,5.0,57,0.00,,,0.00,VWS V14.01,2013-02-07 23:16:00,
2013-02-07 18:17:00,27.5,14.3,30.39,SE,134,0.0,5.0,57,0.00,,,0.00,VWS V14.01,2013-02-07 23:17:00,
2013-02-07 18:18:00,27.5,14.3,30.39,SE,135,0.0,5.0,57,0.00,,,0.00,VWS V14.01,2013-02-07 23:18:00,
2013-02-07 18:19:00,27.5,14.3,30.39,SE,134,0.0,5.0,57,0.00,,,0.00,VWS V14.01,2013-02-07 23:19:00,
2013-02-07 18:20:00,27.5,14.3,30.39,SE,134,0.0,5.0,57,0.00,,,0.00,VWS V14.01,2013-02-07 23:20:00,
2013-02-07 18:21:00,27.5,14.3,30.39,East,101,0.0,2.0,57,0.00,,,0.00,VWS V14.01,2013-02-07 23:21:00,
2013-02-07 18:22:00,27.4,13.8,30.39,East,101,1.0,2.0,56,0.00,,,0.00,VWS V14.01,2013-02-07 23:22:00,
2013-02-07 18:23:00,27.4,14.2,30.39,East,101,0.0,2.0,57,0.00,,,0.00,VWS V14.01,2013-02-07 23:23:00,
2013-02-07 18:24:00,27.4,14.2,30.39,East,101,0.0,2.0,57,0.00,,,0.00,VWS V14.01,2013-02-07 23:24:00,
2013-02-07 18:25:00,27.4,14.2,30.39,East,101,0.0,2.0,57,0.00,,,0.00,VWS V14.01,2013-02-07 23:25:00,
2013-02-07 18:26:00,27.4,14.2,30.39,East,101,1.0,2.0,57,0.00,,,0.00,VWS V14.01,2013-02-07 23:26:00,
2013-02-07 18:27:00,27.4,14.2,30.39,East,101,0.0,2.0,57,0.00,,,0.00,VWS V14.01,2013-02-07 23:27:00,
2013-02-07 18:28:00,27.4,14.2,30.39,East,101,0.0,2.0,57,0.00,,,0.00,VWS V14.01,2013-02-07 23:28:00,
2013-02-07 18:29:00,27.4,14.2,30.39,East,101,0.0,2.0,57,0.00,,,0.00,VWS V14.01,2013-02-07 23:29:00,
2013-02-07 18:30:00,27.4,14.2,30.39,East,101,0.0,2.0,57,0.00,,,0.00,VWS V14.01,2013-02-07 23:30:00,
2013-02-07 18:31:00,27.4,14.2,30.39,East,101,0.0,1.0,57,0.00,,,0.00,VWS V14.01,2013-02-07 23:31:00,
2013-02-07 18:32:00,27.3,14.1,30.39,East,101,0.0,1.0,57,0.00,,,0.00,VWS V14.01,2013-02-07 23:32:00,
2013-02-07 18:33:00,27.3,14.1,30.39,East,101,0.0,1.0,57,0.00,,,0.00,VWS V14.01,2013-02-07 23:33:00,
2013-02-07 18:34:00,27.3,14.1,30.39,East,101,0.0,1.0,57,0.00,,,0.00,VWS V14.01,2013-02-07 23:34:00,
2013-02-07 18:35:00,27.3,14.1,30.39,ESE,108,0.0,2.0,57,0.00,,,0.00,VWS V14.01,2013-02-07 23:35:00,
2013-02-07 18:36:00,27.3,14.1,30.39,ESE,108,0.0,2.0,57,0.00,,,0.00,VWS V14.01,2013-02-07 23:36:00,
2013-02-07 18:37:00,27.2,14.4,30.39,ESE,108,0.0,2.0,58,0.00,,,0.00,VWS V14.01,2013-02-07 23:37:00,
2013-02-07 18:38:00,27.2,14.0,30.39,ESE,108,3.0,4.0,57,0.00,,,0.00,VWS V14.01,2013-02-07 23:38:00,
2013-02-07 18:39:00,27.2,14.4,30.39,ESE,111,0.0,4.0,58,0.00,,,0.00,VWS V14.01,2013-02-07 23:39:00,
2013-02-07 18:40:00,27.2,14.0,30.39,ESE,111,0.0,4.0,57,0.00,,,0.00,VWS V14.01,2013-02-07 23:40:00,
2013-02-07 18:41:00,27.2,14.0,30.39,ESE,111,0.0,0.0,57,0.00,,,0.00,VWS V14.01,2013-02-07 23:41:00,
2013-02-07 18:42:00,27.2,14.0,30.39,ESE,111,1.0,1.0,57,0.00,,,0.00,VWS V14.01,2013-02-07 23:42:00,
2013-02-07 18:43:00,27.2,14.0,30.39,ESE,111,0.0,1.0,57,0.00,,,0.00,VWS V14.01,2013-02-07 23:43:00,
2013-02-07 18:44:00,27.2,14.0,30.39,ESE,115,1.0,4.0,57,0.00,,,0.00,VWS V14.01,2013-02-07 23:44:00,
2013-02-07 18:45:00,27.1,13.9,30.40,SE,130,2.0,5.0,57,0.00,,,0.00,VWS V14.01,2013-02-07 23:45:00,
2013-02-07 18:46:00,27.1,13.9,30.40,SE,132,2.0,5.0,57,0.00,,,0.00,VWS V14.01,2013-02-07 23:46:00,
2013-02-07 18:47:00,27.1,13.9,30.40,SE,137,0.0,5.0,57,0.00,,,0.00,VWS V14.01,2013-02-07 23:47:00,
2013-02-07 18:48:00,27.1,13.9,30.40,SE,137,0.0,5.0,57,0.00,,,0.00,VWS V14.01,2013-02-07 23:48:00,
2013-02-07 18:49:00,27.1,13.9,30.40,SE,137,0.0,5.0,57,0.00,,,0.00,VWS V14.01,2013-02-07 23:49:00,
2013-02-07 18:50:00,27.1,13.9,30.40,SE,137,0.0,5.0,57,0.00,,,0.00,VWS V14.01,2013-02-07 23:50:00,
2013-02-07 18:51:00,27.1,13.9,30.40,SE,137,1.0,1.0,57,0.00,,,0.00,VWS V14.01,2013-02-07 23:51:00,
2013-02-07 18:52:00,27.0,13.8,30.40,SE,138,1.0,5.0,57,0.00,,,0.00,VWS V14.01,2013-02-07 23:52:00,
2013-02-07 18:53:00,27.0,13.8,30.40,SE,139,0.0,5.0,57,0.00,,,0.00,VWS V14.01,2013-02-07 23:53:00,
2013-02-07 18:54:00,27.0,13.8,30.40,SSE,150,0.0,5.0,57,0.00,,,0.00,VWS V14.01,2013-02-07 23:54:00,
2013-02-07 18:55:00,27.0,13.8,30.40,SSE,150,2.0,5.0,57,0.00,,,0.00,VWS V14.01,2013-02-07 23:55:00,
2013-02-07 18:56:00,27.0,13.8,30.40,SSE,150,2.0,5.0,57,0.00,,,0.00,VWS V14.01,2013-02-07 23:56:00,
2013-02-07 18:57:00,27.0,13.8,30.40,SSE,150,0.0,5.0,57,0.00,,,0.00,VWS V14.01,2013-02-07 23:57:00,
2013-02-07 18:58:00,27.0,13.8,30.40,SSE,150,0.0,5.0,57,0.00,,,0.00,VWS V14.01,2013-02-07 23:58:00,
2013-02-07 18:59:00,27.0,13.8,30.40,SSE,150,0.0,5.0,57,0.00,,,0.00,VWS V14.01,2013-02-07 23:59:00,
2013-02-07 19:00:00,27.0,13.8,30.40,SSE,150,0.0,5.0,57,0.00,,,0.00,VWS V14.01,2013-02-08 00:00:00,
2013-02-07 19:01:00,27.0,13.8,30.40,SSE,150,0.0,2.0,57,0.00,,,0.00,VWS V14.01,2013-02-08 00:01:00,
2013-02-07 19:02:00,26.9,13.7,30.40,SSE,150,0.0,2.0,57,0.00,,,0.00,VWS V14.01,2013-02-08 00:02:00,
2013-02-07 19:03:00,26.9,14.1,30.40,SSE,150,0.0,2.0,58,0.00,,,0.00,VWS V14.01,2013-02-08 00:03:00,
2013-02-07 19:04:00,26.9,14.1,30.40,SSE,150,0.0,2.0,58,0.00,,,0.00,VWS V14.01,2013-02-08 00:04:00,
2013-02-07 19:05:00,26.9,14.1,30.40,SSE,150,0.0,2.0,58,0.00,,,0.00,VWS V14.01,2013-02-08 00:05:00,
2013-02-07 19:06:00,26.9,14.1,30.40,SSE,150,0.0,2.0,58,0.00,,,0.00,VWS V14.01,2013-02-08 00:06:00,
2013-02-07 19:07:00,26.9,14.1,30.40,SSE,150,0.0,2.0,58,0.00,,,0.00,VWS V14.01,2013-02-08 00:07:00,
2013-02-07 19:08:00,26.9,14.1,30.40,SSE,150,0.0,2.0,58,0.00,,,0.00,VWS V14.01,2013-02-08 00:08:00,
2013-02-07 19:09:00,26.9,14.1,30.40,NW,326,0.0,2.0,58,0.00,,,0.00,VWS V14.01,2013-02-08 00:09:00,
2013-02-07 19:10:00,26.9,14.1,30.40,NW,326,0.0,2.0,58,0.00,,,0.00,VWS V14.01,2013-02-08 00:10:00,
2013-02-07 19:11:00,26.8,14.0,30.40,NNW,331,2.0,2.0,58,0.00,,,0.00,VWS V14.01,2013-02-08 00:11:00,
2013-02-07 19:12:00,26.8,14.0,30.40,East,97,0.0,2.0,58,0.00,,,0.00,VWS V14.01,2013-02-08 00:12:00,
2013-02-07 19:13:00,26.8,14.0,30.40,East,97,0.0,2.0,58,0.00,,,0.00,VWS V14.01,2013-02-08 00:13:00,
2013-02-07 19:14:00,26.8,14.0,30.40,East,97,0.0,2.0,58,0.00,,,0.00,VWS V14.01,2013-02-08 00:14:00,
2013-02-07 19:15:00,26.7,13.9,30.40,East,97,0.0,2.0,58,0.00,,,0.00,VWS V14.01,2013-02-08 00:15:00,
2013-02-07 19:16:00,26.7,13.9,30.40,East,98,2.0,2.0,58,0.00,,,0.00,VWS V14.01,2013-02-08 00:16:00,
2013-02-07 19:17:00,26.7,13.9,30.40,East,100,2.0,2.0,58,0.00,,,0.00,VWS V14.01,2013-02-08 00:17:00,
2013-02-07 19:18:00,26.7,13.9,30.40,East,100,0.0,2.0,58,0.00,,,0.00,VWS V14.01,2013-02-08 00:18:00,
2013-02-07 19:19:00,26.7,13.9,30.40,East,100,0.0,2.0,58,0.00,,,0.00,VWS V14.01,2013-02-08 00:19:00,
2013-02-07 19:20:00,26.7,13.9,30.40,East,100,1.0,2.0,58,0.00,,,0.00,VWS V14.01,2013-02-08 00:20:00,
2013-02-07 19:21:00,26.7,13.9,30.40,ESE,109,1.0,2.0,58,0.00,,,0.00,VWS V14.01,2013-02-08 00:21:00,
2013-02-07 19:22:00,26.7,13.9,30.40,ESE,109,0.0,2.0,58,0.00,,,0.00,VWS V14.01,2013-02-08 00:22:00,
2013-02-07 19:23:00,26.6,13.8,30.40,ESE,109,0.0,2.0,58,0.00,,,0.00,VWS V14.01,2013-02-08 00:23:00,
2013-02-07 19:24:00,26.6,13.8,30.40,ESE,109,0.0,2.0,58,0.00,,,0.00,VWS V14.01,2013-02-08 00:24:00,
2013-02-07 19:25:00,26.6,13.8,30.40,ESE,109,0.0,2.0,58,0.00,,,0.00,VWS V14.01,2013-02-08 00:25:00,
2013-02-07 19:26:00,26.6,13.8,30.40,ESE,109,0.0,2.0,58,0.00,,,0.00,VWS V14.01,2013-02-08 00:26:00,
2013-02-07 19:27:00,26.6,13.8,30.40,East,80,3.0,3.0,58,0.00,,,0.00,VWS V14.01,2013-02-08 00:27:00,
2013-02-07 19:28:00,26.5,13.7,30.40,ESE,116,4.0,5.0,58,0.00,,,0.00,VWS V14.01,2013-02-08 00:28:00,
2013-02-07 19:29:00,26.6,13.4,30.40,ESE,115,0.0,5.0,57,0.00,,,0.00,VWS V14.01,2013-02-08 00:29:00,
2013-02-07 19:30:00,26.6,13.4,30.40,NNE,24,1.0,5.0,57,0.00,,,0.00,VWS V14.01,2013-02-08 00:30:00,
2013-02-07 19:31:00,26.5,13.3,30.40,NNE,24,0.0,2.0,57,0.00,,,0.00,VWS V14.01,2013-02-08 00:31:00,
2013-02-07 19:32:00,26.5,13.7,30.40,NNE,24,0.0,2.0,58,0.00,,,0.00,VWS V14.01,2013-02-08 00:32:00,
2013-02-07 19:33:00,26.6,13.8,30.40,NNE,24,1.0,2.0,58,0.00,,,0.00,VWS V14.01,2013-02-08 00:33:00,
2013-02-07 19:34:00,26.5,13.7,30.40,NE,56,2.0,3.0,58,0.00,,,0.00,VWS V14.01,2013-02-08 00:34:00,
2013-02-07 19:35:00,26.5,13.7,30.40,NE,56,1.0,3.0,58,0.00,,,0.00,VWS V14.01,2013-02-08 00:35:00,
2013-02-07 19:36:00,26.5,13.3,30.40,East,85,0.0,4.0,57,0.00,,,0.00,VWS V14.01,2013-02-08 00:36:00,
2013-02-07 19:37:00,26.5,13.3,30.40,East,81,3.0,4.0,57,0.00,,,0.00,VWS V14.01,2013-02-08 00:37:00,
2013-02-07 19:38:00,26.5,13.3,30.40,ENE,72,3.0,4.0,57,0.00,,,0.00,VWS V14.01,2013-02-08 00:38:00,
2013-02-07 19:39:00,26.5,13.3,30.40,SSE,158,0.0,4.0,57,0.00,,,0.00,VWS V14.01,2013-02-08 00:39:00,
2013-02-07 19:40:00,26.5,13.3,30.40,SSE,158,0.0,4.0,57,0.00,,,0.00,VWS V14.01,2013-02-08 00:40:00,
2013-02-07 19:41:00,26.5,13.3,30.40,SE,134,1.0,2.0,57,0.00,,,0.00,VWS V14.01,2013-02-08 00:41:00,
2013-02-07 19:42:00,26.5,13.3,30.40,SE,124,1.0,2.0,57,0.00,,,0.00,VWS V14.01,2013-02-08 00:42:00,
2013-02-07 19:43:00,26.5,13.3,30.40,ENE,75,2.0,3.0,57,0.00,,,0.00,VWS V14.01,2013-02-08 00:43:00,
2013-02-07 19:44:00,26.5,13.3,30.40,ENE,75,0.0,3.0,57,0.00,,,0.00,VWS V14.01,2013-02-08 00:44:00,
2013-02-07 19:45:00,26.5,13.3,30.40,ENE,75,1.0,3.0,57,0.00,,,0.00,VWS V14.01,2013-02-08 00:45:00,
2013-02-07 19:46:00,26.5,13.3,30.40,ENE,75,3.0,3.0,57,0.00,,,0.00,VWS V14.01,2013-02-08 00:46:00,
2013-02-07 19:47:00,26.5,12.9,30.40,ENE,66,3.0,3.0,56,0.00,,,0.00,VWS V14.01,2013-02-08 00:47:00,
2013-02-07 19:48:00,26.5,12.9,30.40,NE,55,3.0,4.0,56,0.00,,,0.00,VWS V14.01,2013-02-08 00:48:00,
2013-02-07 19:49:00,26.5,13.3,30.40,NE,55,1.0,4.0,57,0.00,,,0.00,VWS V14.01,2013-02-08 00:49:00,
2013-02-07 19:50:00,26.5,13.3,30.40,NE,55,0.0,4.0,57,0.00,,,0.00,VWS V14.01,2013-02-08 00:50:00,
2013-02-07 19:51:00,26.5,13.3,30.40,ENE,61,0.0,2.0,57,0.00,,,0.00,VWS V14.01,2013-02-08 00:51:00,
2013-02-07 19:52:00,26.5,13.3,30.40,East,80,2.0,3.0,57,0.00,,,0.00,VWS V14.01,2013-02-08 00:52:00,
2013-02-07 19:53:00,26.5,13.3,30.40,NE,48,3.0,3.0,57,0.00,,,0.00,VWS V14.01,2013-02-08 00:53:00,
2013-02-07 19:54:00,26.5,12.9,30.40,ENE,65,2.0,6.0,56,0.00,,,0.00,VWS V14.01,2013-02-08 00:54:00,
2013-02-07 19:55:00,26.5,12.9,30.40,East,98,2.0,6.0,56,0.00,,,0.00,VWS V14.01,2013-02-08 00:55:00,
2013-02-07 19:56:00,26.5,12.9,30.40,ESE,112,1.0,6.0,56,0.00,,,0.00,VWS V14.01,2013-02-08 00:56:00,
2013-02-07 19:57:00,26.5,12.9,30.40,ESE,116,1.0,6.0,56,0.00,,,0.00,VWS V14.01,2013-02-08 00:57:00,
2013-02-07 19:58:00,26.5,12.9,30.40,ESE,116,0.0,6.0,56,0.00,,,0.00,VWS V14.01,2013-02-08 00:58:00,
2013-02-07 19:59:00,26.5,12.9,30.40,ESE,123,0.0,6.0,56,0.00,,,0.00,VWS V14.01,2013-02-08 00:59:00,
2013-02-07 20:00:00,26.5,12.9,30.39,SSE,167,0.0,6.0,56,0.00,,,0.00,VWS V14.01,2013-02-08 01:00:00,
2013-02-07 20:01:00,26.5,12.5,30.39,SSE,167,1.0,1.0,55,0.00,,,0.00,VWS V14.01,2013-02-08 01:01:00,
2013-02-07 20:02:00,26.5,12.9,30.39,SSE,167,0.0,1.0,56,0.00,,,0.00,VWS V14.01,2013-02-08 01:02:00,
2013-02-07 20:03:00,26.4,12.8,30.39,SSE,167,0.0,1.0,56,0.00,,,0.00,VWS V14.01,2013-02-08 01:03:00,
2013-02-07 20:04:00,26.4,12.8,30.39,SSE,167,1.0,1.0,56,0.00,,,0.00,VWS V14.01,2013-02-08 01:04:00,
2013-02-07 20:05:00,26.4,12.8,30.39,SSE,167,0.0,1.0,56,0.00,,,0.00,VWS V14.01,2013-02-08 01:05:00,
2013-02-07 20:06:00,26.4,12.8,30.39,SSE,167,0.0,1.0,56,0.00,,,0.00,VWS V14.01,2013-02-08 01:06:00,
2013-02-07 20:07:00,26.5,12.9,30.39,SSE,167,1.0,1.0,56,0.00,,,0.00,VWS V14.01,2013-02-08 01:07:00,
2013-02-07 20:08:00,26.4,12.8,30.39,SSE,164,2.0,2.0,56,0.00,,,0.00,VWS V14.01,2013-02-08 01:08:00,
2013-02-07 20:09:00,26.4,12.8,30.39,NE,38,2.0,2.0,56,0.00,,,0.00,VWS V14.01,2013-02-08 01:09:00,
2013-02-07 20:10:00,26.4,12.8,30.39,ENE,57,1.0,4.0,56,0.00,,,0.00,VWS V14.01,2013-02-08 01:10:00,
2013-02-07 20:11:00,26.4,12.4,30.39,ENE,57,2.0,2.0,55,0.00,,,0.00,VWS V14.01,2013-02-08 01:11:00,
2013-02-07 20:12:00,26.4,12.4,30.39,ENE,57,0.0,2.0,55,0.00,,,0.00,VWS V14.01,2013-02-08 01:12:00,
2013-02-07 20:13:00,26.4,12.8,30.39,ENE,57,0.0,2.0,56,0.00,,,0.00,VWS V14.01,2013-02-08 01:13:00,
2013-02-07 20:14:00,26.4,12.8,30.39,ENE,57,1.0,2.0,56,0.00,,,0.00,VWS V14.01,2013-02-08 01:14:00,
2013-02-07 20:15:00,26.4,13.2,30.39,NE,56,2.0,3.0,57,0.00,,,0.00,VWS V14.01,2013-02-08 01:15:00,
2013-02-07 20:16:00,26.4,12.8,30.39,NE,56,1.0,3.0,56,0.00,,,0.00,VWS V14.01,2013-02-08 01:16:00,
2013-02-07 20:17:00,26.4,12.8,30.39,NE,55,2.0,3.0,56,0.00,,,0.00,VWS V14.01,2013-02-08 01:17:00,
2013-02-07 20:18:00,26.4,12.8,30.39,ENE,57,0.0,3.0,56,0.00,,,0.00,VWS V14.01,2013-02-08 01:18:00,
2013-02-07 20:19:00,26.4,12.8,30.39,ENE,57,1.0,3.0,56,0.00,,,0.00,VWS V14.01,2013-02-08 01:19:00,
2013-02-07 20:20:00,26.4,12.8,30.39,NE,51,3.0,3.0,56,0.00,,,0.00,VWS V14.01,2013-02-08 01:20:00,
2013-02-07 20:21:00,26.4,12.8,30.39,NE,53,1.0,3.0,56,0.00,,,0.00,VWS V14.01,2013-02-08 01:21:00,
2013-02-07 20:22:00,26.4,12.8,30.39,ENE,59,3.0,3.0,56,0.00,,,0.00,VWS V14.01,2013-02-08 01:22:00,
2013-02-07 20:23:00,26.3,12.8,30.39,NE,56,0.0,4.0,56,0.00,,,0.00,VWS V14.01,2013-02-08 01:23:00,
2013-02-07 20:24:00,26.3,12.8,30.39,NE,56,3.0,4.0,56,0.00,,,0.00,VWS V14.01,2013-02-08 01:24:00,
2013-02-07 20:25:00,26.4,13.2,30.39,East,80,2.0,4.0,57,0.00,,,0.00,VWS V14.01,2013-02-08 01:25:00,
2013-02-07 20:26:00,26.3,13.1,30.39,East,80,2.0,4.0,57,0.00,,,0.00,VWS V14.01,2013-02-08 01:26:00,
2013-02-07 20:27:00,26.3,12.8,30.39,East,82,1.0,4.0,56,0.00,,,0.00,VWS V14.01,2013-02-08 01:27:00,
2013-02-07 20:28:00,26.3,12.8,30.39,East,83,3.0,4.0,56,0.00,,,0.00,VWS V14.01,2013-02-08 01:28:00,
2013-02-07 20:29:00,26.3,12.8,30.39,East,83,2.0,4.0,56,0.00,,,0.00,VWS V14.01,2013-02-08 01:29:00,
2013-02-07 20:30:00,26.3,12.8,30.39,East,83,3.0,5.0,56,0.00,,,0.00,VWS V14.01,2013-02-08 01:30:00,
2013-02-07 20:31:00,26.3,12.8,30.39,ENE,61,2.0,5.0,56,0.00,,,0.00,VWS V14.01,2013-02-08 01:31:00,
2013-02-07 20:32:00,26.3,12.8,30.39,ENE,75,4.0,5.0,56,0.00,,,0.00,VWS V14.01,2013-02-08 01:32:00,
2013-02-07 20:33:00,26.3,12.8,30.39,ENE,71,2.0,5.0,56,0.00,,,0.00,VWS V14.01,2013-02-08 01:33:00,
2013-02-07 20:34:00,26.3,12.8,30.39,ENE,72,1.0,5.0,56,0.00,,,0.00,VWS V14.01,2013-02-08 01:34:00,
2013-02-07 20:35:00,26.2,12.7,30.39,NE,34,3.0,5.0,56,0.00,,,0.00,VWS V14.01,2013-02-08 01:35:00,
2013-02-07 20:36:00,26.3,12.8,30.39,NE,40,0.0,5.0,56,0.00,,,0.00,VWS V14.01,2013-02-08 01:36:00,
2013-02-07 20:37:00,26.3,12.8,30.39,NE,41,1.0,5.0,56,0.00,,,0.00,VWS V14.01,2013-02-08 01:37:00,
2013-02-07 20:38:00,26.2,13.1,30.39,East,101,2.0,5.0,57,0.00,,,0.00,VWS V14.01,2013-02-08 01:38:00,
2013-02-07 20:39:00,26.2,13.1,30.39,ENE,74,1.0,5.0,57,0.00,,,0.00,VWS V14.01,2013-02-08 01:39:00,
2013-02-07 20:40:00,26.2,12.7,30.39,NE,54,2.0,6.0,56,0.00,,,0.00,VWS V14.01,2013-02-08 01:40:00,
2013-02-07 20:41:00,26.2,12.7,30.39,NE,54,3.0,3.0,56,0.00,,,0.00,VWS V14.01,2013-02-08 01:41:00,
2013-02-07 20:42:00,26.2,13.1,30.39,East,79,1.0,3.0,57,0.00,,,0.00,VWS V14.01,2013-02-08 01:42:00,
2013-02-07 20:43:00,26.2,13.1,30.39,ENE,78,1.0,3.0,57,0.00,,,0.00,VWS V14.01,2013-02-08 01:43:00,
2013-02-07 20:44:00,26.2,13.1,30.39,ENE,78,0.0,3.0,57,0.00,,,0.00,VWS V14.01,2013-02-08 01:44:00,
2013-02-07 20:45:00,26.2,13.1,30.38,ENE,77,2.0,4.0,57,0.00,,,0.00,VWS V14.01,2013-02-08 01:45:00,
2013-02-07 20:46:00,26.2,13.1,30.38,ENE,58,2.0,4.0,57,0.00,,,0.00,VWS V14.01,2013-02-08 01:46:00,
2013-02-07 20:47:00,26.2,13.1,30.38,ENE,58,1.0,4.0,57,0.00,,,0.00,VWS V14.01,2013-02-08 01:47:00,
2013-02-07 20:48:00,26.2,13.4,30.38,ENE,58,0.0,4.0,58,0.00,,,0.00,VWS V14.01,2013-02-08 01:48:00,
2013-02-07 20:49:00,26.2,13.4,30.38,NE,55,2.0,4.0,58,0.00,,,0.00,VWS V14.01,2013-02-08 01:49:00,
2013-02-07 20:50:00,26.2,13.4,30.38,NE,55,2.0,4.0,58,0.00,,,0.00,VWS V14.01,2013-02-08 01:50:00,
2013-02-07 20:51:00,26.1,13.4,30.38,ENE,65,3.0,3.0,58,0.00,,,0.00,VWS V14.01,2013-02-08 01:51:00,
2013-02-07 20:52:00,26.1,13.0,30.38,ENE,65,0.0,3.0,57,0.00,,,0.00,VWS V14.01,2013-02-08 01:52:00,
2013-02-07 20:53:00,26.1,13.0,30.38,NE,43,4.0,4.0,57,0.00,,,0.00,VWS V14.01,2013-02-08 01:53:00,
2013-02-07 20:54:00,26.1,13.0,30.38,NE,41,3.0,4.0,57,0.00,,,0.00,VWS V14.01,2013-02-08 01:54:00,
2013-02-07 20:55:00,26.1,13.4,30.38,NE,49,2.0,4.0,58,0.00,,,0.00,VWS V14.01,2013-02-08 01:55:00,
2013-02-07 20:56:00,26.1,13.4,30.38,NE,49,2.0,4.0,58,0.00,,,0.00,VWS V14.01,2013-02-08 01:56:00,
2013-02-07 20:57:00,26.1,13.0,30.38,NE,37,0.0,4.0,57,0.00,,,0.00,VWS V14.01,2013-02-08 01:57:00,
2013-02-07 20:58:00,26.1,13.4,30.38,NE,46,1.0,4.0,58,0.00,,,0.00,VWS V14.01,2013-02-08 01:58:00,
2013-02-07 20:59:00,26.1,13.4,30.38,NE,53,5.0,5.0,58,0.00,,,0.00,VWS V14.01,2013-02-08 01:59:00,
2013-02-07 21:00:00,26.1,13.4,30.38,ENE,63,1.0,5.0,58,0.00,,,0.00,VWS V14.01,2013-02-08 02:00:00,
2013-02-07 21:01:00,26.1,13.4,30.38,ENE,73,0.0,3.0,58,0.00,,,0.00,VWS V14.01,2013-02-08 02:01:00,
2013-02-07 21:02:00,26.1,13.4,30.38,ENE,74,0.0,3.0,58,0.00,,,0.00,VWS V14.01,2013-02-08 02:02:00,
2013-02-07 21:03:00,26.1,13.4,30.38,ENE,73,0.0,3.0,58,0.00,,,0.00,VWS V14.01,2013-02-08 02:03:00,
2013-02-07 21:04:00,26.1,13.4,30.38,ENE,67,1.0,3.0,58,0.00,,,0.00,VWS V14.01,2013-02-08 02:04:00,
2013-02-07 21:05:00,26.1,13.8,30.38,ENE,67,0.0,3.0,59,0.00,,,0.00,VWS V14.01,2013-02-08 02:05:00,
2013-02-07 21:06:00,26.1,13.8,30.38,ENE,67,1.0,3.0,59,0.00,,,0.00,VWS V14.01,2013-02-08 02:06:00,
2013-02-07 21:07:00,26.1,13.8,30.38,ENE,67,0.0,3.0,59,0.00,,,0.00,VWS V14.01,2013-02-08 02:07:00,
2013-02-07 21:08:00,26.1,13.8,30.38,East,96,5.0,5.0,59,0.00,,,0.00,VWS V14.01,2013-02-08 02:08:00,
2013-02-07 21:09:00,26.1,13.8,30.38,ESE,121,1.0,5.0,59,0.00,,,0.00,VWS V14.01,2013-02-08 02:09:00,
2013-02-07 21:10:00,26.1,13.8,30.38,ENE,61,3.0,5.0,59,0.00,,,0.00,VWS V14.01,2013-02-08 02:10:00,
2013-02-07 21:11:00,26.1,13.8,30.38,East,89,2.0,3.0,59,0.00,,,0.00,VWS V14.01,2013-02-08 02:11:00,
2013-02-07 21:12:00,26.1,13.8,30.38,SE,126,3.0,5.0,59,0.00,,,0.00,VWS V14.01,2013-02-08 02:12:00,
2013-02-07 21:13:00,26.1,13.8,30.38,East,92,0.0,5.0,59,0.00,,,0.00,VWS V14.01,2013-02-08 02:13:00,
2013-02-07 21:14:00,26.1,13.8,30.38,ESE,120,1.0,5.0,59,0.00,,,0.00,VWS V14.01,2013-02-08 02:14:00,
2013-02-07 21:15:00,26.1,13.8,30.38,ESE,120,2.0,5.0,59,0.00,,,0.00,VWS V14.01,2013-02-08 02:15:00,
2013-02-07 21:16:00,26.1,13.8,30.38,ESE,120,0.0,5.0,59,0.00,,,0.00,VWS V14.01,2013-02-08 02:16:00,
2013-02-07 21:17:00,26.1,14.1,30.38,ESE,117,2.0,5.0,60,0.00,,,0.00,VWS V14.01,2013-02-08 02:17:00,
2013-02-07 21:18:00,26.1,14.1,30.38,ESE,109,2.0,5.0,60,0.00,,,0.00,VWS V14.01,2013-02-08 02:18:00,
2013-02-07 21:19:00,26.1,14.1,30.38,NE,49,4.0,5.0,60,0.00,,,0.00,VWS V14.01,2013-02-08 02:19:00,
2013-02-07 21:20:00,26.1,14.1,30.38,ENE,74,3.0,7.0,60,0.00,,,0.00,VWS V14.01,2013-02-08 02:20:00,
2013-02-07 21:21:00,26.1,14.1,30.38,East,88,3.0,5.0,60,0.00,,,0.00,VWS V14.01,2013-02-08 02:21:00,
2013-02-07 21:22:00,26.1,14.5,30.38,East,96,2.0,5.0,61,0.00,,,0.00,VWS V14.01,2013-02-08 02:22:00,
2013-02-07 21:23:00,26.1,14.5,30.38,NE,51,1.0,5.0,61,0.00,,,0.00,VWS V14.01,2013-02-08 02:23:00,
2013-02-07 21:24:00,26.1,14.5,30.38,NE,43,4.0,5.0,61,0.00,,,0.00,VWS V14.01,2013-02-08 02:24:00,
2013-02-07 21:25:00,26.1,14.5,30.38,East,90,3.0,5.0,61,0.00,,,0.00,VWS V14.01,2013-02-08 02:25:00,
2013-02-07 21:26:00,26.2,14.6,30.38,NNE,33,3.0,5.0,61,0.00,,,0.00,VWS V14.01,2013-02-08 02:26:00,
2013-02-07 21:27:00,26.2,14.6,30.38,NE,49,1.0,5.0,61,0.00,,,0.00,VWS V14.01,2013-02-08 02:27:00,
2013-02-07 21:28:00,26.2,14.6,30.38,ENE,68,3.0,5.0,61,0.00,,,0.00,VWS V14.01,2013-02-08 02:28:00,
2013-02-07 21:29:00,26.2,14.6,30.38,ENE,70,1.0,5.0,61,0.00,,,0.00,VWS V14.01,2013-02-08 02:29:00,
2013-02-07 21:30:00,26.2,14.6,30.38,ENE,75,0.0,5.0,61,0.00,,,0.00,VWS V14.01,2013-02-08 02:30:00,
2013-02-07 21:31:00,26.2,15.0,30.38,ENE,75,0.0,1.0,62,0.00,,,0.00,VWS V14.01,2013-02-08 02:31:00,
2013-02-07 21:32:00,26.2,15.0,30.38,SE,126,4.0,7.0,62,0.00,,,0.00,VWS V14.01,2013-02-08 02:32:00,
2013-02-07 21:33:00,26.2,15.0,30.38,SE,126,1.0,7.0,62,0.00,,,0.00,VWS V14.01,2013-02-08 02:33:00,
2013-02-07 21:34:00,26.2,15.0,30.38,ENE,70,3.0,7.0,62,0.00,,,0.00,VWS V14.01,2013-02-08 02:34:00,
2013-02-07 21:35:00,26.2,15.3,30.38,ENE,69,3.0,7.0,63,0.00,,,0.00,VWS V14.01,2013-02-08 02:35:00,
2013-02-07 21:36:00,26.2,15.3,30.38,NE,53,3.0,7.0,63,0.00,,,0.00,VWS V14.01,2013-02-08 02:36:00,
2013-02-07 21:37:00,26.2,15.3,30.38,ENE,58,2.0,7.0,63,0.00,,,0.00,VWS V14.01,2013-02-08 02:37:00,
2013-02-07 21:38:00,26.2,15.3,30.38,East,86,2.0,7.0,63,0.00,,,0.00,VWS V14.01,2013-02-08 02:38:00,
2013-02-07 21:39:00,26.2,15.3,30.38,East,87,0.0,7.0,63,0.00,,,0.00,VWS V14.01,2013-02-08 02:39:00,
2013-02-07 21:40:00,26.2,15.3,30.38,ENE,78,0.0,7.0,63,0.00,,,0.00,VWS V14.01,2013-02-08 02:40:00,
2013-02-07 21:41:00,26.2,15.7,30.38,ENE,77,1.0,2.0,64,0.00,,,0.00,VWS V14.01,2013-02-08 02:41:00,
2013-02-07 21:42:00,26.3,15.8,30.38,ENE,78,3.0,3.0,64,0.00,,,0.00,VWS V14.01,2013-02-08 02:42:00,
2013-02-07 21:43:00,26.3,15.8,30.38,ESE,120,0.0,3.0,64,0.00,,,0.00,VWS V14.01,2013-02-08 02:43:00,
2013-02-07 21:44:00,26.3,15.8,30.38,East,83,1.0,5.0,64,0.00,,,0.00,VWS V14.01,2013-02-08 02:44:00,
2013-02-07 21:45:00,26.3,15.8,30.37,ENE,67,3.0,5.0,64,0.00,,,0.00,VWS V14.01,2013-02-08 02:45:00,
2013-02-07 21:46:00,26.2,15.7,30.37,ENE,59,1.0,5.0,64,0.00,,,0.00,VWS V14.01,2013-02-08 02:46:00,
2013-02-07 21:47:00,26.3,16.1,30.37,ENE,71,3.0,5.0,65,0.00,,,0.00,VWS V14.01,2013-02-08 02:47:00,
2013-02-07 21:48:00,26.3,16.1,30.37,ENE,71,2.0,5.0,65,0.00,,,0.00,VWS V14.01,2013-02-08 02:48:00,
2013-02-07 21:49:00,26.3,16.1,30.37,East,94,1.0,5.0,65,0.00,,,0.00,VWS V14.01,2013-02-08 02:49:00,
2013-02-07 21:50:00,26.3,16.1,30.37,East,93,0.0,5.0,65,0.00,,,0.00,VWS V14.01,2013-02-08 02:50:00,
2013-02-07 21:51:00,26.3,16.1,30.37,East,95,3.0,3.0,65,0.00,,,0.00,VWS V14.01,2013-02-08 02:51:00,
2013-02-07 21:52:00,26.3,16.1,30.37,SE,132,0.0,3.0,65,0.00,,,0.00,VWS V14.01,2013-02-08 02:52:00,
2013-02-07 21:53:00,26.3,16.1,30.37,SE,127,2.0,3.0,65,0.00,,,0.00,VWS V14.01,2013-02-08 02:53:00,
2013-02-07 21:54:00,26.3,16.5,30.37,ESE,123,0.0,4.0,66,0.00,,,0.00,VWS V14.01,2013-02-08 02:54:00,
2013-02-07 21:55:00,26.3,16.5,30.37,NE,40,1.0,4.0,66,0.00,,,0.00,VWS V14.01,2013-02-08 02:55:00,
2013-02-07 21:56:00,26.3,16.5,30.37,ENE,67,0.0,4.0,66,0.00,,,0.00,VWS V14.01,2013-02-08 02:56:00,
2013-02-07 21:57:00,26.3,16.5,30.37,ENE,68,3.0,4.0,66,0.00,,,0.00,VWS V14.01,2013-02-08 02:57:00,
2013-02-07 21:58:00,26.4,16.6,30.37,ESE,115,3.0,5.0,66,0.00,,,0.00,VWS V14.01,2013-02-08 02:58:00,
2013-02-07 21:59:00,26.4,16.6,30.37,ESE,115,2.0,5.0,66,0.00,,,0.00,VWS V14.01,2013-02-08 02:59:00,
2013-02-07 22:00:00,26.3,16.5,30.36,NE,53,4.0,5.0,66,0.00,,,0.00,VWS V14.01,2013-02-08 03:00:00,
2013-02-07 22:01:00,26.4,16.6,30.36,ENE,61,2.0,4.0,66,0.00,,,0.00,VWS V14.01,2013-02-08 03:01:00,
2013-02-07 22:02:00,26.4,16.9,30.36,ENE,61,2.0,4.0,67,0.00,,,0.00,VWS V14.01,2013-02-08 03:02:00,
2013-02-07 22:03:00,26.4,16.9,30.36,ESE,115,4.0,4.0,67,0.00,,,0.00,VWS V14.01,2013-02-08 03:03:00,
2013-02-07 22:04:00,26.4,16.9,30.36,SE,143,1.0,4.0,67,0.00,,,0.00,VWS V14.01,2013-02-08 03:04:00,
2013-02-07 22:05:00,26.4,16.9,30.36,East,89,3.0,4.0,67,0.00,,,0.00,VWS V14.01,2013-02-08 03:05:00,
2013-02-07 22:06:00,26.4,16.9,30.36,East,100,1.0,4.0,67,0.00,,,0.00,VWS V14.01,2013-02-08 03:06:00,
2013-02-07 22:07:00,26.4,16.9,30.36,East,100,2.0,4.0,67,0.00,,,0.00,VWS V14.01,2013-02-08 03:07:00,
2013-02-07 22:08:00,26.4,16.9,30.36,ESE,103,2.0,4.0,67,0.00,,,0.00,VWS V14.01,2013-02-08 03:08:00,
2013-02-07 22:09:00,26.4,16.9,30.36,ENE,59,4.0,5.0,67,0.00,,,0.00,VWS V14.01,2013-02-08 03:09:00,
2013-02-07 22:10:00,26.4,16.9,30.36,SE,128,6.0,7.0,67,0.00,,,0.00,VWS V14.01,2013-02-08 03:10:00,
2013-02-07 22:11:00,26.4,16.9,30.36,NE,44,5.0,7.0,67,0.00,,,0.00,VWS V14.01,2013-02-08 03:11:00,
2013-02-07 22:12:00,26.4,16.9,30.36,East,94,5.0,7.0,67,0.00,,,0.00,VWS V14.01,2013-02-08 03:12:00,
2013-02-07 22:13:00,26.5,17.4,30.36,ESE,115,1.0,7.0,68,0.00,,,0.00,VWS V14.01,2013-02-08 03:13:00,
2013-02-07 22:14:00,26.4,17.3,30.36,East,84,2.0,7.0,68,0.00,,,0.00,VWS V14.01,2013-02-08 03:14:00,
2013-02-07 22:15:00,26.5,17.4,30.36,NE,51,4.0,7.0,68,0.00,,,0.00,VWS V14.01,2013-02-08 03:15:00,
2013-02-07 22:16:00,26.5,17.4,30.36,East,88,3.0,7.0,68,0.00,,,0.00,VWS V14.01,2013-02-08 03:16:00,
2013-02-07 22:17:00,26.5,17.4,30.36,East,82,2.0,7.0,68,0.00,,,0.00,VWS V14.01,2013-02-08 03:17:00,
2013-02-07 22:18:00,26.5,17.4,30.36,ESE,103,3.0,7.0,68,0.00,,,0.00,VWS V14.01,2013-02-08 03:18:00,
2013-02-07 22:19:00,26.5,17.4,30.36,ESE,102,2.0,7.0,68,0.00,,,0.00,VWS V14.01,2013-02-08 03:19:00,
2013-02-07 22:20:00,26.5,17.4,30.36,ESE,105,2.0,7.0,68,0.00,,,0.00,VWS V14.01,2013-02-08 03:20:00,
2013-02-07 22:21:00,26.5,17.4,30.36,East,101,0.0,3.0,68,0.00,,,0.00,VWS V14.01,2013-02-08 03:21:00,
2013-02-07 22:22:00,26.5,17.4,30.36,ESE,102,2.0,4.0,68,0.00,,,0.00,VWS V14.01,2013-02-08 03:22:00,
2013-02-07 22:23:00,26.5,17.4,30.36,ESE,109,1.0,7.0,68,0.00,,,0.00,VWS V14.01,2013-02-08 03:23:00,
2013-02-07 22:24:00,26.5,17.4,30.36,ESE,111,1.0,7.0,68,0.00,,,0.00,VWS V14.01,2013-02-08 03:24:00,
2013-02-07 22:25:00,26.5,17.4,30.36,ESE,111,2.0,7.0,68,0.00,,,0.00,VWS V14.01,2013-02-08 03:25:00,
2013-02-07 22:26:00,26.5,17.4,30.36,ESE,113,1.0,7.0,68,0.00,,,0.00,VWS V14.01,2013-02-08 03:26:00,
2013-02-07 22:27:00,26.5,17.7,30.36,NE,46,5.0,7.0,69,0.00,,,0.00,VWS V14.01,2013-02-08 03:27:00,
2013-02-07 22:28:00,26.5,17.7,30.36,NE,51,2.0,7.0,69,0.00,,,0.00,VWS V14.01,2013-02-08 03:28:00,
2013-02-07 22:29:00,26.5,17.7,30.36,ENE,58,2.0,7.0,69,0.00,,,0.00,VWS V14.01,2013-02-08 03:29:00,
2013-02-07 22:30:00,26.5,17.7,30.35,ENE,67,3.0,7.0,69,0.00,,,0.00,VWS V14.01,2013-02-08 03:30:00,
2013-02-07 22:31:00,26.5,17.7,30.35,ENE,74,2.0,4.0,69,0.00,,,0.00,VWS V14.01,2013-02-08 03:31:00,
2013-02-07 22:32:00,26.5,17.7,30.35,SSE,151,3.0,4.0,69,0.00,,,0.00,VWS V14.01,2013-02-08 03:32:00,
2013-02-07 22:33:00,26.5,17.7,30.35,ENE,74,5.0,5.0,69,0.00,,,0.00,VWS V14.01,2013-02-08 03:33:00,
2013-02-07 22:34:00,26.5,18.0,30.35,ENE,71,1.0,5.0,70,0.00,,,0.00,VWS V14.01,2013-02-08 03:34:00,
2013-02-07 22:35:00,26.5,18.0,30.35,NE,53,4.0,5.0,70,0.00,,,0.00,VWS V14.01,2013-02-08 03:35:00,
2013-02-07 22:36:00,26.5,18.0,30.35,NE,49,3.0,5.0,70,0.00,,,0.00,VWS V14.01,2013-02-08 03:36:00,
2013-02-07 22:37:00,26.6,18.1,30.35,ESE,102,2.0,5.0,70,0.00,,,0.00,VWS V14.01,2013-02-08 03:37:00,
2013-02-07 22:38:00,26.6,18.1,30.35,NE,54,2.0,5.0,70,0.00,,,0.00,VWS V14.01,2013-02-08 03:38:00,
2013-02-07 22:39:00,26.6,18.1,30.35,ENE,67,2.0,5.0,70,0.00,,,0.00,VWS V14.01,2013-02-08 03:39:00,
2013-02-07 22:40:00,26.6,18.5,30.35,ENE,78,3.0,5.0,71,0.00,,,0.00,VWS V14.01,2013-02-08 03:40:00,
2013-02-07 22:41:00,26.6,18.1,30.35,ENE,75,1.0,7.0,70,0.00,,,0.00,VWS V14.01,2013-02-08 03:41:00,
2013-02-07 22:42:00,26.6,18.5,30.35,ESE,119,2.0,7.0,71,0.00,,,0.00,VWS V14.01,2013-02-08 03:42:00,
2013-02-07 22:43:00,26.6,18.5,30.35,ESE,119,0.0,7.0,71,0.00,,,0.00,VWS V14.01,2013-02-08 03:43:00,
2013-02-07 22:44:00,26.6,18.5,30.35,ENE,59,2.0,7.0,71,0.00,,,0.00,VWS V14.01,2013-02-08 03:44:00,
2013-02-07 22:45:00,26.6,18.5,30.34,ENE,65,2.0,7.0,71,0.00,,,0.00,VWS V14.01,2013-02-08 03:45:00,
2013-02-07 22:46:00,26.7,18.6,30.34,ENE,65,2.0,7.0,71,0.00,,,0.00,VWS V14.01,2013-02-08 03:46:00,
2013-02-07 22:47:00,26.7,18.6,30.34,ENE,66,1.0,7.0,71,0.00,,,0.00,VWS V14.01,2013-02-08 03:47:00,
2013-02-07 22:48:00,26.7,18.6,30.34,East,94,2.0,7.0,71,0.00,,,0.00,VWS V14.01,2013-02-08 03:48:00,
2013-02-07 22:49:00,26.7,18.6,30.34,ENE,71,4.0,7.0,71,0.00,,,0.00,VWS V14.01,2013-02-08 03:49:00,
2013-02-07 22:50:00,26.7,18.9,30.34,ESE,114,3.0,7.0,72,0.00,,,0.00,VWS V14.01,2013-02-08 03:50:00,
2013-02-07 22:51:00,26.7,18.9,30.34,East,88,6.0,8.0,72,0.00,,,0.00,VWS V14.01,2013-02-08 03:51:00,
2013-02-07 22:52:00,26.7,18.9,30.34,East,93,3.0,8.0,72,0.00,,,0.00,VWS V14.01,2013-02-08 03:52:00,
2013-02-07 22:53:00,26.8,19.0,30.34,ENE,75,3.0,8.0,72,0.00,,,0.00,VWS V14.01,2013-02-08 03:53:00,
2013-02-07 22:54:00,26.8,19.0,30.34,East,98,1.0,8.0,72,0.00,,,0.00,VWS V14.01,2013-02-08 03:54:00,
2013-02-07 22:55:00,26.8,19.0,30.34,East,92,2.0,8.0,72,0.00,,,0.00,VWS V14.01,2013-02-08 03:55:00,
2013-02-07 22:56:00,26.8,19.0,30.34,East,96,3.0,8.0,72,0.00,,,0.00,VWS V14.01,2013-02-08 03:56:00,
2013-02-07 22:57:00,26.9,19.1,30.34,East,96,1.0,8.0,72,0.00,,,0.00,VWS V14.01,2013-02-08 03:57:00,
2013-02-07 22:58:00,26.9,19.1,30.34,East,85,5.0,8.0,72,0.00,,,0.00,VWS V14.01,2013-02-08 03:58:00,
2013-02-07 22:59:00,26.9,19.1,30.34,SE,128,5.0,8.0,72,0.00,,,0.00,VWS V14.01,2013-02-08 03:59:00,
2013-02-07 23:00:00,26.9,19.1,30.33,SE,128,1.0,8.0,72,0.00,,,0.00,VWS V14.01,2013-02-08 04:00:00,
2013-02-07 23:01:00,26.9,19.4,30.33,ESE,111,3.0,3.0,73,0.00,,,0.00,VWS V14.01,2013-02-08 04:01:00,
2013-02-07 23:02:00,26.9,19.4,30.33,East,98,1.0,5.0,73,0.00,,,0.00,VWS V14.01,2013-02-08 04:02:00,
2013-02-07 23:03:00,26.9,19.4,30.33,East,100,1.0,5.0,73,0.00,,,0.00,VWS V14.01,2013-02-08 04:03:00,
2013-02-07 23:04:00,26.9,19.4,30.33,East,100,0.0,5.0,73,0.00,,,0.00,VWS V14.01,2013-02-08 04:04:00,
2013-02-07 23:05:00,26.9,19.4,30.33,ESE,107,2.0,5.0,73,0.00,,,0.00,VWS V14.01,2013-02-08 04:05:00,
2013-02-07 23:06:00,26.9,19.4,30.33,ESE,102,2.0,5.0,73,0.00,,,0.00,VWS V14.01,2013-02-08 04:06:00,
2013-02-07 23:07:00,26.9,19.4,30.33,ESE,116,2.0,5.0,73,0.00,,,0.00,VWS V14.01,2013-02-08 04:07:00,
2013-02-07 23:08:00,27.0,19.5,30.33,NE,50,2.0,5.0,73,0.00,,,0.00,VWS V14.01,2013-02-08 04:08:00,
2013-02-07 23:09:00,27.0,19.5,30.33,East,100,3.0,5.0,73,0.00,,,0.00,VWS V14.01,2013-02-08 04:09:00,
2013-02-07 23:10:00,27.0,19.5,30.33,ESE,111,3.0,5.0,73,0.00,,,0.00,VWS V14.01,2013-02-08 04:10:00,
2013-02-07 23:11:00,27.0,19.5,30.33,ESE,111,1.0,1.0,73,0.00,,,0.00,VWS V14.01,2013-02-08 04:11:00,
2013-02-07 23:12:00,27.0,19.5,30.33,ESE,109,0.0,3.0,73,0.00,,,0.00,VWS V14.01,2013-02-08 04:12:00,
2013-02-07 23:13:00,27.0,19.5,30.33,East,97,0.0,3.0,73,0.00,,,0.00,VWS V14.01,2013-02-08 04:13:00,
2013-02-07 23:14:00,27.0,19.8,30.33,NNE,28,4.0,4.0,74,0.00,,,0.00,VWS V14.01,2013-02-08 04:14:00,
2013-02-07 23:15:00,27.0,19.8,30.32,ESE,111,2.0,8.0,74,0.00,,,0.00,VWS V14.01,2013-02-08 04:15:00,
2013-02-07 23:16:00,27.1,19.9,30.32,ENE,64,4.0,8.0,74,0.00,,,0.00,VWS V14.01,2013-02-08 04:16:00,
2013-02-07 23:17:00,27.1,19.9,30.32,ENE,60,3.0,8.0,74,0.00,,,0.00,VWS V14.01,2013-02-08 04:17:00,
2013-02-07 23:18:00,27.1,19.9,30.32,East,79,2.0,8.0,74,0.00,,,0.00,VWS V14.01,2013-02-08 04:18:00,
2013-02-07 23:19:00,27.1,19.9,30.32,ENE,58,2.0,8.0,74,0.00,,,0.00,VWS V14.01,2013-02-08 04:19:00,
2013-02-07 23:20:00,27.1,19.9,30.32,NE,36,4.0,8.0,74,0.00,,,0.00,VWS V14.01,2013-02-08 04:20:00,
2013-02-07 23:21:00,27.1,19.9,30.32,East,83,2.0,5.0,74,0.00,,,0.00,VWS V14.01,2013-02-08 04:21:00,
2013-02-07 23:22:00,27.1,19.9,30.32,East,85,2.0,5.0,74,0.00,,,0.00,VWS V14.01,2013-02-08 04:22:00,
2013-02-07 23:23:00,27.1,19.9,30.32,ESE,107,3.0,5.0,74,0.00,,,0.00,VWS V14.01,2013-02-08 04:23:00,
2013-02-07 23:24:00,27.1,19.9,30.32,East,101,6.0,6.0,74,0.00,,,0.00,VWS V14.01,2013-02-08 04:24:00,
2013-02-07 23:25:00,27.1,19.9,30.32,East,97,3.0,6.0,74,0.00,,,0.00,VWS V14.01,2013-02-08 04:25:00,
2013-02-07 23:26:00,27.1,19.9,30.32,East,98,5.0,6.0,74,0.00,,,0.00,VWS V14.01,2013-02-08 04:26:00,
2013-02-07 23:27:00,27.2,20.0,30.32,ESE,117,4.0,8.0,74,0.00,,,0.00,VWS V14.01,2013-02-08 04:27:00,
2013-02-07 23:28:00,27.1,19.9,30.32,ESE,117,3.0,8.0,74,0.00,,,0.00,VWS V14.01,2013-02-08 04:28:00,
2013-02-07 23:29:00,27.2,20.3,30.32,ESE,107,3.0,8.0,75,0.00,,,0.00,VWS V14.01,2013-02-08 04:29:00,
2013-02-07 23:30:00,27.2,20.3,30.32,East,88,5.0,8.0,75,0.00,,,0.00,VWS V14.01,2013-02-08 04:30:00,
2013-02-07 23:31:00,27.2,20.3,30.32,East,89,5.0,5.0,75,0.00,,,0.00,VWS V14.01,2013-02-08 04:31:00,
2013-02-07 23:32:00,27.2,20.3,30.32,ESE,111,7.0,8.0,75,0.00,,,0.00,VWS V14.01,2013-02-08 04:32:00,
2013-02-07 23:33:00,27.2,20.3,30.32,East,83,3.0,8.0,75,0.00,,,0.00,VWS V14.01,2013-02-08 04:33:00,
2013-02-07 23:34:00,27.2,20.3,30.32,ENE,60,2.0,8.0,75,0.00,,,0.00,VWS V14.01,2013-02-08 04:34:00,
2013-02-07 23:35:00,27.2,20.3,30.32,East,92,6.0,8.0,75,0.00,,,0.00,VWS V14.01,2013-02-08 04:35:00,
2013-02-07 23:36:00,27.2,20.3,30.32,East,90,2.0,8.0,75,0.00,,,0.00,VWS V14.01,2013-02-08 04:36:00,
2013-02-07 23:37:00,27.2,20.3,30.32,East,97,5.0,8.0,75,0.00,,,0.00,VWS V14.01,2013-02-08 04:37:00,
2013-02-07 23:38:00,27.2,20.3,30.32,NE,48,2.0,8.0,75,0.00,,,0.00,VWS V14.01,2013-02-08 04:38:00,
2013-02-07 23:39:00,27.2,20.3,30.32,ENE,61,2.0,8.0,75,0.00,,,0.00,VWS V14.01,2013-02-08 04:39:00,
2013-02-07 23:40:00,27.3,20.4,30.32,East,86,5.0,8.0,75,0.00,,,0.00,VWS V14.01,2013-02-08 04:40:00,
2013-02-07 23:41:00,27.3,20.4,30.32,East,88,2.0,3.0,75,0.00,,,0.00,VWS V14.01,2013-02-08 04:41:00,
2013-02-07 23:42:00,27.3,20.8,30.32,East,88,0.0,3.0,76,0.00,,,0.00,VWS V14.01,2013-02-08 04:42:00,
2013-02-07 23:43:00,27.3,20.8,30.32,East,88,0.0,3.0,76,0.00,,,0.00,VWS V14.01,2013-02-08 04:43:00,
2013-02-07 23:44:00,27.3,20.8,30.32,East,88,3.0,3.0,76,0.00,,,0.00,VWS V14.01,2013-02-08 04:44:00,
2013-02-07 23:45:00,27.3,20.8,30.31,East,88,2.0,5.0,76,0.00,,,0.00,VWS V14.01,2013-02-08 04:45:00,
2013-02-07 23:46:00,27.4,20.8,30.31,SSE,154,3.0,5.0,76,0.00,,,0.00,VWS V14.01,2013-02-08 04:46:00,
2013-02-07 23:47:00,27.4,20.8,30.31,South,172,0.0,5.0,76,0.00,,,0.00,VWS V14.01,2013-02-08 04:47:00,
2013-02-07 23:48:00,27.4,20.8,30.31,South,171,0.0,5.0,76,0.00,,,0.00,VWS V14.01,2013-02-08 04:48:00,
2013-02-07 23:49:00,27.4,20.8,30.31,East,96,1.0,5.0,76,0.00,,,0.00,VWS V14.01,2013-02-08 04:49:00,
2013-02-07 23:50:00,27.4,20.8,30.31,ESE,102,1.0,5.0,76,0.00,,,0.00,VWS V14.01,2013-02-08 04:50:00,
2013-02-07 23:51:00,27.4,20.8,30.31,ESE,108,5.0,5.0,76,0.00,,,0.00,VWS V14.01,2013-02-08 04:51:00,
2013-02-07 23:52:00,27.4,20.8,30.31,ESE,108,1.0,5.0,76,0.00,,,0.00,VWS V14.01,2013-02-08 04:52:00,
2013-02-07 23:53:00,27.4,20.8,30.31,ESE,106,3.0,5.0,76,0.00,,,0.00,VWS V14.01,2013-02-08 04:53:00,
2013-02-07 23:54:00,27.4,20.8,30.31,ENE,72,5.0,5.0,76,0.00,,,0.00,VWS V14.01,2013-02-08 04:54:00,
2013-02-07 23:55:00,27.4,20.8,30.31,SSE,153,7.0,7.0,76,0.00,,,0.00,VWS V14.01,2013-02-08 04:55:00,
2013-02-07 23:56:00,27.5,20.9,30.31,East,91,3.0,7.0,76,0.00,,,0.00,VWS V14.01,2013-02-08 04:56:00,
2013-02-07 23:57:00,27.5,21.2,30.31,East,79,3.0,7.0,77,0.00,,,0.00,VWS V14.01,2013-02-08 04:57:00,
2013-02-07 23:58:00,27.5,21.2,30.31,ESE,105,4.0,7.0,77,0.00,,,0.00,VWS V14.01,2013-02-08 04:58:00,
2013-02-07 23:59:00,27.5,21.2,30.31,East,94,3.0,7.0,77,0.00,,,0.00,VWS V14.01,2013-02-08 04:59:00,